[[{"header":{"parameterUnit":"m.s-1","parameterCategory":1,"la1":31.0,"la2":29.5877,"lo1":-88.7671,"lo2":-86.6584,"dy":0.0162,"dx":0.0185,"nx":115,"ny":88,"refTime":"2024-04-29T06:00:00:Z","depth":0,"parameterNumber":2,"parameterNumberName":"U-component_of_WINDS"},"data":[0.0,0.0,0.0,0.0,0.0,0.0,0.0,0.0,0.0,0.0,0.0,0.0,0.0,0.0,0.0,0.0,0.0,0.0,0.0,0.0,0.0,0.0,0.0,0.0,0.0,0.0,0.0,0.0,0.0,0.0,0.0,0.0,0.0,0.0,0.0,0.0,0.0,0.0,0.0,0.0,0.0,0.0,0.0,0.0,0.0,0.0,0.0,0.0,0.0,0.0,0.0,0.0,0.0,0.0,0.0,0.0,0.0,0.0,0.0,0.0,0.0,0.0,0.0,0.0,0.0,0.0,0.0,0.0,0.0,0.0,0.0,0.0,0.0,0.0,0.0,0.0,0.0,0.0,0.0,0.0,0.0,0.0,0.0,0.0,0.0,0.0,0.0,0.0,0.0,0.0,0.0,0.0,0.0,0.0,0.0,0.0,0.0,0.0,0.0,0.0,0.0,0.0,0.0,0.0,0.0,0.0,0.0,0.0,0.0,0.0,0.0,0.0,0.0,0.0,0.0,0.0,0.0,0.0,0.0,0.0,0.0,0.0,0.0,0.0,0.0,0.0,0.0,0.0,0.0,0.0,0.0,0.0,0.0,0.0,0.0,0.0,0.0,0.0,0.0,0.0,0.0,0.0,0.0,0.0,0.0,0.0,0.0,0.0,0.0,0.0,0.0,0.0,0.0,0.0,0.0,0.0,0.0,0.0,0.0,0.0,0.0,0.0,0.0,0.0,0.0,0.0,0.0,0.0,0.0,0.0,0.0,0.0,0.0,0.0,0.0,0.0,0.0,0.0,0.0,0.0,0.0,0.0,0.0,0.0,0.0,0.0,0.0,0.0,0.0,0.0,0.0,0.0,0.0,0.0,0.0,0.0,0.0,0.0,0.0,0.0,0.0,0.0,0.0,0.0,0.0,0.0,0.0,0.0,0.0,0.0,0.0,0.0,0.0,0.0,0.0,0.0,0.0,0.0,0.0,0.0,0.0,0.0,0.0,0.0,0.0,0.0,0.0,0.0,0.0,0.0,0.0,0.0,0.0,0.0,0.0,0.0,0.0,0.0,0.0,0.0,0.0,0.0,0.0,0.0,0.0,0.0,0.0,0.0,0.0,0.0,0.0,0.0,0.0,0.0,0.0,0.0,0.0,0.0,0.0,0.0,0.0,0.0,0.0,0.0,0.0,0.0,0.0,0.0,0.0,0.0,0.0,0.0,0.0,0.0,0.0,0.0,0.0,0.0,0.0,0.0,0.0,0.0,0.0,0.0,0.0,0.0,0.0,0.0,0.0,0.0,0.0,0.0,0.0,0.0,0.0,0.0,0.0,0.0,0.0,0.0,0.0,0.0,0.0,0.0,0.0,0.0,0.0,0.0,0.0,0.0,0.0,0.0,0.0,0.0,0.0,0.0,0.0,0.0,0.0,0.0,0.0,0.0,0.0,0.0,0.0,0.0,0.0,0.0,0.0,0.0,0.0,0.0,0.0,0.0,0.0,0.0,0.0,0.0,0.0,0.0,0.0,0.0,0.0,0.0,0.0,0.0,0.0,0.0,0.0,0.0,0.0,0.0,0.0,0.0,0.0,0.0,0.0,0.0,0.0,0.0,0.0,0.0,0.0,0.0,0.0,0.0,0.0,0.0,0.0,0.0,0.0,0.0,0.0,0.0,0.0,0.0,0.0,0.0,0.0,0.0,0.0,0.0,0.0,0.0,0.0,0.0,0.0,0.0,0.0,0.0,0.0,0.0,0.0,0.0,0.0,0.0,0.0,0.0,0.0,0.0,0.0,0.0,0.0,0.0,0.0,0.0,0.0,0.0,0.0,0.0,0.0,0.0,0.0,0.0,0.0,0.0,0.0,0.0,0.0,0.0,0.0,0.0,0.0,0.0,0.0,0.0,0.0,0.0,0.0,0.0,0.0,0.0,0.0,0.0,0.0,0.0,0.0,0.0,0.0,0.0,0.0,0.0,0.0,0.0,0.0,0.0,0.0,0.0,0.0,0.0,0.0,0.0,0.0,0.0,0.0,0.0,0.0,0.0,0.0,0.0,0.0,0.0,0.0,0.0,0.0,0.0,0.0,0.0,0.0,0.0,0.0,0.0,0.0,0.0,0.0,0.0,0.0,0.0,0.0,0.0,0.0,0.0,0.0,0.0,0.0,0.0,0.0,0.0,0.0,0.0,0.0,0.0,0.0,0.0,0.0,0.0,0.0,0.0,0.0,0.0,0.0,0.0,0.0,0.0,0.0,0.0,0.0,0.0,0.0,0.0,0.0,0.0,0.0,0.0,0.0,0.0,0.0,0.0,0.0,0.0,0.0,0.0,0.0,0.0,0.0,0.0,0.0,0.0,0.0,0.0,0.0,0.0,0.0,0.0,0.0,0.0,0.0,0.0,0.0,0.0,0.0,0.0,0.0,0.0,0.0,0.0,0.0,0.0,0.0,0.0,0.0,0.0,0.0,0.0,0.0,0.0,0.0,0.0,0.0,0.0,0.0,0.0,0.0,0.0,0.0,0.0,0.0,0.0,0.0,0.0,0.0,0.0,0.0,0.0,0.0,0.0,0.0,0.0,0.0,0.0,0.0,0.0,0.0,0.0,0.0,0.0,0.0,0.0,0.0,0.0,0.0,0.0,0.0,0.0,0.0,0.0,0.0,0.0,0.0,0.0,0.0,0.0,0.0,0.0,0.0,0.0,0.0,0.0,0.0,0.0,0.0,0.0,0.0,0.0,0.0,0.0,0.0,0.0,0.0,0.0,0.0,0.0,0.0,0.0,0.0,0.0,0.0,0.0,0.0,0.0,0.0,0.0,0.0,0.0,0.0,0.0,0.0,0.0,0.0,0.0,0.0,0.0,0.0,0.0,0.0,0.0,0.0,0.0,0.0,0.0,0.0,0.0,0.0,0.0,0.0,0.0,0.0,0.0,0.0,0.0,0.0,0.0,0.0,0.0,0.0,0.0,0.0,0.0,0.0,0.0,0.0,0.0,0.0,0.0,0.0,0.0,0.0,0.0,0.0,0.0,0.0,0.0,0.0,0.0,0.0,0.0,0.0,0.0,0.0,0.0,0.0,0.0,0.0,0.0,0.0,0.0,0.0,0.0,0.0,0.0,0.0,0.0,0.0,0.0,0.0,0.0,0.0,0.0,0.0,0.0,0.0,0.0,0.0,0.0,0.0,0.0,0.0,0.0,0.0,0.0,0.0,0.0,0.0,0.0,0.0,0.0,0.0,0.0,0.0,0.0,0.0,0.0,0.0,0.0,0.0,0.0,0.0,0.0,0.0,0.0,0.0,0.0,0.0,0.0,0.0,0.0,0.0,0.0,0.0,0.0,0.0,0.0,0.0,0.0,0.0,0.0,0.0,0.0,0.0,0.0,0.0,0.0,0.0,0.0,0.0,0.0,0.0,0.0,0.0,0.0,0.0,0.0,0.0,0.0,0.0,0.0,0.0,0.0,0.0,0.0,0.0,0.0,0.0,0.0,0.0,0.0,0.0,0.0,0.0,0.0,0.0,0.0,0.0,0.0,0.0,0.0,0.0,0.0,0.0,0.0,0.0,0.0,0.0,0.0,0.0,0.0,0.0,0.0,0.0,0.0,0.0,0.0,0.0,0.0,0.0,0.0,0.0,0.0,0.0,0.0,0.0,0.0,0.0,0.0,0.0,0.0,0.0,0.0,0.0,0.0,0.0,0.0,0.0,0.0,0.0,0.0,0.0,0.0,0.0,0.0,0.0,0.0,0.0,0.0,0.0,0.0,0.0,0.0,0.0,0.0,0.0,0.0,0.0,0.0,0.0,0.0,0.0,0.0,0.0,0.0,0.0,0.0,0.0,0.0,0.0,0.0,0.0,0.0,0.0,0.0,0.0,0.0,0.0,0.0,0.0,0.0,0.0,0.0,0.0,0.0,0.0,0.0,0.0,0.0,0.0,0.0,0.0,0.0,0.0,0.0,0.0,0.0,0.0,0.0,0.0,0.0,0.0,0.0,0.0,0.0,0.0,0.0,0.0,0.0,0.0,0.0,0.0,0.0,0.0,0.0,0.0,0.0,0.0,0.0,0.0,0.0,0.0,0.0,0.0,0.0,0.0,0.0,0.0,0.0,0.0,0.0,0.0,0.0,0.0,0.0,0.0,0.0,0.0,0.0,0.0,0.0,0.0,0.0,0.0,0.0,0.0,0.0,0.0,0.0,0.0,0.0,0.0,0.0,0.0,0.0,0.0,0.0,0.0,0.0,0.0,0.0,0.0,0.0,0.0,0.0,0.0,0.0,-3.4204,0.0,0.0,0.0,-3.2532,0.0,0.0,0.0,0.0,0.0,0.0,0.0,0.0,0.0,0.0,0.0,0.0,0.0,0.0,0.0,0.0,0.0,0.0,0.0,0.0,0.0,0.0,0.0,0.0,0.0,0.0,0.0,0.0,0.0,0.0,0.0,0.0,0.0,0.0,0.0,0.0,0.0,0.0,0.0,0.0,0.0,0.0,0.0,0.0,0.0,0.0,0.0,0.0,0.0,0.0,0.0,0.0,0.0,0.0,0.0,0.0,0.0,0.0,0.0,0.0,0.0,0.0,0.0,0.0,0.0,0.0,0.0,0.0,0.0,0.0,0.0,0.0,0.0,0.0,0.0,0.0,0.0,0.0,0.0,0.0,0.0,0.0,0.0,0.0,0.0,0.0,0.0,0.0,0.0,0.0,0.0,0.0,0.0,0.0,0.0,0.0,0.0,0.0,0.0,0.0,0.0,0.0,0.0,0.0,0.0,0.0,0.0,0.0,0.0,0.0,-3.5192,-3.5173,-3.5169,-3.468,-3.361,0.0,0.0,0.0,0.0,0.0,0.0,0.0,0.0,0.0,0.0,0.0,0.0,0.0,0.0,0.0,0.0,0.0,0.0,0.0,0.0,0.0,0.0,0.0,0.0,0.0,0.0,0.0,0.0,0.0,0.0,0.0,0.0,0.0,0.0,0.0,0.0,0.0,0.0,0.0,0.0,0.0,0.0,0.0,0.0,0.0,0.0,0.0,0.0,0.0,0.0,0.0,0.0,0.0,0.0,0.0,0.0,0.0,0.0,0.0,0.0,0.0,0.0,0.0,0.0,0.0,0.0,0.0,0.0,0.0,0.0,0.0,0.0,0.0,0.0,0.0,0.0,0.0,0.0,0.0,0.0,0.0,0.0,0.0,0.0,0.0,0.0,0.0,0.0,0.0,0.0,0.0,0.0,0.0,0.0,0.0,0.0,0.0,0.0,0.0,0.0,0.0,0.0,0.0,0.0,0.0,0.0,0.0,0.0,0.0,0.0,0.0,0.0,-3.6001,-3.5304,-3.4027,0.0,0.0,0.0,0.0,0.0,0.0,0.0,0.0,0.0,0.0,0.0,0.0,0.0,0.0,0.0,0.0,0.0,0.0,0.0,0.0,0.0,0.0,0.0,0.0,0.0,0.0,0.0,0.0,0.0,0.0,0.0,0.0,0.0,0.0,0.0,0.0,0.0,0.0,0.0,0.0,0.0,0.0,0.0,0.0,0.0,0.0,0.0,0.0,0.0,0.0,0.0,0.0,0.0,0.0,0.0,0.0,0.0,0.0,0.0,0.0,0.0,0.0,0.0,0.0,0.0,0.0,0.0,0.0,0.0,0.0,0.0,0.0,0.0,0.0,0.0,0.0,0.0,0.0,0.0,0.0,0.0,0.0,0.0,0.0,0.0,0.0,0.0,0.0,0.0,0.0,0.0,0.0,0.0,0.0,0.0,0.0,0.0,0.0,0.0,0.0,0.0,0.0,0.0,0.0,0.0,0.0,0.0,0.0,0.0,0.0,-3.6354,-3.713,-3.6368,0.0,-3.3019,0.0,0.0,0.0,0.0,0.0,0.0,0.0,0.0,0.0,0.0,0.0,0.0,0.0,0.0,0.0,0.0,0.0,0.0,0.0,0.0,0.0,0.0,0.0,0.0,0.0,0.0,0.0,0.0,0.0,0.0,0.0,0.0,0.0,0.0,0.0,0.0,0.0,0.0,0.0,0.0,0.0,0.0,0.0,0.0,0.0,0.0,0.0,0.0,0.0,0.0,0.0,0.0,0.0,0.0,0.0,0.0,0.0,0.0,0.0,0.0,0.0,0.0,0.0,0.0,0.0,0.0,0.0,0.0,0.0,0.0,0.0,0.0,0.0,0.0,0.0,0.0,0.0,0.0,0.0,0.0,0.0,0.0,0.0,0.0,0.0,0.0,0.0,0.0,0.0,0.0,0.0,0.0,0.0,0.0,0.0,0.0,0.0,0.0,0.0,0.0,0.0,0.0,0.0,0.0,0.0,0.0,0.0,0.0,0.0,0.0,-3.7251,-3.8126,-3.7144,-3.5923,0.0,0.0,0.0,0.0,0.0,0.0,0.0,0.0,0.0,0.0,0.0,0.0,0.0,0.0,0.0,0.0,0.0,0.0,0.0,0.0,0.0,0.0,0.0,0.0,0.0,0.0,0.0,0.0,0.0,0.0,0.0,0.0,0.0,0.0,0.0,0.0,0.0,0.0,0.0,0.0,0.0,0.0,0.0,0.0,0.0,0.0,0.0,0.0,0.0,0.0,0.0,0.0,0.0,0.0,0.0,0.0,0.0,0.0,0.0,0.0,0.0,0.0,0.0,0.0,0.0,0.0,0.0,0.0,0.0,0.0,0.0,0.0,0.0,0.0,0.0,0.0,0.0,0.0,0.0,0.0,0.0,0.0,0.0,0.0,0.0,0.0,0.0,0.0,0.0,0.0,0.0,0.0,0.0,0.0,0.0,0.0,0.0,0.0,0.0,0.0,0.0,0.0,0.0,0.0,0.0,0.0,0.0,0.0,0.0,0.0,-3.6961,-3.7806,-3.8584,-3.7694,-3.6686,-3.5651,0.0,0.0,0.0,0.0,0.0,0.0,0.0,0.0,0.0,0.0,0.0,0.0,0.0,0.0,0.0,0.0,0.0,0.0,0.0,0.0,0.0,0.0,0.0,0.0,0.0,0.0,0.0,0.0,0.0,0.0,0.0,0.0,0.0,0.0,0.0,0.0,0.0,0.0,0.0,0.0,0.0,0.0,0.0,0.0,0.0,0.0,0.0,0.0,0.0,0.0,0.0,0.0,0.0,0.0,0.0,0.0,0.0,0.0,0.0,0.0,0.0,0.0,0.0,0.0,0.0,0.0,0.0,0.0,0.0,0.0,0.0,0.0,0.0,0.0,0.0,0.0,0.0,0.0,0.0,0.0,0.0,0.0,0.0,0.0,0.0,0.0,0.0,0.0,0.0,0.0,0.0,0.0,0.0,0.0,0.0,0.0,0.0,0.0,0.0,0.0,0.0,0.0,0.0,0.0,0.0,0.0,0.0,0.0,-3.6957,-3.7286,-3.7826,-3.866,-3.7797,-3.6795,0.0,0.0,0.0,0.0,0.0,0.0,0.0,0.0,0.0,0.0,0.0,0.0,0.0,0.0,0.0,0.0,0.0,0.0,0.0,0.0,0.0,0.0,0.0,0.0,0.0,0.0,0.0,0.0,0.0,0.0,0.0,0.0,0.0,0.0,0.0,0.0,0.0,0.0,0.0,0.0,0.0,0.0,0.0,0.0,0.0,0.0,0.0,0.0,0.0,0.0,0.0,0.0,0.0,0.0,0.0,0.0,0.0,0.0,0.0,0.0,0.0,0.0,0.0,0.0,0.0,0.0,0.0,0.0,0.0,0.0,0.0,0.0,0.0,0.0,0.0,0.0,0.0,0.0,0.0,0.0,0.0,0.0,0.0,0.0,0.0,0.0,0.0,0.0,0.0,0.0,0.0,0.0,0.0,0.0,0.0,0.0,0.0,0.0,0.0,0.0,0.0,0.0,0.0,0.0,0.0,0.0,0.0,0.0,0.0,-3.7197,-3.8471,-3.9276,-3.9542,-3.8126,-3.7062,0.0,0.0,0.0,0.0,0.0,0.0,0.0,0.0,0.0,0.0,0.0,0.0,0.0,0.0,0.0,0.0,0.0,0.0,0.0,0.0,0.0,0.0,0.0,0.0,0.0,0.0,0.0,0.0,0.0,0.0,0.0,0.0,0.0,0.0,0.0,0.0,0.0,0.0,0.0,0.0,0.0,0.0,0.0,0.0,0.0,0.0,0.0,0.0,0.0,0.0,0.0,0.0,0.0,0.0,0.0,0.0,0.0,0.0,0.0,0.0,0.0,0.0,0.0,0.0,0.0,0.0,0.0,0.0,0.0,0.0,0.0,0.0,0.0,0.0,0.0,0.0,0.0,0.0,0.0,0.0,0.0,0.0,0.0,0.0,0.0,0.0,0.0,0.0,0.0,0.0,0.0,0.0,0.0,0.0,0.0,0.0,0.0,0.0,0.0,0.0,0.0,0.0,0.0,0.0,0.0,0.0,0.0,0.0,0.0,-3.7806,0.0,-4.0138,-4.008,-3.8362,-3.7284,0.0,0.0,0.0,0.0,0.0,0.0,0.0,0.0,0.0,0.0,0.0,0.0,0.0,0.0,0.0,0.0,0.0,0.0,0.0,0.0,0.0,0.0,0.0,0.0,0.0,0.0,0.0,0.0,0.0,0.0,0.0,0.0,0.0,0.0,0.0,0.0,0.0,0.0,0.0,0.0,0.0,0.0,0.0,0.0,0.0,0.0,0.0,0.0,0.0,0.0,0.0,0.0,0.0,0.0,0.0,0.0,0.0,0.0,0.0,0.0,0.0,0.0,0.0,0.0,0.0,0.0,0.0,0.0,0.0,0.0,0.0,0.0,0.0,0.0,0.0,0.0,0.0,0.0,0.0,0.0,0.0,0.0,0.0,0.0,0.0,0.0,0.0,0.0,0.0,0.0,0.0,0.0,0.0,0.0,0.0,0.0,0.0,0.0,0.0,0.0,0.0,0.0,0.0,0.0,0.0,0.0,0.0,0.0,-3.6788,-3.8823,-3.9738,-4.0196,-4.0158,-3.8537,-3.7508,0.0,0.0,0.0,0.0,0.0,0.0,0.0,0.0,0.0,0.0,0.0,0.0,0.0,0.0,0.0,0.0,0.0,0.0,0.0,0.0,0.0,0.0,0.0,0.0,0.0,0.0,0.0,0.0,0.0,0.0,0.0,0.0,0.0,0.0,0.0,0.0,0.0,0.0,0.0,0.0,0.0,0.0,0.0,0.0,0.0,0.0,0.0,0.0,0.0,0.0,0.0,0.0,0.0,0.0,0.0,0.0,0.0,0.0,0.0,0.0,0.0,0.0,0.0,0.0,0.0,0.0,0.0,0.0,0.0,0.0,0.0,0.0,0.0,0.0,0.0,0.0,0.0,0.0,0.0,0.0,0.0,0.0,0.0,0.0,0.0,0.0,0.0,0.0,0.0,0.0,0.0,0.0,0.0,0.0,0.0,0.0,0.0,0.0,0.0,0.0,0.0,0.0,0.0,0.0,0.0,0.0,0.0,0.0,0.0,-3.9757,-4.0137,-4.0289,-4.0158,-3.9052,-3.8039,0.0,0.0,0.0,0.0,0.0,0.0,0.0,0.0,0.0,0.0,0.0,0.0,0.0,0.0,0.0,0.0,0.0,0.0,0.0,0.0,0.0,0.0,0.0,0.0,0.0,0.0,0.0,0.0,0.0,0.0,0.0,0.0,0.0,0.0,0.0,0.0,0.0,0.0,0.0,0.0,0.0,0.0,0.0,0.0,0.0,0.0,0.0,0.0,0.0,0.0,0.0,0.0,0.0,0.0,0.0,0.0,0.0,0.0,0.0,0.0,0.0,0.0,0.0,0.0,0.0,0.0,0.0,0.0,0.0,0.0,0.0,0.0,0.0,0.0,0.0,0.0,0.0,0.0,0.0,0.0,0.0,0.0,0.0,0.0,0.0,0.0,0.0,0.0,0.0,0.0,0.0,0.0,0.0,0.0,0.0,0.0,0.0,0.0,0.0,0.0,0.0,0.0,0.0,0.0,0.0,0.0,0.0,0.0,0.0,-4.0692,-4.0856,-4.0874,-4.0802,-3.987,-3.8689,-3.7284,0.0,0.0,0.0,0.0,0.0,0.0,0.0,0.0,0.0,0.0,0.0,0.0,0.0,0.0,0.0,0.0,0.0,0.0,0.0,0.0,0.0,0.0,0.0,0.0,0.0,0.0,0.0,0.0,0.0,0.0,0.0,0.0,0.0,0.0,0.0,0.0,0.0,0.0,0.0,0.0,0.0,0.0,0.0,0.0,0.0,0.0,0.0,0.0,0.0,0.0,0.0,0.0,0.0,0.0,0.0,0.0,0.0,0.0,0.0,0.0,0.0,0.0,0.0,0.0,0.0,0.0,0.0,0.0,0.0,0.0,0.0,0.0,0.0,0.0,0.0,0.0,0.0,0.0,0.0,0.0,0.0,0.0,0.0,0.0,0.0,0.0,0.0,0.0,0.0,0.0,0.0,0.0,0.0,0.0,0.0,0.0,0.0,0.0,0.0,0.0,0.0,0.0,0.0,0.0,0.0,0.0,0.0,0.0,-4.1677,-4.1876,-4.1928,-4.187,-4.0893,-3.947,0.0,0.0,0.0,0.0,0.0,0.0,0.0,0.0,0.0,0.0,0.0,0.0,0.0,0.0,0.0,0.0,0.0,0.0,0.0,0.0,0.0,0.0,0.0,0.0,0.0,0.0,0.0,0.0,0.0,0.0,0.0,0.0,0.0,0.0,0.0,0.0,0.0,0.0,0.0,0.0,0.0,0.0,0.0,0.0,0.0,0.0,0.0,0.0,0.0,0.0,0.0,0.0,0.0,0.0,0.0,0.0,0.0,0.0,0.0,0.0,0.0,0.0,0.0,0.0,0.0,0.0,0.0,0.0,0.0,0.0,0.0,0.0,0.0,0.0,0.0,0.0,0.0,0.0,0.0,0.0,0.0,0.0,0.0,0.0,0.0,0.0,0.0,0.0,0.0,0.0,0.0,0.0,0.0,0.0,0.0,0.0,0.0,0.0,0.0,0.0,0.0,0.0,0.0,0.0,0.0,0.0,0.0,0.0,0.0,-4.2694,-4.3428,-4.3466,-4.2775,-4.1794,-4.0635,0.0,0.0,0.0,0.0,0.0,0.0,0.0,0.0,0.0,0.0,0.0,0.0,0.0,0.0,0.0,0.0,0.0,0.0,0.0,0.0,0.0,0.0,0.0,0.0,0.0,0.0,0.0,0.0,0.0,0.0,0.0,0.0,0.0,0.0,0.0,0.0,0.0,0.0,0.0,0.0,0.0,0.0,0.0,0.0,0.0,0.0,0.0,0.0,0.0,0.0,0.0,0.0,0.0,0.0,0.0,0.0,0.0,0.0,0.0,0.0,0.0,0.0,0.0,0.0,0.0,0.0,0.0,0.0,0.0,0.0,0.0,0.0,0.0,0.0,0.0,0.0,0.0,0.0,0.0,0.0,0.0,0.0,0.0,0.0,0.0,0.0,0.0,0.0,0.0,0.0,0.0,0.0,0.0,0.0,0.0,0.0,0.0,0.0,0.0,0.0,0.0,0.0,0.0,0.0,0.0,0.0,0.0,0.0,-4.2426,-4.3088,-4.4349,-4.4739,-4.4155,-4.2846,-4.1476,0.0,0.0,0.0,0.0,0.0,0.0,0.0,0.0,0.0,0.0,0.0,0.0,0.0,0.0,0.0,0.0,0.0,0.0,0.0,0.0,0.0,0.0,0.0,0.0,0.0,0.0,0.0,0.0,0.0,0.0,0.0,0.0,0.0,0.0,0.0,0.0,0.0,0.0,0.0,0.0,0.0,0.0,0.0,0.0,0.0,0.0,0.0,0.0,0.0,0.0,0.0,0.0,0.0,0.0,0.0,0.0,0.0,0.0,0.0,0.0,0.0,0.0,0.0,0.0,0.0,0.0,0.0,0.0,0.0,0.0,0.0,0.0,0.0,0.0,0.0,0.0,0.0,0.0,0.0,0.0,0.0,0.0,0.0,0.0,0.0,0.0,0.0,0.0,0.0,0.0,0.0,0.0,0.0,0.0,0.0,0.0,0.0,0.0,0.0,0.0,0.0,0.0,0.0,0.0,0.0,0.0,0.0,0.0,-4.2961,-4.3262,-4.4842,-4.5654,-4.5558,-4.3841,-4.2087,0.0,0.0,0.0,0.0,0.0,0.0,0.0,0.0,0.0,0.0,0.0,0.0,0.0,0.0,0.0,0.0,0.0,0.0,0.0,0.0,0.0,0.0,0.0,0.0,0.0,0.0,0.0,0.0,0.0,0.0,0.0,0.0,0.0,0.0,0.0,0.0,0.0,0.0,0.0,0.0,0.0,0.0,0.0,0.0,0.0,0.0,0.0,0.0,0.0,0.0,0.0,0.0,0.0,0.0,0.0,0.0,0.0,0.0,0.0,0.0,0.0,0.0,0.0,0.0,0.0,0.0,0.0,0.0,0.0,0.0,0.0,0.0,0.0,0.0,0.0,0.0,0.0,0.0,0.0,0.0,0.0,0.0,0.0,0.0,0.0,0.0,0.0,0.0,0.0,0.0,0.0,0.0,0.0,0.0,0.0,0.0,0.0,0.0,0.0,0.0,0.0,0.0,0.0,0.0,0.0,0.0,0.0,0.0,-4.3304,-4.4113,-4.5163,-4.5651,-4.5603,-4.3788,-4.2545,0.0,0.0,0.0,0.0,0.0,0.0,0.0,0.0,0.0,0.0,0.0,0.0,0.0,0.0,0.0,0.0,0.0,0.0,0.0,0.0,0.0,0.0,0.0,0.0,0.0,0.0,0.0,0.0,0.0,0.0,0.0,0.0,0.0,0.0,0.0,0.0,0.0,0.0,0.0,0.0,0.0,0.0,0.0,0.0,0.0,0.0,0.0,0.0,-3.9399,0.0,0.0,0.0,0.0,0.0,0.0,0.0,0.0,0.0,0.0,0.0,0.0,0.0,0.0,0.0,0.0,0.0,0.0,0.0,0.0,0.0,0.0,0.0,0.0,0.0,0.0,0.0,0.0,0.0,0.0,0.0,0.0,0.0,0.0,0.0,0.0,0.0,0.0,0.0,0.0,0.0,0.0,0.0,0.0,0.0,0.0,0.0,0.0,0.0,0.0,0.0,0.0,0.0,0.0,0.0,0.0,0.0,0.0,0.0,-4.3363,-4.4331,-4.5175,-4.5584,-4.5455,-4.3675,-4.2616,0.0,0.0,0.0,0.0,0.0,0.0,0.0,0.0,0.0,0.0,0.0,0.0,0.0,0.0,0.0,0.0,0.0,0.0,0.0,0.0,0.0,0.0,0.0,0.0,0.0,0.0,0.0,0.0,0.0,0.0,0.0,0.0,0.0,0.0,0.0,0.0,0.0,0.0,0.0,0.0,0.0,0.0,0.0,0.0,0.0,0.0,0.0,0.0,0.0,0.0,0.0,0.0,0.0,0.0,0.0,0.0,0.0,0.0,0.0,0.0,0.0,0.0,0.0,0.0,0.0,0.0,0.0,0.0,0.0,0.0,0.0,0.0,0.0,0.0,0.0,0.0,0.0,0.0,0.0,0.0,0.0,0.0,0.0,0.0,0.0,0.0,0.0,0.0,0.0,0.0,0.0,0.0,0.0,0.0,0.0,0.0,0.0,0.0,0.0,0.0,0.0,0.0,0.0,0.0,0.0,0.0,0.0,-4.1589,-4.3404,-4.4453,-4.513,-4.5438,-4.5342,-4.3535,-4.2468,-4.2276,0.0,0.0,0.0,0.0,0.0,0.0,0.0,0.0,0.0,0.0,0.0,0.0,0.0,0.0,0.0,0.0,0.0,0.0,0.0,0.0,0.0,0.0,0.0,0.0,0.0,0.0,0.0,0.0,0.0,0.0,0.0,0.0,0.0,0.0,0.0,0.0,0.0,0.0,-3.8278,-3.9946,0.0,0.0,0.0,0.0,0.0,0.0,0.0,0.0,-3.9818,0.0,0.0,0.0,0.0,0.0,0.0,0.0,0.0,0.0,0.0,0.0,0.0,0.0,0.0,0.0,0.0,0.0,0.0,0.0,0.0,0.0,0.0,0.0,0.0,0.0,0.0,0.0,0.0,0.0,0.0,0.0,0.0,0.0,0.0,0.0,0.0,0.0,0.0,0.0,0.0,0.0,0.0,0.0,0.0,0.0,0.0,0.0,0.0,0.0,0.0,0.0,0.0,0.0,0.0,0.0,0.0,-3.9986,-4.1858,-4.3599,-4.517,-4.5342,-4.5339,-4.5178,-4.3361,-4.2238,-4.1856,0.0,0.0,0.0,0.0,0.0,0.0,0.0,0.0,0.0,0.0,0.0,0.0,0.0,0.0,0.0,0.0,0.0,0.0,0.0,0.0,0.0,0.0,0.0,0.0,0.0,0.0,0.0,0.0,0.0,0.0,0.0,0.0,0.0,0.0,0.0,0.0,0.0,0.0,0.0,-4.0777,-4.1307,0.0,0.0,0.0,0.0,0.0,0.0,0.0,0.0,-4.1111,0.0,0.0,0.0,0.0,0.0,0.0,0.0,0.0,0.0,0.0,0.0,0.0,0.0,0.0,0.0,0.0,0.0,0.0,0.0,0.0,0.0,0.0,0.0,0.0,0.0,0.0,0.0,0.0,0.0,0.0,0.0,0.0,0.0,0.0,0.0,0.0,0.0,0.0,0.0,0.0,0.0,0.0,0.0,0.0,0.0,0.0,0.0,0.0,0.0,0.0,0.0,0.0,0.0,0.0,0.0,-4.0019,-4.1836,-4.3787,-4.5816,-4.5466,-4.5382,-4.5654,-4.3426,-4.2065,0.0,0.0,0.0,0.0,0.0,0.0,0.0,0.0,0.0,0.0,0.0,0.0,0.0,0.0,0.0,0.0,0.0,0.0,0.0,0.0,0.0,0.0,0.0,0.0,0.0,0.0,0.0,0.0,0.0,0.0,0.0,0.0,0.0,0.0,0.0,0.0,0.0,0.0,0.0,0.0,-4.1329,-4.1987,-4.292,0.0,0.0,0.0,0.0,0.0,0.0,-4.1856,-4.1633,0.0,0.0,0.0,0.0,0.0,0.0,0.0,0.0,0.0,0.0,0.0,0.0,0.0,0.0,0.0,0.0,0.0,0.0,0.0,0.0,0.0,0.0,0.0,0.0,0.0,0.0,0.0,0.0,0.0,0.0,0.0,0.0,0.0,0.0,0.0,0.0,0.0,0.0,0.0,0.0,0.0,0.0,0.0,0.0,0.0,0.0,0.0,0.0,0.0,0.0,0.0,0.0,0.0,0.0,0.0,-3.9851,-4.1673,-4.3811,-4.6153,-4.5456,-4.5366,-4.6038,-4.346,-4.1927,0.0,0.0,0.0,0.0,0.0,0.0,0.0,0.0,0.0,0.0,0.0,0.0,0.0,0.0,0.0,0.0,0.0,0.0,0.0,0.0,0.0,0.0,0.0,0.0,0.0,0.0,0.0,0.0,0.0,0.0,0.0,0.0,0.0,0.0,0.0,0.0,0.0,0.0,0.0,0.0,0.0,-4.2605,-4.3748,-4.4448,0.0,0.0,0.0,0.0,-4.2537,-4.2333,0.0,0.0,0.0,0.0,0.0,0.0,0.0,0.0,0.0,0.0,0.0,0.0,0.0,0.0,0.0,0.0,0.0,0.0,0.0,0.0,0.0,0.0,0.0,0.0,0.0,0.0,0.0,0.0,0.0,0.0,0.0,0.0,0.0,0.0,0.0,0.0,0.0,0.0,0.0,0.0,0.0,0.0,0.0,0.0,0.0,0.0,0.0,0.0,0.0,0.0,0.0,0.0,0.0,0.0,0.0,0.0,-3.9698,-4.1472,-4.3564,-4.5943,-4.5212,-4.5089,-4.579,-4.3184,-4.1688,0.0,0.0,0.0,0.0,0.0,0.0,0.0,0.0,0.0,0.0,0.0,0.0,0.0,0.0,0.0,0.0,0.0,0.0,0.0,0.0,0.0,0.0,0.0,0.0,0.0,0.0,0.0,0.0,0.0,0.0,0.0,0.0,0.0,0.0,0.0,0.0,0.0,0.0,0.0,0.0,0.0,-4.2711,-4.4334,-4.4681,-4.4648,0.0,0.0,-4.4299,-4.4063,-4.3975,0.0,0.0,0.0,0.0,0.0,0.0,0.0,0.0,0.0,0.0,0.0,0.0,0.0,0.0,0.0,0.0,0.0,0.0,0.0,0.0,0.0,0.0,0.0,0.0,0.0,0.0,0.0,0.0,0.0,0.0,0.0,0.0,0.0,0.0,0.0,0.0,0.0,0.0,0.0,0.0,0.0,0.0,0.0,0.0,0.0,0.0,0.0,0.0,0.0,0.0,0.0,0.0,0.0,0.0,0.0,-3.7766,-3.9521,-4.1255,-4.3585,-4.643,-4.5651,-4.5527,-4.6266,-4.3595,-4.1674,0.0,0.0,0.0,0.0,0.0,0.0,0.0,0.0,0.0,0.0,0.0,0.0,0.0,0.0,0.0,0.0,0.0,0.0,0.0,0.0,0.0,0.0,0.0,0.0,0.0,0.0,0.0,0.0,0.0,0.0,0.0,0.0,0.0,0.0,0.0,0.0,0.0,0.0,0.0,0.0,0.0,0.0,-4.4973,-4.5302,0.0,0.0,0.0,-4.5076,-4.4946,0.0,0.0,0.0,0.0,0.0,0.0,0.0,0.0,0.0,0.0,0.0,0.0,0.0,0.0,0.0,0.0,0.0,0.0,0.0,0.0,0.0,0.0,0.0,0.0,0.0,0.0,0.0,0.0,0.0,0.0,0.0,0.0,0.0,0.0,0.0,0.0,0.0,0.0,0.0,0.0,0.0,0.0,0.0,0.0,0.0,0.0,0.0,0.0,0.0,0.0,0.0,0.0,0.0,0.0,0.0,0.0,0.0,-3.9237,-4.0969,-4.3456,-4.6675,-4.5836,-4.5717,-4.6424,-4.4068,0.0,0.0,0.0,0.0,0.0,0.0,0.0,0.0,0.0,0.0,0.0,0.0,0.0,0.0,0.0,0.0,0.0,0.0,0.0,0.0,0.0,0.0,0.0,0.0,0.0,0.0,0.0,-2.7674,0.0,0.0,0.0,0.0,0.0,0.0,0.0,0.0,0.0,0.0,0.0,0.0,0.0,0.0,-4.3388,-4.5377,-4.5875,-4.6213,0.0,0.0,-4.5761,-4.5506,-4.4898,-4.4426,0.0,0.0,0.0,0.0,0.0,0.0,0.0,0.0,0.0,0.0,0.0,0.0,0.0,0.0,0.0,0.0,0.0,0.0,0.0,0.0,0.0,0.0,0.0,0.0,0.0,0.0,0.0,0.0,0.0,0.0,0.0,0.0,0.0,0.0,0.0,0.0,0.0,0.0,0.0,0.0,0.0,0.0,0.0,0.0,0.0,0.0,0.0,0.0,0.0,0.0,0.0,0.0,0.0,0.0,-3.7127,-3.8913,-4.0522,-4.2958,-4.6172,-4.5374,-4.5234,-4.5971,-4.425,-4.2461,0.0,0.0,0.0,0.0,0.0,0.0,0.0,0.0,0.0,0.0,0.0,0.0,0.0,0.0,0.0,0.0,0.0,0.0,0.0,0.0,0.0,0.0,0.0,0.0,0.0,0.0,0.0,0.0,0.0,0.0,0.0,0.0,0.0,0.0,0.0,0.0,0.0,0.0,0.0,0.0,0.0,-4.4472,-4.5398,-4.6165,-4.6657,0.0,-4.6549,-4.6345,-4.5778,-4.543,-4.4984,-4.4314,0.0,0.0,0.0,0.0,0.0,0.0,0.0,0.0,0.0,0.0,0.0,0.0,0.0,0.0,0.0,0.0,0.0,0.0,0.0,0.0,0.0,0.0,0.0,0.0,0.0,0.0,0.0,0.0,0.0,0.0,0.0,0.0,0.0,0.0,0.0,0.0,0.0,0.0,0.0,0.0,0.0,0.0,0.0,0.0,0.0,0.0,0.0,0.0,0.0,0.0,0.0,0.0,0.0,-3.6821,-3.8491,-4.0148,-4.2564,-4.5682,-4.5407,-4.5332,-4.5624,-4.436,-4.2468,0.0,0.0,0.0,0.0,0.0,0.0,0.0,0.0,0.0,0.0,0.0,0.0,0.0,0.0,0.0,0.0,0.0,0.0,0.0,0.0,0.0,0.0,0.0,0.0,0.0,0.0,0.0,0.0,-3.0295,-3.1655,-3.2803,0.0,0.0,0.0,0.0,0.0,0.0,0.0,0.0,0.0,0.0,-4.4729,-4.5953,-4.6829,0.0,0.0,-4.7586,-4.701,-4.6304,-4.5741,-4.5115,-4.4356,-4.3642,0.0,0.0,0.0,0.0,0.0,0.0,0.0,0.0,0.0,0.0,0.0,0.0,0.0,0.0,0.0,0.0,0.0,0.0,0.0,0.0,0.0,0.0,0.0,0.0,0.0,0.0,0.0,0.0,0.0,0.0,0.0,0.0,0.0,0.0,0.0,0.0,0.0,0.0,0.0,0.0,0.0,0.0,0.0,0.0,0.0,0.0,0.0,0.0,0.0,0.0,0.0,0.0,-3.6576,-3.8171,-4.0,-4.2359,-4.5298,-4.5468,-4.5518,-4.5518,-4.4597,-4.2735,0.0,0.0,0.0,0.0,0.0,0.0,0.0,0.0,0.0,0.0,0.0,0.0,0.0,0.0,0.0,0.0,0.0,0.0,0.0,0.0,0.0,0.0,0.0,0.0,0.0,0.0,0.0,0.0,-3.1199,-3.2553,-3.3504,0.0,0.0,0.0,0.0,0.0,0.0,0.0,0.0,0.0,0.0,-4.5289,-4.6345,-4.7419,-4.8327,-4.8869,-4.8479,-4.7791,-4.6894,-4.6182,-4.5426,-4.4442,0.0,0.0,0.0,0.0,0.0,0.0,0.0,0.0,0.0,0.0,0.0,0.0,0.0,0.0,0.0,0.0,0.0,0.0,0.0,0.0,0.0,0.0,0.0,0.0,0.0,0.0,0.0,-3.0669,0.0,0.0,-2.9663,0.0,0.0,0.0,0.0,0.0,0.0,0.0,0.0,0.0,0.0,0.0,0.0,0.0,0.0,0.0,0.0,0.0,0.0,0.0,0.0,0.0,0.0,-3.6317,-3.7899,-4.0052,-4.236,-4.4742,-4.5462,-4.5749,-4.5731,-4.4999,-4.338,-4.0772,0.0,0.0,0.0,0.0,0.0,0.0,0.0,0.0,0.0,0.0,0.0,0.0,0.0,0.0,0.0,0.0,0.0,0.0,0.0,0.0,0.0,0.0,0.0,0.0,0.0,0.0,-3.1367,-3.2527,-3.3345,0.0,0.0,0.0,0.0,0.0,0.0,0.0,0.0,0.0,-4.1715,-4.4326,-4.6283,-4.6494,-4.7868,-4.8869,-4.9068,-4.9083,-4.8636,-4.7457,-4.688,-4.6028,0.0,0.0,0.0,0.0,0.0,0.0,0.0,0.0,0.0,0.0,0.0,0.0,0.0,0.0,0.0,0.0,0.0,0.0,0.0,0.0,0.0,0.0,0.0,0.0,0.0,0.0,0.0,-3.2288,-3.1539,0.0,0.0,0.0,0.0,0.0,0.0,0.0,0.0,0.0,0.0,0.0,-3.5096,-3.495,0.0,0.0,0.0,0.0,0.0,0.0,0.0,0.0,0.0,0.0,0.0,0.0,-3.6132,-3.8117,-3.9886,-4.1899,-4.4137,-4.4922,-4.5247,-4.5247,-4.4523,-4.2529,-3.9112,0.0,0.0,0.0,0.0,0.0,0.0,0.0,0.0,0.0,0.0,0.0,0.0,0.0,0.0,0.0,0.0,0.0,0.0,0.0,0.0,0.0,0.0,0.0,0.0,0.0,-3.1497,0.0,0.0,0.0,0.0,0.0,0.0,0.0,0.0,0.0,0.0,-4.0372,-4.1753,-4.2363,-4.4202,-4.5745,-4.642,-4.7423,-4.8296,0.0,0.0,0.0,0.0,0.0,0.0,0.0,0.0,0.0,0.0,0.0,0.0,0.0,-4.3076,-4.2631,-4.1425,-4.1231,-4.0942,-4.0151,0.0,0.0,0.0,0.0,0.0,0.0,0.0,0.0,0.0,0.0,0.0,0.0,0.0,0.0,-3.299,-3.2201,-3.2136,0.0,0.0,0.0,0.0,0.0,0.0,0.0,0.0,-3.4856,-3.5271,-3.5504,-3.5357,-3.5083,-3.4689,-3.4689,-3.3916,0.0,0.0,0.0,0.0,0.0,0.0,0.0,0.0,-3.6207,-3.807,-4.0139,-4.2006,-4.358,-4.4597,-4.512,-4.512,-4.3816,-4.1679,-3.8625,-3.6191,-3.4268,0.0,0.0,0.0,0.0,0.0,0.0,0.0,0.0,0.0,0.0,0.0,0.0,0.0,0.0,0.0,0.0,0.0,0.0,0.0,0.0,0.0,0.0,0.0,-3.2349,0.0,0.0,0.0,0.0,0.0,0.0,0.0,0.0,0.0,-3.9406,-4.0818,-4.2007,-4.2631,-4.4017,-4.5297,-4.6264,0.0,0.0,0.0,0.0,0.0,0.0,0.0,-4.6178,-4.5347,-4.4493,-4.3905,-4.3841,-4.3744,-4.3682,-4.3615,0.0,0.0,-4.1989,-4.1724,-4.1416,-4.0688,-4.0104,-3.966,-3.9394,-3.9098,-3.8942,0.0,0.0,0.0,0.0,-3.4498,0.0,0.0,0.0,-3.4161,-3.3617,0.0,-3.2728,0.0,0.0,0.0,0.0,-3.2877,-3.3405,0.0,0.0,-3.5408,-3.5495,-3.5277,-3.5084,-3.4777,-3.4384,-3.438,-3.4268,-3.395,-3.2891,0.0,0.0,0.0,0.0,0.0,0.0,-3.6444,-3.7783,-4.07,-4.2531,-4.3113,-4.4578,-4.5337,-4.5216,-4.2911,-4.0912,-3.931,-3.7081,-3.5266,-3.3905,-3.2555,0.0,0.0,0.0,0.0,0.0,0.0,0.0,0.0,0.0,0.0,0.0,0.0,0.0,0.0,0.0,0.0,0.0,0.0,0.0,0.0,-3.2328,0.0,0.0,0.0,0.0,0.0,0.0,0.0,0.0,0.0,-3.9093,-4.005,-4.1448,-4.239,-4.2558,0.0,0.0,0.0,0.0,-4.7735,-4.8688,-4.8785,-4.8544,-4.7797,-4.6876,-4.5978,-4.4996,0.0,0.0,-4.3303,-4.3267,-4.3196,-4.3032,-4.2976,-4.285,-4.2466,-4.2194,-4.1831,-4.1152,-3.9969,-3.915,-3.9575,-3.9171,-3.8707,-3.6712,0.0,0.0,0.0,0.0,-3.5858,-3.5428,-3.4832,-3.4706,-3.4202,-3.3405,-3.3369,0.0,0.0,0.0,0.0,0.0,0.0,-3.4975,-3.6089,-3.6107,-3.6221,-3.6421,-3.6208,-3.5891,-3.5538,-3.5496,-3.5137,-3.4516,-3.4155,-3.3835,-3.3452,0.0,0.0,0.0,0.0,-3.6943,-3.838,-4.0573,-4.2038,-4.2654,-4.4014,-4.4252,-4.3231,-4.2303,-4.0897,-3.8923,-3.7172,-3.5778,-3.4952,-3.2747,0.0,0.0,0.0,0.0,0.0,0.0,0.0,0.0,0.0,0.0,0.0,0.0,0.0,0.0,0.0,0.0,0.0,0.0,0.0,-3.2877,-3.3913,-3.4528,0.0,0.0,0.0,0.0,0.0,0.0,0.0,0.0,0.0,-4.1212,-4.2282,-4.33,0.0,0.0,-4.5773,-4.6691,-4.704,-4.7298,-4.7592,-4.8089,0.0,-4.7389,-4.6561,-4.5882,-4.5517,-4.4181,-4.3087,-4.2884,-4.2844,-4.2729,-4.2577,-4.2534,-4.248,-4.2382,-4.2574,-4.2432,-4.1705,-4.1577,-4.1139,-3.9795,-3.9234,-3.8958,-3.7732,-3.7311,-3.674,-3.6463,-3.6473,-3.6325,-3.5964,-3.5514,-3.5371,-3.502,-3.4506,-3.4429,-3.4164,-3.3756,-3.42,0.0,0.0,0.0,-3.5657,-3.6416,-3.6504,-3.665,-3.6719,-3.6574,-3.6259,-3.5827,-3.5844,-3.5535,-3.4952,-3.4996,-3.4976,-3.4782,0.0,-3.454,-3.5466,-3.6069,-3.706,-3.8431,-4.0161,-4.1461,-4.2303,-4.336,-4.3339,-4.2085,-4.1657,-4.0612,-3.9058,-3.7601,-3.6463,-3.5849,-3.3575,-3.1756,0.0,0.0,0.0,0.0,0.0,0.0,0.0,0.0,0.0,0.0,0.0,-2.777,-2.8054,0.0,0.0,0.0,-3.1601,-3.2932,-3.4005,-3.4606,0.0,0.0,0.0,0.0,0.0,0.0,0.0,-3.9013,-4.0628,-4.1866,-4.2264,-4.3412,-4.4279,-4.4436,-4.5055,-4.5799,-4.6736,0.0,-4.6501,-4.685,-4.7015,-4.6978,-4.6541,-4.5697,-4.4945,-4.4447,-4.3496,-4.2709,-4.2476,-4.2432,-4.2351,-4.2269,-4.2205,-4.2181,-4.2181,-4.2463,-4.2577,-4.2057,-4.2045,-4.1523,-3.995,-3.9427,-3.9046,-3.851,-3.8382,-3.7048,-3.6452,-3.6452,-3.6344,-3.6236,-3.6163,-3.6091,-3.5914,-3.5716,-3.5698,-3.5652,-3.557,-3.5508,0.0,-3.5549,-3.599,-3.6165,-3.6215,-3.6732,-3.6788,-3.6444,-3.6343,-3.6045,-3.5594,-3.5577,-3.5458,-3.5274,-3.54,-3.552,-3.5571,-3.455,-3.4496,-3.5371,-3.6049,-3.6981,-3.8196,-3.9572,-4.0866,-4.2072,-4.2613,-4.2501,-4.1655,-4.0921,-4.0188,-3.9454,-3.8154,-3.7164,-3.6471,-3.472,-3.2826,-3.09,0.0,0.0,0.0,0.0,0.0,0.0,0.0,0.0,0.0,0.0,0.0,0.0,0.0,0.0,-3.2056,-3.3696,0.0,-3.4793,-3.4898,0.0,0.0,0.0,-3.7284,-3.7323,-3.8629,-3.9735,-4.0369,0.0,0.0,-4.319,-4.4573,-4.5161,-4.4255,-4.48,-4.5557,-4.6403,-4.5902,-4.5617,-4.6295,-4.5784,-4.5273,-4.5279,-4.4527,-4.3624,-4.2763,-4.2292,-4.2246,-4.2103,-4.2079,-4.2037,-4.1987,-4.1962,-4.1962,-4.1945,-4.2037,-4.2127,-4.2208,-4.1536,-4.0771,-4.0217,-3.9552,-3.8888,-3.8609,-3.8455,-3.8076,-3.7911,-3.7893,-3.7804,-3.7444,-3.6867,-3.6671,-3.623,-3.5602,-3.5555,-3.549,-3.5372,-3.5239,-3.5509,-3.6043,-3.604,-3.6297,-3.6784,-3.6759,-3.6602,-3.6268,-3.6122,-3.5861,-3.5383,-3.5383,-3.5291,-3.5135,-3.5182,-3.5321,-3.556,-3.5338,-3.5445,-3.5993,-3.6585,-3.7336,-3.8196,-3.9376,-4.0608,-4.1892,-4.1977,-4.1727,-4.1191,-4.033,-3.9525,-3.8874,-3.7498,-3.6642,-3.6454,-3.472,-3.3231,-3.2231,-3.0681,0.0,0.0,0.0,0.0,0.0,0.0,0.0,0.0,0.0,-2.9004,-3.0161,0.0,-3.1582,0.0,-3.4525,-3.5725,-3.5766,-3.6784,0.0,0.0,-3.794,-3.8174,-3.8277,-3.9041,-3.9891,-4.0665,-4.1447,-4.2276,-4.3249,-4.4126,-4.4645,-4.4518,-4.5666,-4.6632,-4.6856,-4.6193,-4.5495,-4.5179,-4.4928,-4.4641,-4.4068,-4.3716,-4.3144,-4.2294,-4.2121,-4.2012,-4.1909,-4.1884,-4.1823,-4.171,-4.1692,-4.171,-4.1692,-4.1884,-4.1782,-4.1316,-4.0958,-4.0574,-4.006,-3.9383,-3.8687,-3.8559,-3.8446,-3.8368,-3.8354,-3.8303,-3.8274,-3.8005,-3.757,-3.7419,-3.7066,-3.6618,-3.6482,-3.6379,-3.6238,-3.6114,-3.6235,-3.6549,-3.6432,-3.6505,-3.6771,-3.6667,-3.6419,-3.6122,-3.6019,-3.5773,-3.5308,-3.5308,-3.5198,-3.5041,-3.5088,-3.5182,-3.5367,-3.5532,-3.5711,-3.5905,-3.6403,-3.6939,-3.7609,-3.9075,-4.0316,-4.1276,-4.1288,-4.1088,-4.0816,-3.9796,-3.9076,-3.8772,-3.7422,-3.6738,-3.6734,-3.4849,-3.3499,-3.2784,-3.1183,-2.9809,0.0,0.0,0.0,0.0,0.0,0.0,0.0,0.0,0.0,0.0,0.0,-3.2485,-3.3735,-3.5559,-3.6695,-3.6678,-3.7441,-3.7916,-3.801,-3.8571,-3.8962,-3.901,-3.9931,-4.0764,-4.1223,-4.1972,-4.2689,-4.3254,-4.4096,-4.4699,-4.4854,-4.5708,-4.6429,-4.6436,-4.5634,-4.4822,-4.4432,-4.3819,-4.3269,-4.2789,-4.2693,-4.2448,-4.2015,-4.1823,-4.1797,-4.1736,-4.1692,-4.171,-4.1604,-4.1604,-4.1481,-4.1183,-4.1286,-4.1209,-4.0506,-4.0042,-3.975,-3.9468,-3.9093,-3.8595,-3.8478,-3.8415,-3.8354,-3.8274,-3.8225,-3.8225,-3.8192,-3.8192,-3.807,-3.7967,-3.7864,-3.7667,-3.7503,-3.7392,-3.7279,-3.7164,-3.6987,-3.6811,-3.6667,-3.6502,-3.6461,-3.6276,-3.6019,-3.5975,-3.5728,-3.5291,-3.5308,-3.5152,-3.4899,-3.5058,-3.5105,-3.5088,-3.5412,-3.5532,-3.5577,-3.58,-3.6253,-3.7029,-3.8673,-3.9876,-4.0488,-4.0467,-4.0471,-4.0338,-3.9244,-3.8653,-3.8647,-3.75,-3.6877,-3.6898,-3.5025,-3.3648,-3.3055,-3.165,-3.0543,0.0,-2.9726,0.0,0.0,0.0,0.0,0.0,0.0,0.0,0.0,-3.2201,-3.3316,-3.5171,-3.6587,-3.7336,-3.7336,-3.7419,-3.7486,-3.7569,-3.8652,-3.9451,-3.9584,-4.0733,-4.1599,-4.1766,-4.2557,-4.311,-4.3394,-4.4279,-4.4944,-4.4864,-4.5147,-4.5337,-4.5418,-4.4585,-4.3904,-4.3909,-4.2687,-4.1938,-4.1868,-4.1833,-4.1771,-4.1666,-4.1604,-4.1604,-4.1604,-4.1604,-4.1604,-4.1587,-4.1481,-4.1218,-4.0629,-4.0623,-4.0359,-3.9615,-3.9153,-3.8915,-3.8861,-3.8701,-3.8489,-3.8652,-3.8478,-3.8433,-3.8354,-3.8274,-3.8207,-3.8192,-3.8192,-3.807,-3.788,-3.7703,-3.754,-3.7392,-3.7334,-3.7185,-3.7031,-3.6829,-3.6766,-3.6643,-3.6502,-3.6335,-3.6165,-3.5975,-3.5888,-3.5639,-3.5308,-3.5308,-3.5135,-3.4899,-3.4963,-3.4994,-3.5088,-3.5182,-3.5274,-3.5492,0.0,0.0,0.0,-3.8388,-3.9158,-3.9878,-3.9878,-3.9662,-3.9328,-3.8563,0.0,-3.7603,-3.6791,-3.6345,-3.6337,-3.4891,0.0,0.0,0.0,0.0,0.0,0.0,0.0,0.0,0.0,0.0,0.0,-3.2187,-3.3013,-3.3271,-3.4242,-3.5218,-3.5999,-3.6829,-3.721,-3.7118,-3.7526,-3.7866,-3.8105,-3.8293,-3.8707,-3.9478,-3.9895,-4.0541,-4.1805,-4.2361,-4.2907,-4.3547,-4.4152,-4.4209,-4.3741,-4.3966,-4.3922,-4.3426,-4.3484,-4.3393,-4.2905,-4.2166,-4.1648,-4.1648,-4.1648,-4.1648,-4.1604,-4.1604,-4.1604,-4.1604,-4.1604,-4.1604,-4.1587,-4.1113,-4.0717,-4.0574,-4.0206,-3.9598,-3.8937,-3.8765,-3.8808,-3.879,-3.8346,-3.79,-3.8732,-3.8609,-3.8446,-3.8368,0.0,-3.8207,-3.8192,-3.8174,-3.807,-3.7862,-3.7703,-3.7595,-3.7466,-3.7297,-3.7241,-3.7066,-3.6766,-3.6725,-3.6602,-3.6402,-3.6251,-3.6122,-3.5975,-3.58,-3.5549,-3.5291,-3.5228,-3.5058,-3.4804,-3.4787,-3.4804,-3.4804,-3.4899,-3.493,-3.5088,-3.5105,-3.5733,-3.7028,-3.7636,-3.8304,-3.8989,-3.9039,-3.8974,-3.879,-3.7872,0.0,0.0,0.0,0.0,0.0,0.0,0.0,0.0,-3.2706,0.0,-3.1641,-3.1029,-3.0692,-3.0625,-3.0693,-3.1035,-3.172,-3.3033,-3.392,-3.4314,-3.5225,-3.587,-3.6071,-3.674,-3.717,-3.7128,-3.743,-3.7711,-3.7828,-3.819,-3.86,-3.9087,-3.965,-4.027,-4.0989,-4.1524,-4.1981,-4.2352,-4.2822,-4.2987,-4.2651,-4.2986,-4.3031,-4.2347,-4.2511,-4.2545,-4.1986,-4.1796,-4.1604,-4.1604,-4.1604,-4.1604,-4.1604,-4.1604,-4.1604,-4.1604,-4.1604,-4.1604,-4.1552,-4.099,-4.0436,-4.007,-3.9499,-3.8784,-3.8209,-3.8109,-3.8201,-3.8201,-3.7917,-3.7739,-3.8762,-3.8689,-3.8478,-3.8368,-3.8307,-3.8241,-3.8207,-3.8174,-3.8054,0.0,0.0,-3.7703,-3.754,-3.7297,-3.7297,-3.7083,-3.6742,-3.6702,-3.6544,-3.636,-3.6191,-3.6105,-3.5975,-3.5711,-3.5503,-3.5291,-3.5135,-3.4947,-3.4691,-3.4691,-3.4643,-3.4497,-3.4594,-3.4594,-3.4594,-3.4739,-3.5181,-3.5971,-3.6804,-3.7552,-3.8249,-3.8334,-3.8319,-3.8321,-3.7211,-3.6608,-3.6564,-3.6123,-3.5844,-3.5766,-3.4972,-3.4479,-3.4418,-3.351,-3.2829,-3.2574,-3.2285,-3.1947,-3.163,-3.1302,-3.1592,-3.2638,-3.3569,-3.4361,-3.4976,-3.558,-3.591,-3.5916,-3.6609,-3.6997,-3.7058,-3.7118,-3.7238,-3.7314,-3.7938,-3.8423,-3.8658,-3.947,-4.0051,-4.0257,-4.0739,-4.0983,-4.1091,-4.1637,-4.1837,-4.1791,-4.217,-4.2262,-4.1663,-4.1705,-4.1739,-4.14,-4.1443,-4.156,-4.1604,-4.1604,-4.1604,-4.1604,-4.1604,-4.1604,-4.1604,-4.1604,-4.1552,-4.1341,-4.0822,-4.0092,-3.9417,-3.8744,-3.8079,-3.7554,-3.7503,-3.7577,-3.7613,-3.7703,-3.7775,-3.8851,-3.8762,-3.8572,-3.8446,-3.8401,-3.8322,-3.8241,-3.8192,-3.8003,-3.7899,-3.7864,-3.7685,-3.7466,-3.7297,-3.7297,-3.7105,-3.6788,-3.6725,-3.6602,-3.6461,-3.6165,-3.6019,-3.5993,-3.5656,-3.5429,-3.5291,-3.5152,-3.4947,-3.4739,-3.4691,-3.4643,-3.4497,-3.4399,-3.43,-3.4201,-3.43,-3.4398,-3.4479,-3.6105,-3.7244,-3.7863,-3.8127,-3.788,-3.7149,-3.6571,-3.595,-3.5349,-3.5295,-3.5148,-3.4958,-3.4259,-3.3677,-3.3317,-3.2541,-3.1947,-3.1614,-3.1291,-3.1212,-3.1467,-3.1159,-3.1561,-3.2991,-3.3794,-3.4448,-3.5019,-3.5232,-3.5493,-3.595,-3.6228,-3.6321,-3.6321,-3.6383,-3.6507,-3.6769,-3.7062,-3.7541,-3.8213,-3.8814,-3.9402,-3.9898,-4.0615,-4.0934,-4.091,-4.1415,-4.1498,-4.1154,-4.1339,-4.1409,-4.1077,-4.106,-4.1197,-4.1244,-4.1318,-4.1471,-4.156,-4.1604,-4.1604,-4.1604,-4.1604,-4.1604,-4.1604,-4.1534,-4.1323,-4.0762,-4.0127,-3.9417,-3.8815,-3.8026,-3.7678,-3.7558,-3.7577,-3.7577,-3.7613,-3.7739,-3.7864,-3.895,-3.8833,-3.867,-3.8528,-3.8382,-3.8307,-3.8207,-3.8174,-3.7969,-3.7917,-3.7864,-3.7739,-3.7503,-3.7297,-3.7297,-3.7105,-3.6766,-3.6725,-3.6602,-3.6402,-3.6105,-3.6036,-3.5975,-3.5611,-3.5337,-3.5291,-3.4994,-3.4804,-3.4594,-3.4513,-3.4399,-3.43,-3.4151,-3.4,-3.3899,-3.3949,-3.3949,-3.3931,-3.5613,-3.6649,-3.6922,-3.7351,-3.7383,-3.7073,-3.6391,-3.592,-3.5643,-3.5184,-3.4905,-3.4772,-3.4006,-3.3468,-3.3253,-3.278,-3.2368,-3.2044,-3.1762,-3.1597,-3.149,-3.1417,-3.1767,-3.2775,-3.3431,-3.4059,-3.4679,-3.4996,-3.5322,-3.5559,-3.5767,-3.5943,-3.6085,-3.6133,-3.6336,-3.6538,-3.68,-3.7124,-3.7588,-3.8074,-3.8542,-3.8814,-3.9363,-3.9691,-3.9788,-4.0211,-4.0471,-4.023,-4.0595,-4.0844,-4.07,-4.0858,-4.1029,-4.1105,-4.129,-4.1408,-4.1471,-4.156,-4.1604,-4.1604,-4.1604,-4.1604,-4.1552,-4.1323,-4.0928,-4.0567,-3.9658,-3.8858,-3.8522,-3.7942,-3.7591,-3.7577,-3.7577,-3.7577,-3.7613,-3.7739,-3.7934,-3.9036,-3.891,-3.8762,-3.8609,-3.8401,-3.8256,-3.8192,-3.8192,-3.7969,-3.7917,-3.7864,-3.7775,-3.7522,-3.7297,-3.7297,-3.7066,-3.6766,-3.6702,-3.6544,-3.636,-3.6088,-3.6036,-3.5932,-3.5503,-3.5308,-3.5245,-3.4899,-3.4643,-3.4497,-3.4333,-3.4151,-3.4,-3.3848,-3.3761,-3.3607,-3.3607,-3.3607,-3.367,-3.5,-3.5814,-3.6061,-3.6467,-3.6805,-3.6933,-3.6165,-3.5812,-3.5819,-3.5038,-3.4548,-3.45,-3.3668,-3.3182,-3.3093,-3.2895,-3.2625,-3.2327,-3.2048,-3.1724,-3.1292,-3.1452,-3.182,-3.2202,-3.2825,-3.3456,-3.3906,-3.4442,-3.4851,-3.5088,-3.5459,-3.5782,-3.5973,-3.6085,-3.6274,-3.6492,-3.6816,-3.7015,-3.7076,-3.7524,-3.7876,-3.7934,-3.8278,-3.8649,-3.8805,-3.9094,-3.9481,-3.9796,-4.0188,-4.0485,-4.06,-4.0745,-4.0888,-4.1,-4.1215,-4.1335,-4.138,-4.1471,-4.156,-4.1604,-4.1604,-4.1499,-4.1323,-4.0814,-4.0313,-4.0028,-3.9153,-3.8422,-3.8315,-3.7873,-3.7557,-3.7577,-3.7577,-3.7631,-3.7703,-3.781,-3.7969,-3.9017,-3.8892,-3.8822,-3.8652,-3.8401,-3.8274,-3.8192,-3.8192,-3.7987,-3.7917,-3.7864,-3.7703,-3.7521,-3.7297,-3.7297,-3.7105,-3.6788,-3.6725,-3.6602,-3.6461,-3.6148,-3.6036,-3.5949,-3.5503,-3.5308,-3.5245,-3.4899,-3.4594,-3.4497,-3.425,-3.3949,-3.3607,-3.3555,-3.345,-3.3361,-3.3361,-3.3309,-3.3165,-3.3912,-3.477,-3.5609,-3.5815,-3.6111,-3.6447,-3.5695,-3.5187,-3.5106,-3.4319,-3.3864,-3.365,-3.3029,-3.2492,-3.2191,-3.2079,-3.1925,-3.1452,-3.1204,-3.0896,-3.0536,-3.0869,-3.1243,-3.1421,-3.2046,-3.2515,-3.2745,-3.3035,-3.3697,-3.4632,-3.5249,-3.5578,-3.5973,-3.5991,-3.6087,-3.6337,-3.6723,-3.6999,-3.706,-3.7405,-3.7759,-3.7876,-3.8221,-3.8504,-3.8766,-3.9094,-3.9432,-3.9798,-4.0104,-4.0355,-4.0387,-4.0514,-4.0625,-4.0724,-4.0901,-4.1117,-4.1318,-4.1426,-4.1436,-4.1525,-4.1569,-4.1253,-4.0762,-4.0411,-4.0155,-3.9077,-3.8505,-3.8146,-3.78,-3.7521,-3.7594,-3.7559,-3.7577,-3.7613,-3.781,-3.7844,-3.7946,-3.9175,-3.8989,-3.891,-3.8664,-3.8382,-3.8289,-3.8259,-3.8192,-3.7969,-3.7917,-3.7864,-3.7703,-3.7484,-3.7297,-3.7297,-3.7105,-3.6748,-3.6702,-3.6561,-3.6353,-3.6105,-3.5975,-3.5844,-3.5458,-3.5308,-3.5245,-3.4804,-3.4546,-3.4448,-3.4151,-3.3813,-3.3555,-3.3503,-3.3414,-3.3203,-3.3203,-3.3096,-3.302,-3.3271,-3.374,-3.4453,-3.4933,-3.5164,-3.5256,-3.5189,-3.5133,-3.4939,-3.4514,-3.4014,-3.356,-3.2732,-3.2015,-3.1497,-3.1482,-3.1366,-3.0999,-3.0732,-3.0447,-3.0219,-3.0463,-3.0826,-3.1277,-3.1647,-3.2,-3.2582,-3.2878,-3.3317,-3.3765,-3.4181,-3.4448,-3.4727,-3.5154,-3.5506,-3.5799,-3.6353,-3.6862,-3.6999,-3.7329,-3.7626,-3.7876,-3.8091,-3.8303,-3.8655,-3.904,-3.9415,-3.9729,-4.0037,-4.0154,-4.0254,-4.0095,-3.9932,-3.9941,-3.9743,-4.0066,-4.0874,-4.1353,-4.1233,-4.0946,-4.0894,-4.0656,-3.9972,-3.9322,-3.8837,-3.832,-3.8033,-3.7739,-3.7498,-3.7503,-3.7577,-3.7452,-3.7113,-3.697,-3.7145,-3.7214,-3.7426,-3.9283,-3.9073,-3.8921,-3.8683,-3.8401,-3.8322,-3.8274,-3.8192,-3.7969,-3.7917,-3.7864,-3.7703,-3.7484,-3.7297,-3.7297,-3.7066,-3.6742,-3.6719,-3.6537,-3.6225,-3.6062,-3.5932,-3.5773,-3.5475,-3.5308,-3.5198,-3.4756,-3.4448,-3.43,-3.4,-3.371,-3.3503,-3.345,-3.3293,-3.3112,-3.3112,-3.2989,-3.2843,-3.2843,-3.2951,-3.3336,-3.3759,-3.4118,-3.4401,-3.4622,-3.4698,-3.4575,-3.4265,-3.3779,-3.3123,-3.2404,-3.1676,-3.1073,-3.1028,-3.0881,-3.0702,-3.0326,-3.0144,-3.0036,-3.0083,-3.0391,-3.0912,-3.1079,-3.1453,-3.2032,-3.235,-3.252,-3.2688,-3.2825,-3.3126,-3.3804,-3.4318,-3.4744,-3.4973,-3.566,-3.6166,-3.6347,-3.6629,-3.6954,-3.7409,-3.7486,-3.7931,-3.8535,-3.904,-3.9362,-3.9625,-3.9699,-3.98,-3.9798,-3.9418,-3.9067,-3.911,-3.8694,-3.9032,-4.0199,-4.0513,-4.0438,-4.0237,-4.0044,-3.9884,-3.9182,-3.8462,-3.7958,-3.7844,-3.7485,-3.7314,-3.7301,-3.7413,-3.7077,-3.6863,-3.6524,-3.6165,-3.6321,-3.6389,-3.6813,-3.9272,-3.9092,-3.884,-3.8609,-3.8382,-3.8322,-3.8274,-3.8174,-3.7969,-3.7917,-3.7864,-3.7703,-3.7484,-3.7297,-3.7297,-3.7066,-3.6725,-3.665,-3.6416,-3.6045,-3.5959,-3.5915,-3.5773,-3.5475,-3.5274,-3.5161,-3.4739,-3.425,-3.3797,-3.3761,-3.3555,-3.3361,-3.3293,-3.3256,-3.3096,-3.3058,-3.2935,-3.2648,-3.2594,-3.2499,-3.2308,-3.2369,-3.297,-3.389,-3.3819,-3.3606,-3.3544,-3.3235,-3.2753,-3.2151,-3.1985,-3.1615,-3.0909,-3.0821,-3.0642,-3.0326,-3.0007,-2.9808,-2.9808,-2.987,-2.9988,-3.0168,-3.0395,-3.0519,-3.107,-3.1293,-3.1397,-3.1411,-3.1662,-3.2272,-3.3427,-3.3759,-3.397,-3.4195,-3.4493,-3.4778,-3.4849,-3.531,-3.5634,-3.6305,-3.6581,-3.7078,-3.8417,-3.9061,-3.9159,-3.9201,-3.9092,-3.8857,-3.8806,-3.8461,-3.818,-3.8172,-3.8225,-3.8487,-3.8849,-3.9346,-3.9356,-3.9146,-3.9161,-3.9111,-3.8585,-3.8058,-3.7694,-3.7404,-3.7126,-3.7026,-3.7102,-3.6751,-3.6114,-3.5775,-3.5577,-3.5413,-3.548,-3.5612,-3.6035,-3.9298,-3.9036,-3.8881,-3.8683,-3.846,-3.8401,-3.8322,-3.8241,-3.8003,-3.7917,-3.7864,-3.7703,-3.7484,-3.7297,-3.7297,-3.6784,-3.6011,-3.5936,-3.5475,-3.4675,-3.4523,-3.444,-3.4295,-3.4488,-3.4605,-3.458,-3.462,-3.4349,-3.3848,-3.3745,-3.3555,-3.3361,-3.3203,-3.3096,-3.2935,-3.2827,-3.2703,-3.2523,-3.2413,-3.2302,-3.2206,-3.2053,-3.214,-3.2475,-3.2751,-3.2735,-3.2539,-3.2706,-3.2599,-3.1924,-3.1772,-3.1297,-3.0594,-3.0401,-3.028,-3.0007,-2.9884,-2.9761,-2.9713,-2.9837,-3.0036,-3.0111,-3.0341,-3.0642,-3.0955,-3.1073,-3.119,-3.1351,-3.1467,-3.1839,-3.2227,-3.281,-3.3259,-3.3452,-3.3933,-3.434,-3.4694,-3.4867,-3.519,-3.5679,-3.5999,-3.6464,-3.6983,-3.7465,-3.7725,-3.7899,-3.7886,-3.7853,-3.7868,-3.7492,-3.7161,-3.7136,-3.6922,-3.684,-3.7059,-3.8243,-3.8773,-3.845,-3.8273,-3.8082,-3.7667,-3.7532,-3.722,-3.6992,-3.677,-3.6385,-3.6337,-3.5899,-3.5226,-3.4655,-3.449,-3.4557,-3.4623,-3.4753,-3.5195,-3.929,-3.9036,-3.8939,-3.8773,-3.8559,-3.8465,-3.8368,-3.8274,-3.8003,-3.7917,-3.7882,-3.7703,-3.7484,-3.7334,-3.7297,-3.6468,-3.5279,-3.5379,-3.4846,-3.3755,-3.3704,-3.3598,-3.3491,-3.3688,-3.4002,-3.4213,-3.4504,-3.4399,-3.4,-3.3797,-3.3607,-3.3346,-3.3203,-3.3058,-3.2897,-3.2718,-3.2523,-3.2342,-3.2247,-3.215,-3.2038,-3.1898,-3.1655,-3.1468,-3.1782,-3.1886,-3.1646,-3.2094,-3.2028,-3.1413,-3.1424,-3.105,-3.0366,-3.0097,-2.9974,-2.9808,-2.9761,-2.9713,-2.9665,-2.9865,-3.0036,-3.0111,-3.0341,-3.0642,-3.0955,-3.1073,-3.119,-3.1351,-3.1467,-3.1467,-3.1614,-3.2075,-3.2447,-3.2652,-3.3133,-3.3625,-3.3856,-3.3996,-3.4295,-3.4715,-3.5395,-3.5722,-3.5711,-3.6234,-3.6675,-3.6933,-3.6953,-3.692,-3.6935,-3.6578,-3.6232,-3.6257,-3.6056,-3.6031,-3.6302,-3.7206,-3.7741,-3.7505,-3.762,-3.73,-3.7189,-3.7036,-3.6829,-3.6601,-3.6236,-3.5764,-3.5345,-3.4942,-3.4375,-3.3734,-3.3588,-3.3705,-3.3752,-3.3862,-3.4393,-3.9301,-3.9101,-3.8968,-3.8822,-3.8689,-3.8496,-3.8387,-3.8274,-3.8056,-3.7899,-3.7864,-3.7703,-3.7521,-3.7334,-3.7297,-3.6257,-3.4864,-3.5118,-3.4673,-3.3533,-3.3516,-3.341,-3.3203,-3.3143,-3.3483,-3.4013,-3.4327,-3.4268,-3.4003,-3.3735,-3.3511,-3.3435,-3.3187,-3.3005,-3.2912,-3.2664,-3.2468,-3.2231,-3.213,-3.1962,-3.1826,-3.1709,-3.145,-3.1131,-3.1161,-3.1102,-3.088,-3.1267,-3.1188,-3.0603,-3.0931,-3.0864,-3.0197,-2.9898,-2.9808,-2.9747,-2.9651,-2.9602,-2.9602,-2.9775,-2.996,-3.0097,-3.0219,-3.0507,-3.0836,-3.1014,-3.119,-3.1292,-3.1409,-3.1467,-3.1467,-3.1599,-3.1702,-3.1799,-3.2152,-3.2281,-3.2415,-3.253,-3.2811,-3.3474,-3.458,-3.5061,-3.4739,-3.5235,-3.6056,-3.6266,-3.6141,-3.5992,-3.6008,-3.5702,-3.5471,-3.5559,-3.5616,-3.5762,-3.5949,-3.6157,-3.6362,-3.653,-3.6783,-3.6858,-3.6933,-3.6891,-3.658,-3.632,-3.5513,-3.5006,-3.4146,-3.3776,-3.3616,-3.3135,-3.3024,-3.3001,-3.3169,-3.3373,-3.3611,-3.9343,-3.9156,-3.9036,-3.8881,-3.8732,-3.8496,-3.8382,-3.8336,-3.807,-3.7951,-3.7846,-3.7721,-3.754,-3.7334,-3.7279,-3.6221,-3.4512,-3.4613,-3.3827,-3.2444,-3.2234,-3.2134,-3.2019,-3.2261,-3.273,-3.319,-3.311,-3.3223,-3.3389,-3.3108,-3.308,-3.3355,-3.3134,-3.2951,-3.2834,-3.2539,-3.2247,-3.213,-3.1566,-3.1187,-3.1076,-3.0851,-3.0624,-3.0454,-3.0705,-3.0836,-3.0657,-3.0696,-3.0574,-3.0326,-3.0405,-3.0297,-2.9941,-2.9775,-2.9651,-2.9665,-2.9602,-2.9602,-2.9602,-2.9865,-3.0036,-3.0097,-3.0341,-3.0582,-3.0762,-3.0955,-3.1132,-3.1278,-3.1409,-3.1467,-3.1467,-3.1467,-3.1597,-3.1784,-3.1841,-3.194,-3.2206,-3.2539,-3.2897,-3.3244,-3.3826,-3.39,-3.3814,-3.4446,-3.4878,-3.5047,-3.4988,-3.5054,-3.5069,-3.5098,-3.5152,-3.5291,-3.5475,-3.5656,-3.5905,-3.6079,-3.6208,-3.636,-3.6527,-3.6708,-3.6788,-3.6759,-3.647,-3.572,-3.4951,-3.4108,-3.3231,-3.2878,-3.2823,-3.2802,-3.2831,-3.2844,-3.2855,-3.3041,-3.3347,-3.8783,-3.8406,-3.8535,-3.8506,-3.8416,-3.8444,-3.8483,-3.8382,-3.8153,-3.7967,-3.7899,-3.7757,-3.754,-3.7334,-3.7297,-3.6204,-3.4512,-3.4387,-3.3363,-3.1726,-3.15,-3.1402,-3.1292,-3.1789,-3.2177,-3.243,-3.2434,-3.255,-3.2865,-3.2466,-3.2428,-3.2644,-3.2363,-3.2086,-3.2064,-3.1674,-3.1442,-3.1287,-3.0719,-3.0343,-3.0233,-3.0012,-2.9906,-3.0072,-3.0324,-3.0513,-3.0539,-3.0387,-3.0251,-3.0205,-3.005,-2.9851,-2.9713,-2.9665,-2.9602,-2.9602,-2.9602,-2.9602,-2.9602,-2.9851,-3.0036,-3.0097,-3.0341,-3.0568,-3.0702,-3.0895,-3.0999,-3.1117,-3.1234,-3.1366,-3.1366,-3.1366,-3.1424,-3.1597,-3.1727,-3.1883,-3.2206,-3.2554,-3.2897,-3.3128,-3.3319,-3.3351,-3.3527,-3.3649,-3.3949,-3.405,-3.425,-3.4497,-3.4594,-3.4756,-3.4994,-3.5182,-3.5304,-3.5577,-3.5932,-3.6079,-3.6122,-3.6276,-3.6444,-3.6585,-3.6725,-3.6753,-3.6589,-3.5247,-3.4266,-3.3459,-3.2633,-3.2581,-3.2544,-3.2576,-3.2659,-3.2707,-3.2787,-3.2934,-3.3136,-3.777,-3.7111,-3.7601,-3.7775,-3.7728,-3.818,-3.8248,-3.8182,-3.8092,-3.7891,-3.7755,-3.7756,-3.7577,-3.7334,-3.7297,-3.6221,-3.4673,-3.4332,-3.3325,-3.1918,-3.1479,-3.1346,-3.1292,-3.1631,-3.1784,-3.1841,-3.2006,-3.2187,-3.2272,-3.1773,-3.1566,-3.1709,-3.1262,-3.0853,-3.0907,-3.0458,-3.0251,-3.0137,-2.9771,-2.9465,-2.9342,-2.9178,-2.9307,-2.9767,-2.9885,-3.0148,-3.048,-3.0387,-3.0205,-3.005,-2.9789,-2.9665,-2.9602,-2.9602,-2.9602,-2.9602,-2.9602,-2.9602,-2.9602,-2.9775,-2.996,-3.0111,-3.028,-3.0387,-3.0628,-3.0659,-3.0705,-3.0719,-3.0778,-3.0895,-3.0881,-3.0866,-3.0924,-3.1202,-3.1477,-3.1853,-3.215,-3.2428,-3.2718,-3.2912,-3.3074,-3.3203,-3.3466,-3.3591,-3.3745,-3.3899,-3.4101,-3.43,-3.4497,-3.4643,-3.4899,-3.5071,-3.5241,-3.5498,-3.5915,-3.6079,-3.6165,-3.6276,-3.6402,-3.6502,-3.6475,-3.6457,-3.6239,-3.4914,-3.3687,-3.2845,-3.2406,-3.244,-3.2422,-3.2491,-3.2574,-3.2657,-3.2755,-3.2884,-3.3011,-3.7423,-3.7089,-3.715,-3.7073,-3.6933,-3.6932,-3.6831,-3.6766,-3.7194,-3.7235,-3.716,-3.7612,-3.7542,-3.7279,-3.7132,-3.6127,-3.4669,-3.4198,-3.3227,-3.1688,-3.1406,-3.1291,-3.119,-3.116,-3.1189,-3.1174,-3.1028,-3.1041,-3.1487,-3.1048,-3.1054,-3.1566,-3.0917,-3.0729,-3.074,-3.0216,-2.9993,-2.9743,-2.9041,-2.8687,-2.8512,-2.8336,-2.855,-2.9124,-2.9493,-2.9973,-3.0495,-3.0387,-3.019,-2.9884,-2.9713,-2.9602,-2.9602,-2.9602,-2.9602,-2.9602,-2.9602,-2.9602,-2.9665,-2.9851,-3.0036,-3.0111,-3.0341,-3.0507,-3.0553,-3.0324,-3.0178,-3.0089,-2.9896,-2.9672,-2.9658,-2.9687,-2.9785,-3.0041,-3.0938,-3.1736,-3.2007,-3.2287,-3.2508,-3.2586,-3.2904,-3.3081,-3.3224,-3.3398,-3.3607,-3.3745,-3.3949,-3.4151,-3.4399,-3.4546,-3.4756,-3.5135,-3.535,-3.5588,-3.581,-3.6036,-3.6208,-3.6276,-3.636,-3.6444,-3.6232,-3.5867,-3.5437,-3.4618,-3.3424,-3.2493,-3.2406,-3.2406,-3.2422,-3.2457,-3.2541,-3.2674,-3.269,-3.2787,-3.2979,-3.6606,-3.6171,-3.6335,-3.6317,-3.6196,-3.6325,-3.6268,-3.6216,-3.6468,-3.6485,-3.6384,-3.6658,-3.6684,-3.6323,-3.6176,-3.532,-3.3987,-3.371,-3.2805,-3.1684,-3.1291,-3.1173,-3.1072,-3.0935,-3.0871,-3.0692,-3.0359,-3.0434,-3.0631,-3.0277,-3.035,-3.048,-3.0193,-2.9949,-2.9772,-2.9414,-2.907,-2.8809,-2.8234,-2.7846,-2.7703,-2.753,-2.7773,-2.8371,-2.8913,-2.9624,-3.0408,-3.0387,-3.0205,-2.996,-2.9775,-2.9651,-2.9602,-2.9602,-2.9602,-2.9602,-2.9602,-2.9602,-2.9665,-2.9927,-3.005,-3.0172,-3.0401,-3.0422,-3.019,-2.993,-2.9711,-2.9389,-2.9095,-2.899,-2.8946,-2.9002,-2.9112,-2.9426,-3.0212,-3.099,-3.1526,-3.1748,-3.205,-3.2423,-3.2796,-3.3043,-3.2996,-3.3314,-3.3471,-3.3694,-3.3864,-3.4117,-3.4415,-3.4497,-3.4707,-3.5088,-3.5429,-3.5639,-3.5871,-3.6079,-3.6208,-3.6276,-3.6444,-3.6502,-3.6052,-3.5535,-3.5019,-3.4354,-3.3196,-3.2406,-3.2406,-3.2406,-3.2406,-3.2474,-3.261,-3.2641,-3.269,-3.277,-3.293,-3.557,-3.4865,-3.5456,-3.5535,-3.5448,-3.6014,-3.6002,-3.5917,-3.5901,-3.5714,-3.5548,-3.5522,-3.554,-3.5013,-3.5153,-3.4247,-3.3256,-3.3062,-3.2372,-3.1628,-3.119,-3.1032,-3.0975,-3.0912,-3.0733,-3.0526,-3.0316,-3.0119,-3.006,-2.9701,-2.9505,-2.9543,-2.9124,-2.8809,-2.8773,-2.8339,-2.7871,-2.7724,-2.7462,-2.721,-2.7053,-2.6948,-2.7215,-2.7799,-2.8708,-2.9551,-3.0292,-3.0447,-3.0222,-2.9997,-2.9856,-2.9761,-2.9665,-2.9602,-2.9602,-2.9602,-2.9602,-2.9602,-2.9637,-2.9766,-2.9907,-2.9925,-3.0156,-3.0161,-2.9551,-2.9334,-2.9044,-2.8679,-2.8521,-2.8388,-2.8359,-2.8542,-2.858,-2.87,-2.9025,-2.9654,-3.0492,-3.0936,-3.1428,-3.2199,-3.2524,-3.2716,-3.2876,-3.3087,-3.3216,-3.2908,-3.3235,-3.3695,-3.4088,-3.4382,-3.4721,-3.5198,-3.5492,-3.5707,-3.5939,-3.614,-3.6251,-3.6318,-3.6502,-3.6539,-3.604,-3.5518,-3.4914,-3.4091,-3.3055,-3.2511,-3.2406,-3.2406,-3.244,-3.2439,-3.2539,-3.2606,-3.2672,-3.2834,-3.3011,-3.5208,-3.4888,-3.4978,-3.4886,-3.4708,-3.4692,-3.4604,-3.4494,-3.4952,-3.4957,-3.4839,-3.5217,-3.5236,-3.4942,-3.4658,-3.4176,-3.3149,-3.2779,-3.2161,-3.1336,-3.1095,-3.0975,-3.0861,-3.069,-3.0617,-3.0452,-3.0274,-3.0044,-2.9826,-2.9621,-2.9366,-2.9183,-2.892,-2.8715,-2.8396,-2.8039,-2.7705,-2.7437,-2.7093,-2.6817,-2.6683,-2.6645,-2.6895,-2.7573,-2.8795,-2.9813,-3.0424,-3.0628,-3.0335,-2.9777,-2.9679,-2.9667,-2.9619,-2.9552,-2.9476,-2.9476,-2.9518,-2.9546,-2.9566,-2.9294,-2.916,-2.9177,-2.91,-2.89,-2.877,-2.8392,-2.8117,-2.7839,-2.7505,-2.736,-2.7345,-2.7283,-2.7515,-2.7703,-2.7794,-2.8263,-2.9236,-2.9955,-3.0441,-3.0889,-3.1213,-3.1275,-3.1357,-3.1722,-3.1908,-3.2109,-3.2594,-3.3096,-3.3632,-3.4153,-3.4669,-3.5161,-3.5429,-3.5673,-3.5895,-3.614,-3.6233,-3.6318,-3.6502,-3.6232,-3.5749,-3.5322,-3.4666,-3.3898,-3.2985,-3.2634,-3.2458,-3.2439,-3.2438,-3.2488,-3.2537,-3.2603,-3.2719,-3.2898,-3.3042,-3.5126,-3.5001,-3.4888,-3.473,-3.4539,-3.4381,-3.4173,-3.4046,-3.422,-3.4196,-3.4033,-3.4294,-3.4232,-3.3967,-3.3741,-3.3283,-3.2732,-3.2273,-3.1737,-3.11,-3.0673,-3.0375,-3.0122,-2.9886,-2.9707,-3.0161,-3.013,-2.9913,-2.9738,-2.9499,-2.9259,-2.9075,-2.8811,-2.8589,-2.8299,-2.789,-2.7575,-2.7299,-2.6989,-2.6712,-2.651,-2.651,-2.6895,-2.7512,-2.8516,-2.9199,-2.9697,-2.9856,-2.9609,-2.9291,-2.9143,-2.9137,-2.9064,-2.8972,-2.8926,-2.8866,-2.888,-2.8806,-2.8679,-2.863,-2.8448,-2.8448,-2.8368,-2.8197,-2.8009,-2.7717,-2.7469,-2.718,-2.6944,-2.6794,-2.6794,-2.6913,-2.6989,-2.7115,-2.7233,-2.7667,-2.845,-2.9128,-2.9809,-3.0253,-3.0747,-3.0818,-3.0908,-3.0885,-3.1242,-3.1694,-3.1854,-3.2402,-3.3323,-3.384,-3.4424,-3.4918,-3.5283,-3.5577,-3.5861,-3.6079,-3.6233,-3.6318,-3.6444,-3.5856,-3.5153,-3.4781,-3.4386,-3.3581,-3.2862,-3.2633,-3.2473,-3.2472,-3.2504,-3.2555,-3.2621,-3.2687,-3.2784,-3.293,-3.3073,-3.5193,-3.511,-3.4982,-3.4811,-3.4623,-3.4454,-3.4293,-3.4074,-3.3842,-3.3734,-3.3481,-3.3208,-3.3261,-3.2876,-3.268,-3.2318,-3.181,-3.1276,-3.0768,-3.047,-2.9895,-2.9577,-2.9293,-2.888,-2.8803,-2.9779,-2.9469,-2.9313,-2.9171,-2.9093,-2.8693,-2.8731,-2.8545,-2.829,-2.8027,-2.7775,-2.7423,-2.7144,-2.6832,-2.6606,-2.6472,-2.6418,-2.6856,-2.7581,-2.7933,-2.8396,-2.8907,-2.9024,-2.892,-2.8732,-2.8479,-2.8182,-2.8082,-2.8168,-2.8168,-2.8052,-2.8106,-2.8104,-2.8017,-2.7865,-2.7825,-2.7825,-2.7783,-2.7598,-2.724,-2.7178,-2.6989,-2.6837,-2.6659,-2.6794,-2.6846,-2.6884,-2.7041,-2.7181,-2.7284,-2.7554,-2.7961,-2.8536,-2.9154,-2.9776,-2.9968,-3.0074,-3.0282,-3.0398,-3.0846,-3.1262,-3.139,-3.1742,-3.264,-3.3479,-3.4091,-3.4705,-3.5115,-3.5571,-3.5905,-3.6002,-3.6156,-3.6146,-3.6264,-3.5521,-3.47,-3.4347,-3.4003,-3.3442,-3.2861,-3.2632,-3.2523,-3.2555,-3.257,-3.2621,-3.2705,-3.2802,-3.2898,-3.2993,-3.3135,-3.5339,-3.5176,-3.511,-3.4965,-3.4728,-3.4542,-3.4246,-3.4099,-3.3817,-3.3707,-3.3419,-3.3316,-3.2965,-3.2716,-3.2573,-3.1951,-3.0923,-3.0242,-2.97,-2.9462,-2.9059,-2.8824,-2.8588,-2.8108,-2.8099,-2.8232,-2.8143,-2.7953,-2.7913,-2.7588,-2.7813,-2.7842,-2.7674,-2.7622,-2.7694,-2.759,-2.7174,-2.6937,-2.6606,-2.6326,-2.6272,-2.6369,-2.673,-2.7523,-2.7783,-2.8104,-2.8531,-2.8747,-2.8586,-2.7955,-2.7842,-2.7552,-2.7342,-2.7738,-2.7954,-2.7897,-2.7825,-2.7711,-2.7567,-2.7271,-2.7074,-2.6905,-2.6778,-2.6536,-2.6406,-2.6486,-2.6537,-2.6625,-2.6645,-2.6794,-2.6794,-2.6937,-2.7041,-2.7181,-2.7335,-2.7554,-2.7936,-2.8171,-2.8423,-2.8947,-2.9115,-2.9278,-2.9562,-2.9752,-3.0069,-3.0401,-3.0622,-3.1048,-3.1805,-3.2771,-3.3584,-3.4289,-3.4947,-3.5436,-3.5932,-3.6011,-3.6071,-3.5897,-3.5739,-3.5196,-3.4478,-3.4072,-3.36,-3.3124,-3.2841,-3.2629,-3.2573,-3.2654,-3.2687,-3.2737,-3.282,-3.2884,-3.2979,-3.3042,-3.3196,-3.4068,-3.3938,-3.3846,-3.371,-3.3526,-3.3368,-3.316,-3.2957,-3.2767,-3.2585,-3.2365,-3.219,-3.1941,-3.1684,-3.1483,-3.0914,-3.0162,-2.9609,-2.9174,-2.8924,-2.8421,-2.8055,-2.7823,-2.7295,-2.6984,-2.6836,-2.6636,-2.6905,-2.7301,-2.7142,-2.6977,-2.6974,-2.6842,-2.6853,-2.7015,-2.6802,-2.677,-2.6634,-2.6433,-2.6218,-2.6125,-2.6233,-2.6676,-2.7089,-2.7365,-2.7579,-2.7754,-2.7856,-2.7764,-2.7409,-2.7312,-2.707,-2.7016,-2.7136,-2.7379,-2.7172,-2.713,-2.706,-2.6863,-2.6483,-2.6357,-2.6301,-2.6089,-2.603,-2.6002,-2.6139,-2.6258,-2.6472,-2.6563,-2.6712,-2.6779,-2.6989,-2.7144,-2.7233,-2.7386,-2.7655,-2.7905,-2.7955,-2.8152,-2.8348,-2.8728,-2.8997,-2.8967,-2.9124,-2.9293,-2.9526,-2.9824,-3.04,-3.1111,-3.1905,-3.285,-3.3894,-3.4566,-3.5043,-3.5409,-3.5446,-3.5539,-3.5494,-3.5169,-3.4623,-3.4184,-3.3721,-3.3318,-3.2907,-3.2677,-3.2674,-3.269,-3.2737,-3.282,-3.287,-3.2952,-3.3015,-3.306,-3.3122,-3.3256,-3.2904,-3.2818,-3.2703,-3.2559,-3.2424,-3.2298,-3.2141,-3.1899,-3.177,-3.1617,-3.132,-3.1165,-3.0992,-3.061,-3.0285,-2.9839,-2.9399,-2.911,-2.8681,-2.8317,-2.7786,-2.7358,-2.6975,-2.6478,-2.6102,-2.6122,-2.5756,-2.587,-2.6452,-2.6367,-2.6299,-2.6176,-2.5909,-2.5922,-2.6162,-2.5953,-2.6148,-2.6087,-2.6246,-2.6076,-2.615,-2.6233,-2.6447,-2.6779,-2.6899,-2.6995,-2.7097,-2.7112,-2.7112,-2.6986,-2.689,-2.6808,-2.6765,-2.6649,-2.6419,-2.6169,-2.6201,-2.6165,-2.6045,-2.5964,-2.5992,-2.5992,-2.5921,-2.5893,-2.5948,-2.6056,-2.615,-2.6365,-2.651,-2.6578,-2.6698,-2.6974,-2.713,-2.7233,-2.7423,-2.764,-2.7855,-2.8005,-2.8118,-2.8363,-2.8667,-2.8763,-2.8794,-2.8967,-2.9229,-2.9382,-2.971,-3.0,-3.0619,-3.1116,-3.2081,-3.3288,-3.4091,-3.4538,-3.4742,-3.4636,-3.4736,-3.4782,-3.4466,-3.3949,-3.3646,-3.3371,-3.3017,-3.2793,-3.2841,-3.2838,-3.287,-3.287,-3.2902,-3.2965,-3.3033,-3.3127,-3.3201,-3.3274,-3.3375,-3.3018,-3.2865,-3.2779,-3.2688,-3.2397,-3.2241,-3.2087,-3.1827,-3.1675,-3.1616,-3.1176,-3.1151,-3.0867,-3.0399,-2.949,-2.9053,-2.8673,-2.8103,-2.7619,-2.7386,-2.7063,-2.679,-2.6514,-2.6305,-2.6043,-2.5897,-2.5546,-2.5349,-2.5497,-2.5196,-2.5091,-2.529,-2.5047,-2.4969,-2.5313,-2.5097,-2.4846,-2.4747,-2.5114,-2.5639,-2.6144,-2.6258,-2.65,-2.6727,-2.6846,-2.6846,-2.6846,-2.6846,-2.6846,-2.6832,-2.6817,-2.6765,-2.6692,-2.6081,-2.571,-2.5721,-2.5916,-2.6165,-2.5821,-2.5683,-2.5669,-2.5586,-2.5616,-2.5797,-2.5795,-2.5903,-2.6011,-2.6111,-2.6365,-2.651,-2.6592,-2.6817,-2.7041,-2.7181,-2.7335,-2.7655,-2.7871,-2.8005,-2.8118,-2.8314,-2.8604,-2.8715,-2.8794,-2.9014,-2.9183,-2.9382,-2.9579,-2.9823,-3.0238,-3.0782,-3.1335,-3.2536,-3.3434,-3.3896,-3.4064,-3.3931,-3.3902,-3.402,-3.3671,-3.3345,-3.323,-3.3037,-3.2944,-3.2823,-3.2902,-3.2965,-3.2948,-3.2948,-3.2997,-3.3028,-3.3109,-3.3232,-3.3352,-3.3422,-3.352,-3.1661,-3.1526,-3.1411,-3.1306,-3.118,-3.1056,-3.0901,-3.0696,-3.0576,-3.0364,-3.0162,-2.9996,-2.9748,-2.9332,-2.8656,-2.8382,-2.808,-2.7504,-2.7198,-2.6922,-2.6723,-2.659,-2.6468,-2.6293,-2.6132,-2.5832,-2.5567,-2.5262,-2.4989,-2.4701,-2.4575,-2.4447,-2.4147,-2.4072,-2.4414,-2.4235,-2.4253,-2.444,-2.4812,-2.5317,-2.5721,-2.6112,-2.6418,-2.675,-2.675,-2.6721,-2.6721,-2.6794,-2.6794,-2.6707,-2.6504,-2.6176,-2.5965,-2.5495,-2.502,-2.4796,-2.4995,-2.5034,-2.4878,-2.4868,-2.4938,-2.4777,-2.4766,-2.4794,-2.5126,-2.532,-2.5664,-2.6096,-2.6272,-2.6404,-2.6496,-2.6817,-2.7041,-2.7196,-2.7284,-2.7539,-2.7806,-2.797,-2.8103,-2.8299,-2.8508,-2.8652,-2.8794,-2.8967,-2.9137,-2.9321,-2.9457,-2.9608,-3.0117,-3.0761,-3.1281,-3.1836,-3.2569,-3.3188,-3.327,-3.3245,-3.3134,-3.3166,-3.2988,-3.2738,-3.2862,-3.2769,-3.2793,-3.287,-3.2965,-3.2979,-3.3011,-3.3042,-3.3073,-3.3122,-3.3201,-3.3322,-3.3452,-3.3605,-3.3726,-3.0312,-3.024,-3.0309,-3.0299,-3.0213,-3.0079,-2.9997,-2.9827,-2.9702,-2.9451,-2.9169,-2.8897,-2.8488,-2.808,-2.7719,-2.7295,-2.7133,-2.7011,-2.6801,-2.6536,-2.6345,-2.6098,-2.5916,-2.583,-2.5837,-2.5727,-2.5577,-2.5246,-2.491,-2.4564,-2.425,-2.394,-2.3584,-2.3421,-2.3453,-2.3406,-2.343,-2.3893,-2.4202,-2.4657,-2.516,-2.5583,-2.5911,-2.6139,-2.63,-2.6286,-2.63,-2.6257,-2.6242,-2.6126,-2.5771,-2.5459,-2.5322,-2.4733,-2.4255,-2.4021,-2.3957,-2.3738,-2.3794,-2.3884,-2.3946,-2.3965,-2.3877,-2.4132,-2.4396,-2.456,-2.4749,-2.5314,-2.581,-2.5997,-2.627,-2.6553,-2.6922,-2.7093,-2.7248,-2.7503,-2.7675,-2.778,-2.7944,-2.825,-2.8444,-2.8589,-2.8732,-2.8967,-2.9153,-2.9259,-2.938,-2.947,-2.9919,-3.057,-3.086,-3.1248,-3.1613,-3.2176,-3.2303,-3.2364,-3.2332,-3.2483,-3.2332,-3.2371,-3.2613,-3.2763,-3.2855,-3.2934,-3.3028,-3.3091,-3.3152,-3.3135,-3.3147,-3.3226,-3.3334,-3.3422,-3.3567,-3.3744,-3.3913,-2.953,-2.9535,-3.0182,-3.0356,-3.026,-3.0138,-3.0,-2.9761,-2.9641,-2.9401,-2.8977,-2.8272,-2.7633,-2.7296,-2.6659,-2.6108,-2.5826,-2.5604,-2.5575,-2.5345,-2.5026,-2.5019,-2.5053,-2.5179,-2.5245,-2.5102,-2.5155,-2.5118,-2.4815,-2.4338,-2.4078,-2.3754,-2.326,-2.3008,-2.2838,-2.2705,-2.2776,-2.316,-2.3407,-2.3865,-2.4376,-2.4748,-2.4905,-2.5011,-2.5003,-2.493,-2.4945,-2.5119,-2.5206,-2.5191,-2.4875,-2.4725,-2.456,-2.3897,-2.3453,-2.3291,-2.2927,-2.2724,-2.2746,-2.3322,-2.3834,-2.3858,-2.365,-2.3464,-2.3647,-2.3868,-2.404,-2.4287,-2.4996,-2.5336,-2.5626,-2.604,-2.6387,-2.6579,-2.6629,-2.6831,-2.7091,-2.753,-2.7709,-2.8091,-2.8348,-2.8475,-2.8589,-2.8779,-2.8998,-2.9121,-2.9366,-2.9486,-2.9665,-3.0157,-3.0283,-3.0547,-3.0725,-3.1057,-3.1268,-3.1455,-3.1918,-3.2216,-3.2283,-3.2388,-3.2592,-3.2755,-3.2916,-3.3028,-3.3091,-3.3201,-3.3292,-3.3274,-3.3286,-3.3364,-3.3452,-3.3538,-3.3689,-3.3868,-3.4023,-2.868,-2.8668,-2.8946,-2.9545,-3.0321,-2.9736,-2.9402,-2.9163,-2.8585,-2.8104,-2.7865,-2.7251,-2.6926,-2.6636,-2.6291,-2.5818,-2.5648,-2.5482,-2.523,-2.5074,-2.4883,-2.4718,-2.4675,-2.449,-2.4547,-2.4429,-2.4655,-2.4585,-2.4131,-2.3907,-2.3794,-2.3494,-2.2921,-2.2678,-2.2402,-2.2249,-2.2292,-2.2502,-2.2887,-2.3413,-2.3792,-2.4361,-2.4618,-2.4814,-2.4863,-2.4814,-2.4794,-2.478,-2.4716,-2.4488,-2.4201,-2.3975,-2.3798,-2.3112,-2.2776,-2.2687,-2.225,-2.2119,-2.2077,-2.2566,-2.2679,-2.2511,-2.2377,-2.2506,-2.2848,-2.3078,-2.3478,-2.3881,-2.4287,-2.466,-2.4796,-2.5128,-2.5402,-2.5675,-2.5898,-2.614,-2.6421,-2.6792,-2.7109,-2.7288,-2.7939,-2.8422,-2.8521,-2.8556,-2.8763,-2.9029,-2.9275,-2.9518,-2.9681,-2.9902,-3.0119,-3.0375,-3.0609,-3.0855,-3.1112,-3.1351,-3.1654,-3.1948,-3.2249,-3.2422,-3.2623,-3.282,-3.2979,-3.3091,-3.3183,-3.3274,-3.3334,-3.3411,-3.3422,-3.3433,-3.3549,-3.3661,-3.3834,-3.4134,-3.4451,-2.7839,-2.7885,-2.8037,-2.8718,-2.9543,-2.9017,-2.8656,-2.8433,-2.7813,-2.7264,-2.6879,-2.652,-2.6209,-2.6002,-2.5511,-2.5218,-2.4938,-2.4774,-2.4611,-2.4388,-2.4188,-2.411,-2.399,-2.3914,-2.3812,-2.372,-2.3856,-2.3813,-2.3304,-2.331,-2.2903,-2.2526,-2.2333,-2.2101,-2.2217,-2.203,-2.1935,-2.2122,-2.244,-2.2912,-2.3203,-2.3535,-2.3889,-2.4053,-2.4071,-2.4009,-2.3933,-2.3856,-2.3885,-2.3688,-2.3455,-2.316,-2.2928,-2.2607,-2.2273,-2.2137,-2.2044,-2.1949,-2.1949,-2.1902,-2.1807,-2.1815,-2.1642,-2.1847,-2.2087,-2.2358,-2.2671,-2.3061,-2.3575,-2.3922,-2.4,-2.4426,-2.4825,-2.5133,-2.535,-2.5526,-2.5667,-2.5961,-2.6195,-2.6462,-2.7243,-2.8046,-2.8082,-2.8165,-2.8668,-2.8936,-2.9275,-2.9502,-2.9681,-2.9946,-3.0248,-3.0459,-3.0692,-3.0992,-3.1269,-3.1521,-3.1802,-3.2108,-3.2371,-3.2523,-3.2722,-3.2884,-3.3011,-3.3104,-3.3196,-3.3304,-3.3393,-3.3452,-3.3462,-3.3502,-3.3807,-3.422,-3.4647,-3.4995,-3.5336,-2.7002,-2.7114,-2.78,-2.8079,-2.8045,-2.7962,-2.7852,-2.7699,-2.7452,-2.7131,-2.6653,-2.5912,-2.5482,-2.5234,-2.4572,-2.4216,-2.4046,-2.3773,-2.3541,-2.3397,-2.3319,-2.2917,-2.2886,-2.2996,-2.3015,-2.2881,-2.2991,-2.2952,-2.2437,-2.2267,-2.1758,-2.138,-2.1279,-2.1457,-2.2067,-2.1949,-2.1902,-2.201,-2.2052,-2.2297,-2.254,-2.2701,-2.2851,-2.2973,-2.3034,-2.3077,-2.3044,-2.3044,-2.2998,-2.2865,-2.2776,-2.2569,-2.2484,-2.2269,-2.2091,-2.2044,-2.1902,-2.1807,-2.1807,-2.165,-2.1602,-2.1554,-2.1471,-2.1505,-2.1539,-2.1698,-2.1959,-2.2415,-2.2776,-2.3132,-2.3518,-2.392,-2.4224,-2.4428,-2.4549,-2.4725,-2.4787,-2.5118,-2.5349,-2.561,-2.6582,-2.7507,-2.754,-2.7808,-2.8449,-2.8905,-2.9275,-2.9502,-2.9681,-2.9973,-3.0316,-3.0609,-3.0855,-3.1151,-3.1462,-3.1691,-3.1984,-3.2249,-3.2473,-3.259,-3.2755,-3.2948,-3.3042,-3.3117,-3.3226,-3.3364,-3.3452,-3.3509,-3.3704,-3.4,-3.4596,-3.5045,-3.548,-3.5838,-3.6104,-2.6133,-2.6164,-2.6429,-2.6497,-2.6485,-2.6973,-2.7091,-2.6851,-2.623,-2.5754,-2.5509,-2.503,-2.48,-2.4505,-2.4257,-2.3852,-2.37,-2.3544,-2.3313,-2.302,-2.2868,-2.2703,-2.259,-2.2428,-2.2269,-2.2159,-2.2263,-2.2118,-2.1615,-2.14,-2.1241,-2.0896,-2.041,-2.0763,-2.1389,-2.1664,-2.1712,-2.1841,-2.1949,-2.2152,-2.237,-2.237,-2.2417,-2.2569,-2.2569,-2.2523,-2.2477,-2.2431,-2.2417,-2.237,-2.2278,-2.2278,-2.2217,-2.2044,-2.1996,-2.1949,-2.1807,-2.1616,-2.1568,-2.1458,-2.1471,-2.1458,-2.141,-2.141,-2.141,-2.1664,-2.1746,-2.1855,-2.2253,-2.2564,-2.2687,-2.2838,-2.3065,-2.3206,-2.3349,-2.3516,-2.3695,-2.4212,-2.457,-2.4734,-2.5444,-2.6324,-2.6645,-2.7468,-2.82,-2.8795,-2.9118,-2.947,-2.9726,-3.0103,-3.0443,-3.0716,-3.0998,-3.1329,-3.1614,-3.1802,-3.2055,-3.2336,-3.2523,-3.2639,-3.2802,-3.2993,-3.3104,-3.3214,-3.3304,-3.3422,-3.3509,-3.3696,-3.4165,-3.4587,-3.5174,-3.5779,-3.6263,-3.6553,-3.6723,-2.5698,-2.5703,-2.5702,-2.5676,-2.5712,-2.617,-2.6306,-2.6053,-2.5378,-2.4987,-2.4856,-2.4726,-2.4566,-2.4375,-2.4172,-2.3996,-2.3807,-2.3634,-2.3383,-2.3095,-2.2919,-2.2685,-2.2415,-2.2118,-2.1893,-2.1673,-2.1439,-2.1287,-2.0809,-2.0707,-2.0404,-1.9964,-1.9608,-1.9863,-2.0435,-2.082,-2.1254,-2.1479,-2.1759,-2.1902,-2.2091,-2.2184,-2.2184,-2.2278,-2.2278,-2.2278,-2.2231,-2.2231,-2.2231,-2.2137,-2.2137,-2.2123,-2.2091,-2.1996,-2.1902,-2.1807,-2.1664,-2.152,-2.141,-2.141,-2.141,-2.141,-2.141,-2.141,-2.1458,-2.1664,-2.1807,-2.1949,-2.2091,-2.2184,-2.2245,-2.231,-2.2463,-2.2583,-2.2749,-2.2929,-2.3152,-2.3635,-2.3783,-2.3992,-2.4227,-2.505,-2.5991,-2.7052,-2.7999,-2.8544,-2.9023,-2.939,-2.9782,-3.0215,-3.0593,-3.0878,-3.114,-3.1466,-3.1709,-3.1875,-3.2144,-3.2439,-3.2557,-3.2672,-3.2866,-3.3024,-3.3152,-3.3292,-3.3364,-3.3481,-3.3623,-3.3881,-3.4385,-3.5026,-3.5742,-3.6366,-3.6991,-3.7393,-3.7657,-2.5603,-2.5634,-2.562,-2.5546,-2.5563,-2.5425,-2.544,-2.5406,-2.5282,-2.5099,-2.4883,-2.4779,-2.4626,-2.4495,-2.4302,-2.4115,-2.3955,-2.3768,-2.3481,-2.3193,-2.2944,-2.2685,-2.2388,-2.2089,-2.1721,-2.1324,-2.1021,-2.0677,-2.0051,-1.9641,-1.9237,-1.8907,-1.8638,-1.8879,-1.9309,-1.9734,-2.0415,-2.0934,-2.1267,-2.1513,-2.1799,-2.1855,-2.1888,-2.1935,-2.1935,-2.1935,-2.1935,-2.1949,-2.1996,-2.1996,-2.1996,-2.1983,-2.1888,-2.1759,-2.1664,-2.1568,-2.1471,-2.141,-2.141,-2.141,-2.141,-2.141,-2.141,-2.1471,-2.1568,-2.1712,-2.1855,-2.1996,-2.2123,-2.217,-2.2217,-2.2324,-2.2417,-2.2523,-2.2675,-2.2781,-2.2872,-2.3064,-2.3123,-2.3254,-2.338,-2.4078,-2.5224,-2.6351,-2.752,-2.8261,-2.8857,-2.9544,-2.9946,-3.0452,-3.0781,-3.1078,-3.1351,-3.1617,-3.1839,-3.1984,-3.2197,-3.2489,-3.2539,-3.2654,-3.2866,-3.3055,-3.3165,-3.3304,-3.3422,-3.3549,-3.3661,-3.4082,-3.4639,-3.5354,-3.62,-3.7102,-3.7783,-3.8534,-3.893,-2.3855,-2.3854,-2.3847,-2.3858,-2.3828,-2.3827,-2.4404,-2.5356,-2.5313,-2.519,-2.5043,-2.4883,-2.467,-2.4626,-2.4428,-2.4247,-2.4036,-2.3789,-2.3504,-2.3199,-2.2902,-2.2632,-2.2304,-2.1915,-2.1556,-2.1166,-2.0778,-2.0273,-1.969,-1.9011,-1.8307,-1.7921,-1.7792,-1.7908,-1.8104,-1.8358,-1.9324,-2.0127,-2.0482,-2.1016,-2.1404,-2.1534,-2.1595,-2.1684,-2.1698,-2.1698,-2.1746,-2.1793,-2.1841,-2.1855,-2.1841,-2.1841,-2.1841,-2.1698,-2.1554,-2.1471,-2.1423,-2.141,-2.141,-2.141,-2.141,-2.1506,-2.1554,-2.1554,-2.165,-2.1807,-2.1949,-2.2044,-2.2123,-2.217,-2.217,-2.2263,-2.237,-2.2523,-2.2629,-2.2675,-2.2812,-2.2872,-2.2962,-2.3065,-2.3178,-2.3714,-2.4822,-2.5743,-2.69,-2.78,-2.867,-2.9383,-3.0103,-3.0517,-3.0942,-3.1252,-3.1428,-3.1691,-3.1929,-3.2073,-3.2301,-3.2488,-3.2555,-3.2687,-3.293,-3.3135,-3.3196,-3.3316,-3.3462,-3.3605,-3.3753,-3.4181,-3.4563,-3.5781,-3.6701,-3.7653,-3.8558,-3.9177,-3.9623,-2.3071,-2.3069,-2.3092,-2.3103,-2.3103,-2.3097,-2.3708,-2.4426,-2.44,-2.4274,-2.4181,-2.4347,-2.4393,-2.4287,-2.436,-2.4358,-2.4134,-2.3873,-2.3571,-2.3223,-2.285,-2.2517,-2.2158,-2.1768,-2.1371,-2.099,-2.0545,-2.0015,-1.9369,-1.8577,-1.7814,-1.7432,-1.7157,-1.7098,-1.7168,-1.7346,-1.783,-1.8754,-1.9529,-2.0248,-2.0711,-2.105,-2.1179,-2.1417,-2.1492,-2.1506,-2.1554,-2.1602,-2.165,-2.1712,-2.1698,-2.1698,-2.1698,-2.1602,-2.1506,-2.1423,-2.141,-2.141,-2.141,-2.1471,-2.152,-2.1616,-2.1712,-2.1759,-2.1793,-2.1902,-2.1996,-2.2091,-2.2123,-2.217,-2.217,-2.2217,-2.2324,-2.2477,-2.2523,-2.2629,-2.2735,-2.2841,-2.2946,-2.3051,-2.3377,-2.3822,-2.4537,-2.5406,-2.6202,-2.7013,-2.8057,-2.9111,-2.9865,-3.0516,-3.0971,-3.1346,-3.1521,-3.1691,-3.1894,-3.2056,-3.2301,-3.2472,-3.2555,-3.2719,-3.2993,-3.3165,-3.3226,-3.3375,-3.3549,-3.3689,-3.3807,-3.3987,-3.4467,-3.5795,-3.7007,-3.7835,-3.864,-3.9339,-3.9712,-2.2751,-2.271,-2.2872,-2.2734,-2.2868,-2.2773,-2.2793,-2.2792,-2.2727,-2.2747,-2.2892,-2.3446,-2.3638,-2.362,-2.4005,-2.4148,-2.3989,-2.3771,-2.3576,-2.3247,-2.2782,-2.2419,-2.2027,-2.1584,-2.1135,-2.0712,-2.0224,-1.966,-1.8968,-1.8212,-1.7516,-1.7144,-1.6808,-1.664,-1.6461,-1.6486,-1.6841,-1.735,-1.8183,-1.8917,-1.9693,-2.0112,-2.0359,-2.0833,-2.0966,-2.1082,-2.1166,-2.1313,-2.141,-2.152,-2.1568,-2.1554,-2.1554,-2.1506,-2.141,-2.141,-2.141,-2.141,-2.1458,-2.1506,-2.1616,-2.1712,-2.1855,-2.1949,-2.1996,-2.2044,-2.2091,-2.2137,-2.2231,-2.2278,-2.2278,-2.2324,-2.2417,-2.2523,-2.2569,-2.2675,-2.2781,-2.2886,-2.3022,-2.3111,-2.3349,-2.3747,-2.4113,-2.4958,-2.5683,-2.6372,-2.7233,-2.8478,-2.9329,-3.0072,-3.0639,-3.1113,-3.1524,-3.1605,-3.1688,-3.19,-3.2266,-3.2438,-3.2573,-3.2752,-3.3024,-3.3147,-3.3256,-3.3433,-3.3577,-3.3726,-3.3879,-3.4186,-3.4877,-3.6124,-3.7225,-3.7946,-3.87,-3.9496,-3.9777,-2.0865,-2.088,-2.1,-2.1064,-2.1115,-2.1129,-2.113,-2.1082,-2.1087,-2.1733,-2.2634,-2.2863,-2.2882,-2.2867,-2.3418,-2.3577,-2.3399,-2.3393,-2.3446,-2.3069,-2.2626,-2.2214,-2.1807,-2.1339,-2.0861,-2.0429,-1.9909,-1.9169,-1.8355,-1.7707,-1.7102,-1.668,-1.6392,-1.6175,-1.5957,-1.5925,-1.609,-1.6272,-1.67,-1.7688,-1.8613,-1.9417,-1.9939,-2.0259,-2.0461,-2.0699,-2.0851,-2.1028,-2.1153,-2.1277,-2.1277,-2.1326,-2.1423,-2.141,-2.141,-2.141,-2.141,-2.1458,-2.1506,-2.1602,-2.1712,-2.1855,-2.1996,-2.203,-2.2123,-2.2137,-2.2184,-2.2231,-2.2278,-2.2324,-2.237,-2.2417,-2.2523,-2.2569,-2.2615,-2.2721,-2.2841,-2.2962,-2.3052,-2.3201,-2.3348,-2.364,-2.397,-2.4476,-2.5144,-2.5853,-2.6503,-2.7394,-2.8283,-2.9043,-2.9686,-3.0309,-3.1281,-3.1502,-3.1531,-3.1795,-3.2196,-3.2438,-3.2555,-3.2784,-3.3055,-3.3196,-3.3364,-3.3491,-3.3633,-3.3753,-3.4089,-3.4726,-3.5521,-3.659,-3.7504,-3.8268,-3.8991,-3.9766,-3.9889,-2.0114,-2.0129,-2.0289,-2.0391,-2.0455,-2.0486,-2.0507,-2.05,-2.0509,-2.0958,-2.1727,-2.1993,-2.2087,-2.2106,-2.2652,-2.2832,-2.2671,-2.2647,-2.2671,-2.2517,-2.222,-2.1972,-2.154,-2.1102,-2.0646,-2.017,-1.9295,-1.8461,-1.7787,-1.7173,-1.665,-1.625,-1.6001,-1.5792,-1.5513,-1.5468,-1.5468,-1.5537,-1.5647,-1.6365,-1.7414,-1.8059,-1.881,-1.9219,-1.9573,-1.9904,-2.0188,-2.0316,-2.0585,-2.0863,-2.1005,-2.1264,-2.1375,-2.141,-2.141,-2.141,-2.141,-2.1471,-2.1554,-2.165,-2.1759,-2.1949,-2.2091,-2.2137,-2.2278,-2.2278,-2.2278,-2.2324,-2.2431,-2.2477,-2.2509,-2.2555,-2.2629,-2.2675,-2.2735,-2.2781,-2.2917,-2.3052,-2.3171,-2.3334,-2.3523,-2.3696,-2.3982,-2.4307,-2.4942,-2.5457,-2.6108,-2.6743,-2.7525,-2.8123,-2.8723,-2.9454,-3.0404,-3.1053,-3.1132,-3.1586,-3.2197,-3.2404,-3.2588,-3.2802,-3.3024,-3.3274,-3.3441,-3.3538,-3.3661,-3.3753,-3.4163,-3.4918,-3.5745,-3.6702,-3.7652,-3.8625,-3.9309,-3.9914,-4.0038,-1.9943,-1.9993,-2.0196,-2.032,-2.0381,-2.0455,-2.0495,-2.0508,-2.0513,-2.0464,-2.0603,-2.1171,-2.1242,-2.1443,-2.1876,-2.191,-2.1956,-2.197,-2.196,-2.179,-2.1465,-2.1329,-2.1167,-2.0846,-2.0206,-1.9492,-1.8707,-1.8028,-1.7393,-1.682,-1.6306,-1.5812,-1.5546,-1.5289,-1.5108,-1.5017,-1.5017,-1.5062,-1.5198,-1.5379,-1.593,-1.6499,-1.7476,-1.8046,-1.8329,-1.8567,-1.898,-1.9376,-1.9772,-2.0298,-2.0775,-2.1148,-2.1326,-2.1375,-2.1361,-2.1361,-2.141,-2.1458,-2.1602,-2.1759,-2.1841,-2.1983,-2.2137,-2.2231,-2.237,-2.2431,-2.2431,-2.2477,-2.2569,-2.2615,-2.2615,-2.2646,-2.2721,-2.2781,-2.2826,-2.2886,-2.3007,-2.3127,-2.329,-2.3451,-2.3625,-2.3782,-2.4036,-2.4317,-2.4733,-2.5203,-2.5731,-2.6363,-2.6944,-2.735,-2.7894,-2.867,-2.953,-3.0072,-3.0525,-3.1464,-3.2214,-3.2438,-3.2621,-3.2834,-3.3011,-3.3244,-3.3411,-3.3549,-3.3643,-3.3789,-3.4318,-3.5055,-3.5944,-3.6924,-3.8103,-3.9131,-3.9513,-4.0038,-4.0158,-1.9688,-1.9852,-1.9984,-2.0161,-2.032,-2.04,-2.0444,-2.0502,-2.0487,-2.0488,-2.0412,-2.0464,-2.0534,-2.0438,-2.1113,-2.1287,-2.1152,-2.1228,-2.1259,-2.116,-2.0715,-2.0653,-2.0475,-2.0052,-1.9386,-1.8757,-1.8161,-1.7557,-1.7018,-1.6479,-1.6013,-1.5558,-1.5175,-1.4915,-1.4708,-1.4605,-1.4558,-1.4605,-1.4708,-1.4891,-1.5326,-1.5994,-1.6822,-1.7384,-1.7869,-1.8219,-1.8571,-1.881,-1.9321,-1.9882,-2.0576,-2.1002,-2.118,-2.1277,-2.1326,-2.1361,-2.1361,-2.1506,-2.1664,-2.1746,-2.1888,-2.2137,-2.2231,-2.2278,-2.2417,-2.2523,-2.2569,-2.2689,-2.2749,-2.2749,-2.2781,-2.2797,-2.2857,-2.2857,-2.2857,-2.2962,-2.3097,-2.3201,-2.3319,-2.3538,-2.3754,-2.3867,-2.4036,-2.4343,-2.4686,-2.5108,-2.5358,-2.594,-2.629,-2.668,-2.715,-2.8022,-2.8897,-2.9299,-2.9902,-3.1376,-3.2214,-3.2438,-3.2654,-3.2834,-3.3042,-3.3183,-3.3364,-3.3549,-3.3716,-3.3854,-3.4484,-3.544,-3.6304,-3.7341,-3.87,-3.9675,-3.9958,-4.0138,-4.0234]},{"header":{"parameterUnit":"m.s-1","parameterCategory":1,"la1":31.0,"la2":29.5877,"lo1":-88.7671,"lo2":-86.6584,"dy":0.0162,"dx":0.0185,"nx":115,"ny":88,"refTime":"2024-04-29T06:00:00:Z","depth":0,"parameterNumber":3,"parameterNumberName":"V-component_of_WINDS"},"data":[0.0,0.0,0.0,0.0,0.0,0.0,0.0,0.0,0.0,0.0,0.0,0.0,0.0,0.0,0.0,0.0,0.0,0.0,0.0,0.0,0.0,0.0,0.0,0.0,0.0,0.0,0.0,0.0,0.0,0.0,0.0,0.0,0.0,0.0,0.0,0.0,0.0,0.0,0.0,0.0,0.0,0.0,0.0,0.0,0.0,0.0,0.0,0.0,0.0,0.0,0.0,0.0,0.0,0.0,0.0,0.0,0.0,0.0,0.0,0.0,0.0,0.0,0.0,0.0,0.0,0.0,0.0,0.0,0.0,0.0,0.0,0.0,0.0,0.0,0.0,0.0,0.0,0.0,0.0,0.0,0.0,0.0,0.0,0.0,0.0,0.0,0.0,0.0,0.0,0.0,0.0,0.0,0.0,0.0,0.0,0.0,0.0,0.0,0.0,0.0,0.0,0.0,0.0,0.0,0.0,0.0,0.0,0.0,0.0,0.0,0.0,0.0,0.0,0.0,0.0,0.0,0.0,0.0,0.0,0.0,0.0,0.0,0.0,0.0,0.0,0.0,0.0,0.0,0.0,0.0,0.0,0.0,0.0,0.0,0.0,0.0,0.0,0.0,0.0,0.0,0.0,0.0,0.0,0.0,0.0,0.0,0.0,0.0,0.0,0.0,0.0,0.0,0.0,0.0,0.0,0.0,0.0,0.0,0.0,0.0,0.0,0.0,0.0,0.0,0.0,0.0,0.0,0.0,0.0,0.0,0.0,0.0,0.0,0.0,0.0,0.0,0.0,0.0,0.0,0.0,0.0,0.0,0.0,0.0,0.0,0.0,0.0,0.0,0.0,0.0,0.0,0.0,0.0,0.0,0.0,0.0,0.0,0.0,0.0,0.0,0.0,0.0,0.0,0.0,0.0,0.0,0.0,0.0,0.0,0.0,0.0,0.0,0.0,0.0,0.0,0.0,0.0,0.0,0.0,0.0,0.0,0.0,0.0,0.0,0.0,0.0,0.0,0.0,0.0,0.0,0.0,0.0,0.0,0.0,0.0,0.0,0.0,0.0,0.0,0.0,0.0,0.0,0.0,0.0,0.0,0.0,0.0,0.0,0.0,0.0,0.0,0.0,0.0,0.0,0.0,0.0,0.0,0.0,0.0,0.0,0.0,0.0,0.0,0.0,0.0,0.0,0.0,0.0,0.0,0.0,0.0,0.0,0.0,0.0,0.0,0.0,0.0,0.0,0.0,0.0,0.0,0.0,0.0,0.0,0.0,0.0,0.0,0.0,0.0,0.0,0.0,0.0,0.0,0.0,0.0,0.0,0.0,0.0,0.0,0.0,0.0,0.0,0.0,0.0,0.0,0.0,0.0,0.0,0.0,0.0,0.0,0.0,0.0,0.0,0.0,0.0,0.0,0.0,0.0,0.0,0.0,0.0,0.0,0.0,0.0,0.0,0.0,0.0,0.0,0.0,0.0,0.0,0.0,0.0,0.0,0.0,0.0,0.0,0.0,0.0,0.0,0.0,0.0,0.0,0.0,0.0,0.0,0.0,0.0,0.0,0.0,0.0,0.0,0.0,0.0,0.0,0.0,0.0,0.0,0.0,0.0,0.0,0.0,0.0,0.0,0.0,0.0,0.0,0.0,0.0,0.0,0.0,0.0,0.0,0.0,0.0,0.0,0.0,0.0,0.0,0.0,0.0,0.0,0.0,0.0,0.0,0.0,0.0,0.0,0.0,0.0,0.0,0.0,0.0,0.0,0.0,0.0,0.0,0.0,0.0,0.0,0.0,0.0,0.0,0.0,0.0,0.0,0.0,0.0,0.0,0.0,0.0,0.0,0.0,0.0,0.0,0.0,0.0,0.0,0.0,0.0,0.0,0.0,0.0,0.0,0.0,0.0,0.0,0.0,0.0,0.0,0.0,0.0,0.0,0.0,0.0,0.0,0.0,0.0,0.0,0.0,0.0,0.0,0.0,0.0,0.0,0.0,0.0,0.0,0.0,0.0,0.0,0.0,0.0,0.0,0.0,0.0,0.0,0.0,0.0,0.0,0.0,0.0,0.0,0.0,0.0,0.0,0.0,0.0,0.0,0.0,0.0,0.0,0.0,0.0,0.0,0.0,0.0,0.0,0.0,0.0,0.0,0.0,0.0,0.0,0.0,0.0,0.0,0.0,0.0,0.0,0.0,0.0,0.0,0.0,0.0,0.0,0.0,0.0,0.0,0.0,0.0,0.0,0.0,0.0,0.0,0.0,0.0,0.0,0.0,0.0,0.0,0.0,0.0,0.0,0.0,0.0,0.0,0.0,0.0,0.0,0.0,0.0,0.0,0.0,0.0,0.0,0.0,0.0,0.0,0.0,0.0,0.0,0.0,0.0,0.0,0.0,0.0,0.0,0.0,0.0,0.0,0.0,0.0,0.0,0.0,0.0,0.0,0.0,0.0,0.0,0.0,0.0,0.0,0.0,0.0,0.0,0.0,0.0,0.0,0.0,0.0,0.0,0.0,0.0,0.0,0.0,0.0,0.0,0.0,0.0,0.0,0.0,0.0,0.0,0.0,0.0,0.0,0.0,0.0,0.0,0.0,0.0,0.0,0.0,0.0,0.0,0.0,0.0,0.0,0.0,0.0,0.0,0.0,0.0,0.0,0.0,0.0,0.0,0.0,0.0,0.0,0.0,0.0,0.0,0.0,0.0,0.0,0.0,0.0,0.0,0.0,0.0,0.0,0.0,0.0,0.0,0.0,0.0,0.0,0.0,0.0,0.0,0.0,0.0,0.0,0.0,0.0,0.0,0.0,0.0,0.0,0.0,0.0,0.0,0.0,0.0,0.0,0.0,0.0,0.0,0.0,0.0,0.0,0.0,0.0,0.0,0.0,0.0,0.0,0.0,0.0,0.0,0.0,0.0,0.0,0.0,0.0,0.0,0.0,0.0,0.0,0.0,0.0,0.0,0.0,0.0,0.0,0.0,0.0,0.0,0.0,0.0,0.0,0.0,0.0,0.0,0.0,0.0,0.0,0.0,0.0,0.0,0.0,0.0,0.0,0.0,0.0,0.0,0.0,0.0,0.0,0.0,0.0,0.0,0.0,0.0,0.0,0.0,0.0,0.0,0.0,0.0,0.0,0.0,0.0,0.0,0.0,0.0,0.0,0.0,0.0,0.0,0.0,0.0,0.0,0.0,0.0,0.0,0.0,0.0,0.0,0.0,0.0,0.0,0.0,0.0,0.0,0.0,0.0,0.0,0.0,0.0,0.0,0.0,0.0,0.0,0.0,0.0,0.0,0.0,0.0,0.0,0.0,0.0,0.0,0.0,0.0,0.0,0.0,0.0,0.0,0.0,0.0,0.0,0.0,0.0,0.0,0.0,0.0,0.0,0.0,0.0,0.0,0.0,0.0,0.0,0.0,0.0,0.0,0.0,0.0,0.0,0.0,0.0,0.0,0.0,0.0,0.0,0.0,0.0,0.0,0.0,0.0,0.0,0.0,0.0,0.0,0.0,0.0,0.0,0.0,0.0,0.0,0.0,0.0,0.0,0.0,0.0,0.0,0.0,0.0,0.0,0.0,0.0,0.0,0.0,0.0,0.0,0.0,0.0,0.0,0.0,0.0,0.0,0.0,0.0,0.0,0.0,0.0,0.0,0.0,0.0,0.0,0.0,0.0,0.0,0.0,0.0,0.0,0.0,0.0,0.0,0.0,0.0,0.0,0.0,0.0,0.0,0.0,0.0,0.0,0.0,0.0,0.0,0.0,0.0,0.0,0.0,0.0,0.0,0.0,0.0,0.0,0.0,0.0,0.0,0.0,0.0,0.0,0.0,0.0,0.0,0.0,0.0,0.0,0.0,0.0,0.0,0.0,0.0,0.0,0.0,0.0,0.0,0.0,0.0,0.0,0.0,0.0,0.0,0.0,0.0,0.0,0.0,0.0,0.0,0.0,0.0,0.0,0.0,0.0,0.0,0.0,0.0,0.0,0.0,0.0,0.0,0.0,0.0,0.0,0.0,0.0,0.0,0.0,0.0,0.0,0.0,0.0,0.0,0.0,0.0,0.0,0.0,0.0,0.0,0.0,0.0,0.0,0.0,0.0,0.0,0.0,0.0,0.0,0.0,0.0,0.0,0.0,0.0,0.0,0.0,0.0,0.0,0.0,0.0,0.0,0.0,0.0,0.0,0.0,0.0,0.0,0.0,0.0,0.0,0.0,0.0,0.0,0.0,0.0,0.0,0.0,0.0,0.0,0.0,0.0,0.0,0.0,0.0,0.0,-1.0703,0.0,0.0,0.0,-1.152,0.0,0.0,0.0,0.0,0.0,0.0,0.0,0.0,0.0,0.0,0.0,0.0,0.0,0.0,0.0,0.0,0.0,0.0,0.0,0.0,0.0,0.0,0.0,0.0,0.0,0.0,0.0,0.0,0.0,0.0,0.0,0.0,0.0,0.0,0.0,0.0,0.0,0.0,0.0,0.0,0.0,0.0,0.0,0.0,0.0,0.0,0.0,0.0,0.0,0.0,0.0,0.0,0.0,0.0,0.0,0.0,0.0,0.0,0.0,0.0,0.0,0.0,0.0,0.0,0.0,0.0,0.0,0.0,0.0,0.0,0.0,0.0,0.0,0.0,0.0,0.0,0.0,0.0,0.0,0.0,0.0,0.0,0.0,0.0,0.0,0.0,0.0,0.0,0.0,0.0,0.0,0.0,0.0,0.0,0.0,0.0,0.0,0.0,0.0,0.0,0.0,0.0,0.0,0.0,0.0,0.0,0.0,0.0,0.0,0.0,-1.0341,-1.0335,-1.0418,-1.0686,-1.1083,0.0,0.0,0.0,0.0,0.0,0.0,0.0,0.0,0.0,0.0,0.0,0.0,0.0,0.0,0.0,0.0,0.0,0.0,0.0,0.0,0.0,0.0,0.0,0.0,0.0,0.0,0.0,0.0,0.0,0.0,0.0,0.0,0.0,0.0,0.0,0.0,0.0,0.0,0.0,0.0,0.0,0.0,0.0,0.0,0.0,0.0,0.0,0.0,0.0,0.0,0.0,0.0,0.0,0.0,0.0,0.0,0.0,0.0,0.0,0.0,0.0,0.0,0.0,0.0,0.0,0.0,0.0,0.0,0.0,0.0,0.0,0.0,0.0,0.0,0.0,0.0,0.0,0.0,0.0,0.0,0.0,0.0,0.0,0.0,0.0,0.0,0.0,0.0,0.0,0.0,0.0,0.0,0.0,0.0,0.0,0.0,0.0,0.0,0.0,0.0,0.0,0.0,0.0,0.0,0.0,0.0,0.0,0.0,0.0,0.0,0.0,0.0,-1.0069,-1.0374,-1.081,0.0,0.0,0.0,0.0,0.0,0.0,0.0,0.0,0.0,0.0,0.0,0.0,0.0,0.0,0.0,0.0,0.0,0.0,0.0,0.0,0.0,0.0,0.0,0.0,0.0,0.0,0.0,0.0,0.0,0.0,0.0,0.0,0.0,0.0,0.0,0.0,0.0,0.0,0.0,0.0,0.0,0.0,0.0,0.0,0.0,0.0,0.0,0.0,0.0,0.0,0.0,0.0,0.0,0.0,0.0,0.0,0.0,0.0,0.0,0.0,0.0,0.0,0.0,0.0,0.0,0.0,0.0,0.0,0.0,0.0,0.0,0.0,0.0,0.0,0.0,0.0,0.0,0.0,0.0,0.0,0.0,0.0,0.0,0.0,0.0,0.0,0.0,0.0,0.0,0.0,0.0,0.0,0.0,0.0,0.0,0.0,0.0,0.0,0.0,0.0,0.0,0.0,0.0,0.0,0.0,0.0,0.0,0.0,0.0,0.0,-0.9741,-0.9862,-0.9915,0.0,-1.1128,0.0,0.0,0.0,0.0,0.0,0.0,0.0,0.0,0.0,0.0,0.0,0.0,0.0,0.0,0.0,0.0,0.0,0.0,0.0,0.0,0.0,0.0,0.0,0.0,0.0,0.0,0.0,0.0,0.0,0.0,0.0,0.0,0.0,0.0,0.0,0.0,0.0,0.0,0.0,0.0,0.0,0.0,0.0,0.0,0.0,0.0,0.0,0.0,0.0,0.0,0.0,0.0,0.0,0.0,0.0,0.0,0.0,0.0,0.0,0.0,0.0,0.0,0.0,0.0,0.0,0.0,0.0,0.0,0.0,0.0,0.0,0.0,0.0,0.0,0.0,0.0,0.0,0.0,0.0,0.0,0.0,0.0,0.0,0.0,0.0,0.0,0.0,0.0,0.0,0.0,0.0,0.0,0.0,0.0,0.0,0.0,0.0,0.0,0.0,0.0,0.0,0.0,0.0,0.0,0.0,0.0,0.0,0.0,0.0,0.0,-0.9634,-0.9683,-1.004,-1.0556,0.0,0.0,0.0,0.0,0.0,0.0,0.0,0.0,0.0,0.0,0.0,0.0,0.0,0.0,0.0,0.0,0.0,0.0,0.0,0.0,0.0,0.0,0.0,0.0,0.0,0.0,0.0,0.0,0.0,0.0,0.0,0.0,0.0,0.0,0.0,0.0,0.0,0.0,0.0,0.0,0.0,0.0,0.0,0.0,0.0,0.0,0.0,0.0,0.0,0.0,0.0,0.0,0.0,0.0,0.0,0.0,0.0,0.0,0.0,0.0,0.0,0.0,0.0,0.0,0.0,0.0,0.0,0.0,0.0,0.0,0.0,0.0,0.0,0.0,0.0,0.0,0.0,0.0,0.0,0.0,0.0,0.0,0.0,0.0,0.0,0.0,0.0,0.0,0.0,0.0,0.0,0.0,0.0,0.0,0.0,0.0,0.0,0.0,0.0,0.0,0.0,0.0,0.0,0.0,0.0,0.0,0.0,0.0,0.0,0.0,-0.9817,-0.9514,-0.962,-1.01,-1.0519,-1.0985,0.0,0.0,0.0,0.0,0.0,0.0,0.0,0.0,0.0,0.0,0.0,0.0,0.0,0.0,0.0,0.0,0.0,0.0,0.0,0.0,0.0,0.0,0.0,0.0,0.0,0.0,0.0,0.0,0.0,0.0,0.0,0.0,0.0,0.0,0.0,0.0,0.0,0.0,0.0,0.0,0.0,0.0,0.0,0.0,0.0,0.0,0.0,0.0,0.0,0.0,0.0,0.0,0.0,0.0,0.0,0.0,0.0,0.0,0.0,0.0,0.0,0.0,0.0,0.0,0.0,0.0,0.0,0.0,0.0,0.0,0.0,0.0,0.0,0.0,0.0,0.0,0.0,0.0,0.0,0.0,0.0,0.0,0.0,0.0,0.0,0.0,0.0,0.0,0.0,0.0,0.0,0.0,0.0,0.0,0.0,0.0,0.0,0.0,0.0,0.0,0.0,0.0,0.0,0.0,0.0,0.0,0.0,0.0,-1.0423,-0.973,-0.9431,-0.9639,-0.9863,-1.0204,0.0,0.0,0.0,0.0,0.0,0.0,0.0,0.0,0.0,0.0,0.0,0.0,0.0,0.0,0.0,0.0,0.0,0.0,0.0,0.0,0.0,0.0,0.0,0.0,0.0,0.0,0.0,0.0,0.0,0.0,0.0,0.0,0.0,0.0,0.0,0.0,0.0,0.0,0.0,0.0,0.0,0.0,0.0,0.0,0.0,0.0,0.0,0.0,0.0,0.0,0.0,0.0,0.0,0.0,0.0,0.0,0.0,0.0,0.0,0.0,0.0,0.0,0.0,0.0,0.0,0.0,0.0,0.0,0.0,0.0,0.0,0.0,0.0,0.0,0.0,0.0,0.0,0.0,0.0,0.0,0.0,0.0,0.0,0.0,0.0,0.0,0.0,0.0,0.0,0.0,0.0,0.0,0.0,0.0,0.0,0.0,0.0,0.0,0.0,0.0,0.0,0.0,0.0,0.0,0.0,0.0,0.0,0.0,0.0,-1.0141,-0.9592,-0.9339,-0.9402,-0.9683,-1.0191,0.0,0.0,0.0,0.0,0.0,0.0,0.0,0.0,0.0,0.0,0.0,0.0,0.0,0.0,0.0,0.0,0.0,0.0,0.0,0.0,0.0,0.0,0.0,0.0,0.0,0.0,0.0,0.0,0.0,0.0,0.0,0.0,0.0,0.0,0.0,0.0,0.0,0.0,0.0,0.0,0.0,0.0,0.0,0.0,0.0,0.0,0.0,0.0,0.0,0.0,0.0,0.0,0.0,0.0,0.0,0.0,0.0,0.0,0.0,0.0,0.0,0.0,0.0,0.0,0.0,0.0,0.0,0.0,0.0,0.0,0.0,0.0,0.0,0.0,0.0,0.0,0.0,0.0,0.0,0.0,0.0,0.0,0.0,0.0,0.0,0.0,0.0,0.0,0.0,0.0,0.0,0.0,0.0,0.0,0.0,0.0,0.0,0.0,0.0,0.0,0.0,0.0,0.0,0.0,0.0,0.0,0.0,0.0,0.0,-0.9514,0.0,-0.9082,-0.9069,-0.9298,-0.9816,0.0,0.0,0.0,0.0,0.0,0.0,0.0,0.0,0.0,0.0,0.0,0.0,0.0,0.0,0.0,0.0,0.0,0.0,0.0,0.0,0.0,0.0,0.0,0.0,0.0,0.0,0.0,0.0,0.0,0.0,0.0,0.0,0.0,0.0,0.0,0.0,0.0,0.0,0.0,0.0,0.0,0.0,0.0,0.0,0.0,0.0,0.0,0.0,0.0,0.0,0.0,0.0,0.0,0.0,0.0,0.0,0.0,0.0,0.0,0.0,0.0,0.0,0.0,0.0,0.0,0.0,0.0,0.0,0.0,0.0,0.0,0.0,0.0,0.0,0.0,0.0,0.0,0.0,0.0,0.0,0.0,0.0,0.0,0.0,0.0,0.0,0.0,0.0,0.0,0.0,0.0,0.0,0.0,0.0,0.0,0.0,0.0,0.0,0.0,0.0,0.0,0.0,0.0,0.0,0.0,0.0,0.0,0.0,-0.9857,-0.8696,-0.8628,-0.8636,-0.8627,-0.8632,-0.9091,0.0,0.0,0.0,0.0,0.0,0.0,0.0,0.0,0.0,0.0,0.0,0.0,0.0,0.0,0.0,0.0,0.0,0.0,0.0,0.0,0.0,0.0,0.0,0.0,0.0,0.0,0.0,0.0,0.0,0.0,0.0,0.0,0.0,0.0,0.0,0.0,0.0,0.0,0.0,0.0,0.0,0.0,0.0,0.0,0.0,0.0,0.0,0.0,0.0,0.0,0.0,0.0,0.0,0.0,0.0,0.0,0.0,0.0,0.0,0.0,0.0,0.0,0.0,0.0,0.0,0.0,0.0,0.0,0.0,0.0,0.0,0.0,0.0,0.0,0.0,0.0,0.0,0.0,0.0,0.0,0.0,0.0,0.0,0.0,0.0,0.0,0.0,0.0,0.0,0.0,0.0,0.0,0.0,0.0,0.0,0.0,0.0,0.0,0.0,0.0,0.0,0.0,0.0,0.0,0.0,0.0,0.0,0.0,0.0,-0.8814,-0.8348,-0.8288,-0.8627,-0.8747,-0.922,0.0,0.0,0.0,0.0,0.0,0.0,0.0,0.0,0.0,0.0,0.0,0.0,0.0,0.0,0.0,0.0,0.0,0.0,0.0,0.0,0.0,0.0,0.0,0.0,0.0,0.0,0.0,0.0,0.0,0.0,0.0,0.0,0.0,0.0,0.0,0.0,0.0,0.0,0.0,0.0,0.0,0.0,0.0,0.0,0.0,0.0,0.0,0.0,0.0,0.0,0.0,0.0,0.0,0.0,0.0,0.0,0.0,0.0,0.0,0.0,0.0,0.0,0.0,0.0,0.0,0.0,0.0,0.0,0.0,0.0,0.0,0.0,0.0,0.0,0.0,0.0,0.0,0.0,0.0,0.0,0.0,0.0,0.0,0.0,0.0,0.0,0.0,0.0,0.0,0.0,0.0,0.0,0.0,0.0,0.0,0.0,0.0,0.0,0.0,0.0,0.0,0.0,0.0,0.0,0.0,0.0,0.0,0.0,0.0,-0.8557,-0.7942,-0.7853,-0.8116,-0.8384,-0.9021,-0.9816,0.0,0.0,0.0,0.0,0.0,0.0,0.0,0.0,0.0,0.0,0.0,0.0,0.0,0.0,0.0,0.0,0.0,0.0,0.0,0.0,0.0,0.0,0.0,0.0,0.0,0.0,0.0,0.0,0.0,0.0,0.0,0.0,0.0,0.0,0.0,0.0,0.0,0.0,0.0,0.0,0.0,0.0,0.0,0.0,0.0,0.0,0.0,0.0,0.0,0.0,0.0,0.0,0.0,0.0,0.0,0.0,0.0,0.0,0.0,0.0,0.0,0.0,0.0,0.0,0.0,0.0,0.0,0.0,0.0,0.0,0.0,0.0,0.0,0.0,0.0,0.0,0.0,0.0,0.0,0.0,0.0,0.0,0.0,0.0,0.0,0.0,0.0,0.0,0.0,0.0,0.0,0.0,0.0,0.0,0.0,0.0,0.0,0.0,0.0,0.0,0.0,0.0,0.0,0.0,0.0,0.0,0.0,0.0,-0.7913,-0.7478,-0.7299,-0.7289,-0.7856,-0.848,0.0,0.0,0.0,0.0,0.0,0.0,0.0,0.0,0.0,0.0,0.0,0.0,0.0,0.0,0.0,0.0,0.0,0.0,0.0,0.0,0.0,0.0,0.0,0.0,0.0,0.0,0.0,0.0,0.0,0.0,0.0,0.0,0.0,0.0,0.0,0.0,0.0,0.0,0.0,0.0,0.0,0.0,0.0,0.0,0.0,0.0,0.0,0.0,0.0,0.0,0.0,0.0,0.0,0.0,0.0,0.0,0.0,0.0,0.0,0.0,0.0,0.0,0.0,0.0,0.0,0.0,0.0,0.0,0.0,0.0,0.0,0.0,0.0,0.0,0.0,0.0,0.0,0.0,0.0,0.0,0.0,0.0,0.0,0.0,0.0,0.0,0.0,0.0,0.0,0.0,0.0,0.0,0.0,0.0,0.0,0.0,0.0,0.0,0.0,0.0,0.0,0.0,0.0,0.0,0.0,0.0,0.0,0.0,0.0,-0.7336,-0.6975,-0.6982,-0.7446,-0.8029,-0.873,0.0,0.0,0.0,0.0,0.0,0.0,0.0,0.0,0.0,0.0,0.0,0.0,0.0,0.0,0.0,0.0,0.0,0.0,0.0,0.0,0.0,0.0,0.0,0.0,0.0,0.0,0.0,0.0,0.0,0.0,0.0,0.0,0.0,0.0,0.0,0.0,0.0,0.0,0.0,0.0,0.0,0.0,0.0,0.0,0.0,0.0,0.0,0.0,0.0,0.0,0.0,0.0,0.0,0.0,0.0,0.0,0.0,0.0,0.0,0.0,0.0,0.0,0.0,0.0,0.0,0.0,0.0,0.0,0.0,0.0,0.0,0.0,0.0,0.0,0.0,0.0,0.0,0.0,0.0,0.0,0.0,0.0,0.0,0.0,0.0,0.0,0.0,0.0,0.0,0.0,0.0,0.0,0.0,0.0,0.0,0.0,0.0,0.0,0.0,0.0,0.0,0.0,0.0,0.0,0.0,0.0,0.0,0.0,-0.8055,-0.7114,-0.7024,-0.7186,-0.7488,-0.8038,-0.8721,0.0,0.0,0.0,0.0,0.0,0.0,0.0,0.0,0.0,0.0,0.0,0.0,0.0,0.0,0.0,0.0,0.0,0.0,0.0,0.0,0.0,0.0,0.0,0.0,0.0,0.0,0.0,0.0,0.0,0.0,0.0,0.0,0.0,0.0,0.0,0.0,0.0,0.0,0.0,0.0,0.0,0.0,0.0,0.0,0.0,0.0,0.0,0.0,0.0,0.0,0.0,0.0,0.0,0.0,0.0,0.0,0.0,0.0,0.0,0.0,0.0,0.0,0.0,0.0,0.0,0.0,0.0,0.0,0.0,0.0,0.0,0.0,0.0,0.0,0.0,0.0,0.0,0.0,0.0,0.0,0.0,0.0,0.0,0.0,0.0,0.0,0.0,0.0,0.0,0.0,0.0,0.0,0.0,0.0,0.0,0.0,0.0,0.0,0.0,0.0,0.0,0.0,0.0,0.0,0.0,0.0,0.0,0.0,-0.8059,-0.7143,-0.7403,-0.764,-0.7624,-0.8027,-0.8563,0.0,0.0,0.0,0.0,0.0,0.0,0.0,0.0,0.0,0.0,0.0,0.0,0.0,0.0,0.0,0.0,0.0,0.0,0.0,0.0,0.0,0.0,0.0,0.0,0.0,0.0,0.0,0.0,0.0,0.0,0.0,0.0,0.0,0.0,0.0,0.0,0.0,0.0,0.0,0.0,0.0,0.0,0.0,0.0,0.0,0.0,0.0,0.0,0.0,0.0,0.0,0.0,0.0,0.0,0.0,0.0,0.0,0.0,0.0,0.0,0.0,0.0,0.0,0.0,0.0,0.0,0.0,0.0,0.0,0.0,0.0,0.0,0.0,0.0,0.0,0.0,0.0,0.0,0.0,0.0,0.0,0.0,0.0,0.0,0.0,0.0,0.0,0.0,0.0,0.0,0.0,0.0,0.0,0.0,0.0,0.0,0.0,0.0,0.0,0.0,0.0,0.0,0.0,0.0,0.0,0.0,0.0,0.0,-0.7928,-0.7382,-0.7254,-0.7537,-0.7939,-0.8313,-0.9043,0.0,0.0,0.0,0.0,0.0,0.0,0.0,0.0,0.0,0.0,0.0,0.0,0.0,0.0,0.0,0.0,0.0,0.0,0.0,0.0,0.0,0.0,0.0,0.0,0.0,0.0,0.0,0.0,0.0,0.0,0.0,0.0,0.0,0.0,0.0,0.0,0.0,0.0,0.0,0.0,0.0,0.0,0.0,0.0,0.0,0.0,0.0,0.0,-1.1952,0.0,0.0,0.0,0.0,0.0,0.0,0.0,0.0,0.0,0.0,0.0,0.0,0.0,0.0,0.0,0.0,0.0,0.0,0.0,0.0,0.0,0.0,0.0,0.0,0.0,0.0,0.0,0.0,0.0,0.0,0.0,0.0,0.0,0.0,0.0,0.0,0.0,0.0,0.0,0.0,0.0,0.0,0.0,0.0,0.0,0.0,0.0,0.0,0.0,0.0,0.0,0.0,0.0,0.0,0.0,0.0,0.0,0.0,0.0,-0.8037,-0.7617,-0.7661,-0.7935,-0.8322,-0.8886,-0.9545,0.0,0.0,0.0,0.0,0.0,0.0,0.0,0.0,0.0,0.0,0.0,0.0,0.0,0.0,0.0,0.0,0.0,0.0,0.0,0.0,0.0,0.0,0.0,0.0,0.0,0.0,0.0,0.0,0.0,0.0,0.0,0.0,0.0,0.0,0.0,0.0,0.0,0.0,0.0,0.0,0.0,0.0,0.0,0.0,0.0,0.0,0.0,0.0,0.0,0.0,0.0,0.0,0.0,0.0,0.0,0.0,0.0,0.0,0.0,0.0,0.0,0.0,0.0,0.0,0.0,0.0,0.0,0.0,0.0,0.0,0.0,0.0,0.0,0.0,0.0,0.0,0.0,0.0,0.0,0.0,0.0,0.0,0.0,0.0,0.0,0.0,0.0,0.0,0.0,0.0,0.0,0.0,0.0,0.0,0.0,0.0,0.0,0.0,0.0,0.0,0.0,0.0,0.0,0.0,0.0,0.0,0.0,-0.8461,-0.8241,-0.7938,-0.8364,-0.873,-0.9019,-0.9552,-1.0098,-1.0639,0.0,0.0,0.0,0.0,0.0,0.0,0.0,0.0,0.0,0.0,0.0,0.0,0.0,0.0,0.0,0.0,0.0,0.0,0.0,0.0,0.0,0.0,0.0,0.0,0.0,0.0,0.0,0.0,0.0,0.0,0.0,0.0,0.0,0.0,0.0,0.0,0.0,0.0,-1.1611,-1.1266,0.0,0.0,0.0,0.0,0.0,0.0,0.0,0.0,-1.1984,0.0,0.0,0.0,0.0,0.0,0.0,0.0,0.0,0.0,0.0,0.0,0.0,0.0,0.0,0.0,0.0,0.0,0.0,0.0,0.0,0.0,0.0,0.0,0.0,0.0,0.0,0.0,0.0,0.0,0.0,0.0,0.0,0.0,0.0,0.0,0.0,0.0,0.0,0.0,0.0,0.0,0.0,0.0,0.0,0.0,0.0,0.0,0.0,0.0,0.0,0.0,0.0,0.0,0.0,0.0,0.0,-0.8773,-0.8802,-0.8771,-0.8678,-0.8916,-0.9327,-0.9809,-1.031,-1.1022,-1.1903,0.0,0.0,0.0,0.0,0.0,0.0,0.0,0.0,0.0,0.0,0.0,0.0,0.0,0.0,0.0,0.0,0.0,0.0,0.0,0.0,0.0,0.0,0.0,0.0,0.0,0.0,0.0,0.0,0.0,0.0,0.0,0.0,0.0,0.0,0.0,0.0,0.0,0.0,0.0,-1.1117,-1.0875,0.0,0.0,0.0,0.0,0.0,0.0,0.0,0.0,-1.2765,0.0,0.0,0.0,0.0,0.0,0.0,0.0,0.0,0.0,0.0,0.0,0.0,0.0,0.0,0.0,0.0,0.0,0.0,0.0,0.0,0.0,0.0,0.0,0.0,0.0,0.0,0.0,0.0,0.0,0.0,0.0,0.0,0.0,0.0,0.0,0.0,0.0,0.0,0.0,0.0,0.0,0.0,0.0,0.0,0.0,0.0,0.0,0.0,0.0,0.0,0.0,0.0,0.0,0.0,0.0,-0.9423,-0.9275,-0.9307,-0.953,-0.9768,-1.0061,-1.054,-1.1029,-1.1666,0.0,0.0,0.0,0.0,0.0,0.0,0.0,0.0,0.0,0.0,0.0,0.0,0.0,0.0,0.0,0.0,0.0,0.0,0.0,0.0,0.0,0.0,0.0,0.0,0.0,0.0,0.0,0.0,0.0,0.0,0.0,0.0,0.0,0.0,0.0,0.0,0.0,0.0,0.0,0.0,-1.1171,-1.1054,-1.0801,0.0,0.0,0.0,0.0,0.0,0.0,-1.2597,-1.2927,0.0,0.0,0.0,0.0,0.0,0.0,0.0,0.0,0.0,0.0,0.0,0.0,0.0,0.0,0.0,0.0,0.0,0.0,0.0,0.0,0.0,0.0,0.0,0.0,0.0,0.0,0.0,0.0,0.0,0.0,0.0,0.0,0.0,0.0,0.0,0.0,0.0,0.0,0.0,0.0,0.0,0.0,0.0,0.0,0.0,0.0,0.0,0.0,0.0,0.0,0.0,0.0,0.0,0.0,0.0,-1.0028,-0.9813,-1.0014,-1.0549,-1.0703,-1.0996,-1.1372,-1.1747,-1.2221,0.0,0.0,0.0,0.0,0.0,0.0,0.0,0.0,0.0,0.0,0.0,0.0,0.0,0.0,0.0,0.0,0.0,0.0,0.0,0.0,0.0,0.0,0.0,0.0,0.0,0.0,0.0,0.0,0.0,0.0,0.0,0.0,0.0,0.0,0.0,0.0,0.0,0.0,0.0,0.0,0.0,-1.1316,-1.1111,-1.1288,0.0,0.0,0.0,0.0,-1.2499,-1.2842,0.0,0.0,0.0,0.0,0.0,0.0,0.0,0.0,0.0,0.0,0.0,0.0,0.0,0.0,0.0,0.0,0.0,0.0,0.0,0.0,0.0,0.0,0.0,0.0,0.0,0.0,0.0,0.0,0.0,0.0,0.0,0.0,0.0,0.0,0.0,0.0,0.0,0.0,0.0,0.0,0.0,0.0,0.0,0.0,0.0,0.0,0.0,0.0,0.0,0.0,0.0,0.0,0.0,0.0,0.0,0.0,-1.0544,-1.0629,-1.0963,-1.1349,-1.1693,-1.2082,-1.2484,-1.2792,-1.3144,0.0,0.0,0.0,0.0,0.0,0.0,0.0,0.0,0.0,0.0,0.0,0.0,0.0,0.0,0.0,0.0,0.0,0.0,0.0,0.0,0.0,0.0,0.0,0.0,0.0,0.0,0.0,0.0,0.0,0.0,0.0,0.0,0.0,0.0,0.0,0.0,0.0,0.0,0.0,0.0,0.0,-1.1745,-1.1879,-1.1868,-1.2068,0.0,0.0,-1.2807,-1.3262,-1.355,0.0,0.0,0.0,0.0,0.0,0.0,0.0,0.0,0.0,0.0,0.0,0.0,0.0,0.0,0.0,0.0,0.0,0.0,0.0,0.0,0.0,0.0,0.0,0.0,0.0,0.0,0.0,0.0,0.0,0.0,0.0,0.0,0.0,0.0,0.0,0.0,0.0,0.0,0.0,0.0,0.0,0.0,0.0,0.0,0.0,0.0,0.0,0.0,0.0,0.0,0.0,0.0,0.0,0.0,0.0,-1.1277,-1.1332,-1.1441,-1.1883,-1.2658,-1.2982,-1.327,-1.3595,-1.385,-1.3944,0.0,0.0,0.0,0.0,0.0,0.0,0.0,0.0,0.0,0.0,0.0,0.0,0.0,0.0,0.0,0.0,0.0,0.0,0.0,0.0,0.0,0.0,0.0,0.0,0.0,0.0,0.0,0.0,0.0,0.0,0.0,0.0,0.0,0.0,0.0,0.0,0.0,0.0,0.0,0.0,0.0,0.0,-1.2578,-1.2563,0.0,0.0,0.0,-1.3352,-1.3849,0.0,0.0,0.0,0.0,0.0,0.0,0.0,0.0,0.0,0.0,0.0,0.0,0.0,0.0,0.0,0.0,0.0,0.0,0.0,0.0,0.0,0.0,0.0,0.0,0.0,0.0,0.0,0.0,0.0,0.0,0.0,0.0,0.0,0.0,0.0,0.0,0.0,0.0,0.0,0.0,0.0,0.0,0.0,0.0,0.0,0.0,0.0,0.0,0.0,0.0,0.0,0.0,0.0,0.0,0.0,0.0,0.0,-1.2277,-1.2428,-1.2975,-1.3936,-1.4342,-1.4524,-1.4749,-1.4852,0.0,0.0,0.0,0.0,0.0,0.0,0.0,0.0,0.0,0.0,0.0,0.0,0.0,0.0,0.0,0.0,0.0,0.0,0.0,0.0,0.0,0.0,0.0,0.0,0.0,0.0,0.0,-1.3873,0.0,0.0,0.0,0.0,0.0,0.0,0.0,0.0,0.0,0.0,0.0,0.0,0.0,0.0,-1.2441,-1.3226,-1.3263,-1.336,0.0,0.0,-1.399,-1.4348,-1.4264,-1.4007,0.0,0.0,0.0,0.0,0.0,0.0,0.0,0.0,0.0,0.0,0.0,0.0,0.0,0.0,0.0,0.0,0.0,0.0,0.0,0.0,0.0,0.0,0.0,0.0,0.0,0.0,0.0,0.0,0.0,0.0,0.0,0.0,0.0,0.0,0.0,0.0,0.0,0.0,0.0,0.0,0.0,0.0,0.0,0.0,0.0,0.0,0.0,0.0,0.0,0.0,0.0,0.0,0.0,0.0,-1.3056,-1.3209,-1.3755,-1.4478,-1.5337,-1.5623,-1.5907,-1.6166,-1.6106,-1.5876,0.0,0.0,0.0,0.0,0.0,0.0,0.0,0.0,0.0,0.0,0.0,0.0,0.0,0.0,0.0,0.0,0.0,0.0,0.0,0.0,0.0,0.0,0.0,0.0,0.0,0.0,0.0,0.0,0.0,0.0,0.0,0.0,0.0,0.0,0.0,0.0,0.0,0.0,0.0,0.0,0.0,-1.3596,-1.3771,-1.4004,-1.4265,0.0,-1.4677,-1.4612,-1.4654,-1.4652,-1.4508,-1.3972,0.0,0.0,0.0,0.0,0.0,0.0,0.0,0.0,0.0,0.0,0.0,0.0,0.0,0.0,0.0,0.0,0.0,0.0,0.0,0.0,0.0,0.0,0.0,0.0,0.0,0.0,0.0,0.0,0.0,0.0,0.0,0.0,0.0,0.0,0.0,0.0,0.0,0.0,0.0,0.0,0.0,0.0,0.0,0.0,0.0,0.0,0.0,0.0,0.0,0.0,0.0,0.0,0.0,-1.395,-1.4391,-1.4811,-1.5597,-1.674,-1.6977,-1.7175,-1.7285,-1.7362,-1.6943,0.0,0.0,0.0,0.0,0.0,0.0,0.0,0.0,0.0,0.0,0.0,0.0,0.0,0.0,0.0,0.0,0.0,0.0,0.0,0.0,0.0,0.0,0.0,0.0,0.0,0.0,0.0,0.0,-1.3966,-1.3846,-1.3336,0.0,0.0,0.0,0.0,0.0,0.0,0.0,0.0,0.0,0.0,-1.3889,-1.4489,-1.4765,0.0,0.0,-1.5347,-1.5161,-1.4933,-1.4642,-1.4225,-1.3773,-1.3239,0.0,0.0,0.0,0.0,0.0,0.0,0.0,0.0,0.0,0.0,0.0,0.0,0.0,0.0,0.0,0.0,0.0,0.0,0.0,0.0,0.0,0.0,0.0,0.0,0.0,0.0,0.0,0.0,0.0,0.0,0.0,0.0,0.0,0.0,0.0,0.0,0.0,0.0,0.0,0.0,0.0,0.0,0.0,0.0,0.0,0.0,0.0,0.0,0.0,0.0,0.0,0.0,-1.4685,-1.5325,-1.5959,-1.6899,-1.8072,-1.8486,-1.8622,-1.8622,-1.8701,-1.814,0.0,0.0,0.0,0.0,0.0,0.0,0.0,0.0,0.0,0.0,0.0,0.0,0.0,0.0,0.0,0.0,0.0,0.0,0.0,0.0,0.0,0.0,0.0,0.0,0.0,0.0,0.0,0.0,-1.4054,-1.3734,-1.2945,0.0,0.0,0.0,0.0,0.0,0.0,0.0,0.0,0.0,0.0,-1.4388,-1.5059,-1.5293,-1.5469,-1.5761,-1.5635,-1.5413,-1.5011,-1.4672,-1.4214,-1.3693,0.0,0.0,0.0,0.0,0.0,0.0,0.0,0.0,0.0,0.0,0.0,0.0,0.0,0.0,0.0,0.0,0.0,0.0,0.0,0.0,0.0,0.0,0.0,0.0,0.0,0.0,0.0,-0.9376,0.0,0.0,-0.8787,0.0,0.0,0.0,0.0,0.0,0.0,0.0,0.0,0.0,0.0,0.0,0.0,0.0,0.0,0.0,0.0,0.0,0.0,0.0,0.0,0.0,0.0,-1.5416,-1.6087,-1.7311,-1.8419,-1.9455,-2.0004,-2.0369,-2.0361,-2.0035,-1.9541,-1.8904,0.0,0.0,0.0,0.0,0.0,0.0,0.0,0.0,0.0,0.0,0.0,0.0,0.0,0.0,0.0,0.0,0.0,0.0,0.0,0.0,0.0,0.0,0.0,0.0,0.0,0.0,-1.4627,-1.4143,-1.3557,0.0,0.0,0.0,0.0,0.0,0.0,0.0,0.0,0.0,-1.3253,-1.4509,-1.5374,-1.5107,-1.5553,-1.5761,-1.5589,-1.5476,-1.5335,-1.485,-1.4669,-1.4513,0.0,0.0,0.0,0.0,0.0,0.0,0.0,0.0,0.0,0.0,0.0,0.0,0.0,0.0,0.0,0.0,0.0,0.0,0.0,0.0,0.0,0.0,0.0,0.0,0.0,0.0,0.0,-1.0026,-0.9869,0.0,0.0,0.0,0.0,0.0,0.0,0.0,0.0,0.0,0.0,0.0,-1.3648,-1.4121,0.0,0.0,0.0,0.0,0.0,0.0,0.0,0.0,0.0,0.0,0.0,0.0,-1.6466,-1.7572,-1.8493,-1.9538,-2.0699,-2.1187,-2.146,-2.146,-2.1117,-2.0172,-1.876,0.0,0.0,0.0,0.0,0.0,0.0,0.0,0.0,0.0,0.0,0.0,0.0,0.0,0.0,0.0,0.0,0.0,0.0,0.0,0.0,0.0,0.0,0.0,0.0,0.0,-1.4437,0.0,0.0,0.0,0.0,0.0,0.0,0.0,0.0,0.0,0.0,-1.3215,-1.3768,-1.3662,-1.4576,-1.5195,-1.5083,-1.5409,-1.5692,0.0,0.0,0.0,0.0,0.0,0.0,0.0,0.0,0.0,0.0,0.0,0.0,0.0,-1.4309,-1.4161,-1.326,-1.3099,-1.3106,-1.2756,0.0,0.0,0.0,0.0,0.0,0.0,0.0,0.0,0.0,0.0,0.0,0.0,0.0,0.0,-1.0719,-1.0618,-1.0752,0.0,0.0,0.0,0.0,0.0,0.0,0.0,0.0,-1.3293,-1.4161,-1.4979,-1.5374,-1.5988,-1.6826,-1.6826,-1.6451,0.0,0.0,0.0,0.0,0.0,0.0,0.0,0.0,-1.7367,-1.8671,-1.9686,-2.0715,-2.1847,-2.2478,-2.2742,-2.2742,-2.2205,-2.1236,-1.9787,-1.884,-1.7839,0.0,0.0,0.0,0.0,0.0,0.0,0.0,0.0,0.0,0.0,0.0,0.0,0.0,0.0,0.0,0.0,0.0,0.0,0.0,0.0,0.0,0.0,0.0,-1.4403,0.0,0.0,0.0,0.0,0.0,0.0,0.0,0.0,0.0,-1.309,-1.3856,-1.4362,-1.4161,-1.4942,-1.5486,-1.5368,0.0,0.0,0.0,0.0,0.0,0.0,0.0,-1.5004,-1.4844,-1.4564,-1.4478,-1.4669,-1.4956,-1.5255,-1.5445,0.0,0.0,-1.4355,-1.4163,-1.416,-1.3812,-1.3711,-1.3559,-1.3372,-1.3272,-1.3124,0.0,0.0,0.0,0.0,-1.0547,0.0,0.0,0.0,-1.1347,-1.1493,0.0,-1.167,0.0,0.0,0.0,0.0,-1.1481,-1.2324,0.0,0.0,-1.4396,-1.525,-1.5891,-1.6267,-1.6868,-1.7614,-1.7707,-1.7839,-1.8147,-1.6759,0.0,0.0,0.0,0.0,0.0,0.0,-1.817,-1.946,-2.0962,-2.214,-2.2923,-2.3703,-2.4106,-2.4042,-2.342,-2.2678,-2.1902,-2.0766,-1.9649,-1.8601,-1.7401,0.0,0.0,0.0,0.0,0.0,0.0,0.0,0.0,0.0,0.0,0.0,0.0,0.0,0.0,0.0,0.0,0.0,0.0,0.0,0.0,-1.4733,0.0,0.0,0.0,0.0,0.0,0.0,0.0,0.0,0.0,-1.4229,-1.3986,-1.4779,-1.5219,-1.4862,0.0,0.0,0.0,0.0,-1.6204,-1.5937,-1.6205,-1.6125,-1.5646,-1.5571,-1.5607,-1.5934,0.0,0.0,-1.619,-1.6285,-1.6473,-1.6951,-1.7037,-1.6664,-1.5352,-1.5357,-1.5329,-1.508,-1.4844,-1.4638,-1.4502,-1.4354,-1.4088,-1.2462,0.0,0.0,0.0,0.0,-1.1998,-1.2112,-1.2164,-1.2461,-1.2533,-1.2324,-1.2476,0.0,0.0,0.0,0.0,0.0,0.0,-1.3954,-1.4949,-1.5606,-1.6412,-1.7372,-1.7856,-1.8485,-1.9195,-1.9273,-1.9277,-1.9231,-1.8835,-1.799,-1.6861,0.0,0.0,0.0,0.0,-1.9129,-2.03,-2.1915,-2.3063,-2.3765,-2.4775,-2.4909,-2.4335,-2.4424,-2.385,-2.2699,-2.1787,-2.1075,-2.0281,-1.8433,0.0,0.0,0.0,0.0,0.0,0.0,0.0,0.0,0.0,0.0,0.0,0.0,0.0,0.0,0.0,0.0,0.0,0.0,0.0,-1.5682,-1.5634,-1.5463,0.0,0.0,0.0,0.0,0.0,0.0,0.0,0.0,0.0,-1.6027,-1.6019,-1.5974,0.0,0.0,-1.6887,-1.6879,-1.6889,-1.6865,-1.6736,-1.7029,0.0,-1.6665,-1.6488,-1.6473,-1.6679,-1.6629,-1.6756,-1.7217,-1.7419,-1.7699,-1.7963,-1.8164,-1.8141,-1.7772,-1.7201,-1.6714,-1.6428,-1.6273,-1.5998,-1.5575,-1.5455,-1.5248,-1.3454,-1.3121,-1.2561,-1.2466,-1.2559,-1.2863,-1.3001,-1.2926,-1.3313,-1.3355,-1.3332,-1.3475,-1.3457,-1.3212,-1.3472,0.0,0.0,0.0,-1.5319,-1.6119,-1.6732,-1.7481,-1.8407,-1.8736,-1.9381,-2.0167,-2.0177,-2.0207,-2.0281,-2.0205,-1.9688,-1.8787,0.0,-1.8076,-1.8071,-1.8777,-1.9705,-2.0866,-2.2261,-2.3457,-2.4424,-2.5287,-2.5401,-2.4914,-2.4907,-2.4523,-2.3468,-2.2593,-2.1909,-2.1222,-1.919,-1.7603,0.0,0.0,0.0,0.0,0.0,0.0,0.0,0.0,0.0,0.0,0.0,-1.377,-1.3987,0.0,0.0,0.0,-1.5584,-1.6151,-1.6311,-1.6321,0.0,0.0,0.0,0.0,0.0,0.0,0.0,-1.6761,-1.7455,-1.7987,-1.8049,-1.8093,-1.7778,-1.7057,-1.7408,-1.781,-1.7823,0.0,-1.7618,-1.7633,-1.7695,-1.7681,-1.7401,-1.7313,-1.7366,-1.762,-1.7684,-1.78,-1.8249,-1.845,-1.8635,-1.8819,-1.9012,-1.9112,-1.9112,-1.8574,-1.7963,-1.7636,-1.7308,-1.6987,-1.6446,-1.623,-1.5974,-1.4398,-1.435,-1.3393,-1.3088,-1.3088,-1.3498,-1.3729,-1.3701,-1.3944,-1.4237,-1.4521,-1.4513,-1.4676,-1.4824,-1.5072,0.0,-1.5273,-1.6212,-1.6768,-1.6984,-1.7717,-1.8442,-1.9073,-1.9222,-1.9775,-2.0654,-2.0644,-2.0886,-2.1195,-2.1061,-2.0819,-2.0537,-1.925,-1.8535,-1.8511,-1.9067,-1.9975,-2.1172,-2.2275,-2.3475,-2.4782,-2.5478,-2.5664,-2.5401,-2.4954,-2.4506,-2.4059,-2.3039,-2.222,-2.159,-1.9744,-1.8009,-1.6603,0.0,0.0,0.0,0.0,0.0,0.0,0.0,0.0,0.0,0.0,0.0,0.0,0.0,0.0,-1.6158,-1.6984,0.0,-1.697,-1.7021,0.0,0.0,0.0,-1.7784,-1.7702,-1.8322,-1.8953,-1.9255,0.0,0.0,-1.9911,-2.0549,-2.0343,-1.8558,-1.8671,-1.8987,-1.8984,-1.8662,-1.843,-1.847,-1.8382,-1.8291,-1.8065,-1.8103,-1.8293,-1.8373,-1.8719,-1.892,-1.9188,-1.9288,-1.9379,-1.9579,-1.9679,-1.9679,-1.9671,-1.9379,-1.9088,-1.8572,-1.806,-1.7517,-1.7175,-1.6891,-1.6407,-1.4243,-1.4378,-1.4331,-1.4269,-1.4262,-1.4606,-1.4561,-1.4429,-1.4816,-1.4914,-1.4747,-1.4909,-1.5064,-1.5289,-1.569,-1.5996,-1.6236,-1.6806,-1.7313,-1.7743,-1.8327,-1.8851,-1.9487,-1.9715,-2.0186,-2.1051,-2.1051,-2.1205,-2.1425,-2.1349,-2.1118,-2.0634,-2.0198,-1.985,-1.934,-1.9968,-2.0589,-2.1172,-2.2619,-2.392,-2.5047,-2.5473,-2.5321,-2.4506,-2.4233,-2.3867,-2.3243,-2.2309,-2.18,-2.1581,-1.9744,-1.8326,-1.7591,-1.6057,0.0,0.0,0.0,0.0,0.0,0.0,0.0,0.0,0.0,-1.4619,-1.5617,0.0,-1.6441,0.0,-1.8357,-1.9095,-1.9017,-1.9558,0.0,0.0,-1.9751,-1.9766,-1.9609,-2.0216,-2.0656,-2.0944,-2.1347,-2.1657,-2.1681,-2.2241,-2.2381,-2.1713,-2.0931,-2.0397,-2.0374,-2.0085,-1.9782,-1.9527,-1.9419,-1.9295,-1.9047,-1.9122,-1.9209,-1.9052,-1.9196,-1.9479,-1.9654,-1.9754,-1.9837,-2.0119,-2.011,-2.0119,-2.011,-1.9754,-1.9372,-1.8938,-1.845,-1.8065,-1.7731,-1.7329,-1.6922,-1.4321,-1.4566,-1.4824,-1.4915,-1.4992,-1.5173,-1.5162,-1.4989,-1.5309,-1.5448,-1.5355,-1.5674,-1.5913,-1.6134,-1.6553,-1.6896,-1.7238,-1.7573,-1.8002,-1.8434,-1.8683,-1.9161,-1.9715,-1.9863,-2.0342,-2.1215,-2.1215,-2.1359,-2.1578,-2.1502,-2.1349,-2.1041,-2.0722,-2.0411,-2.0108,-2.0178,-2.0581,-2.1062,-2.2788,-2.4105,-2.5047,-2.5178,-2.5056,-2.4525,-2.3794,-2.3248,-2.2725,-2.1824,-2.1211,-2.1102,-1.9516,-1.8283,-1.78,-1.6319,-1.5106,0.0,0.0,0.0,0.0,0.0,0.0,0.0,0.0,0.0,0.0,0.0,-1.81,-1.9184,-2.0324,-2.0973,-2.0963,-2.1399,-2.1671,-2.1505,-2.1822,-2.2044,-2.1959,-2.2592,-2.3063,-2.3204,-2.3505,-2.3663,-2.3607,-2.3818,-2.3892,-2.3599,-2.2789,-2.2021,-2.1777,-2.1279,-2.0663,-2.0483,-2.0085,-1.9833,-1.9613,-1.9682,-1.9794,-1.9704,-1.9837,-1.9936,-2.0019,-2.011,-2.0119,-2.0292,-2.0292,-2.0232,-2.0086,-1.9692,-1.9216,-1.8781,-1.8248,-1.7802,-1.7572,-1.7405,-1.7083,-1.4482,-1.465,-1.4915,-1.5173,-1.5347,-1.5347,-1.5431,-1.5431,-1.5575,-1.5824,-1.617,-1.6574,-1.6894,-1.7139,-1.7383,-1.7627,-1.804,-1.8353,-1.8683,-1.9002,-1.9082,-1.939,-1.9863,-1.9942,-2.042,-2.1205,-2.1215,-2.1436,-2.1807,-2.1589,-2.1512,-2.1502,-2.0964,-2.0722,-2.0644,-2.0255,-2.0407,-2.1057,-2.2894,-2.4079,-2.469,-2.4798,-2.4679,-2.4598,-2.3348,-2.2542,-2.2201,-2.1216,-2.0652,-2.0453,-1.9116,-1.8174,-1.7668,-1.6564,-1.573,0.0,-1.531,0.0,0.0,0.0,0.0,0.0,0.0,0.0,0.0,-1.8873,-2.0018,-2.1553,-2.242,-2.2992,-2.2992,-2.3043,-2.3084,-2.3023,-2.3686,-2.4176,-2.4257,-2.4961,-2.5492,-2.5594,-2.5571,-2.5521,-2.5307,-2.5179,-2.4913,-2.4613,-2.4005,-2.3476,-2.3017,-2.2108,-2.1413,-2.1179,-2.0475,-2.0004,-1.997,-1.9953,-2.0036,-2.0209,-2.0292,-2.0292,-2.0292,-2.0292,-2.0292,-2.0283,-2.0232,-2.0103,-1.9707,-1.9268,-1.882,-1.8473,-1.7843,-1.7326,-1.7302,-1.7231,-1.6936,-1.4068,-1.4482,-1.4657,-1.4915,-1.5173,-1.534,-1.5431,-1.5431,-1.5575,-1.5982,-1.6394,-1.6812,-1.7139,-1.731,-1.7538,-1.7861,-1.8362,-1.8531,-1.8772,-1.9002,-1.932,-1.9636,-1.9942,-2.0098,-2.0576,-2.1215,-2.1215,-2.1425,-2.1807,-2.1741,-2.1655,-2.1502,-2.1349,-2.1195,-2.0906,0.0,0.0,0.0,-2.2838,-2.3529,-2.3961,-2.3961,-2.3714,-2.2935,-2.2152,0.0,-2.063,-2.008,-1.9837,-1.9729,-1.8748,0.0,0.0,0.0,0.0,0.0,0.0,0.0,0.0,0.0,0.0,0.0,-2.1507,-2.1851,-2.0689,-2.1605,-2.2653,-2.3602,-2.4261,-2.4746,-2.4919,-2.5431,-2.5661,-2.5341,-2.5587,-2.5741,-2.5883,-2.6032,-2.6328,-2.689,-2.6599,-2.6423,-2.6425,-2.6137,-2.5653,-2.5254,-2.4622,-2.4096,-2.3578,-2.2636,-2.1872,-2.1275,-2.0566,-2.0201,-2.0201,-2.0201,-2.0201,-2.0292,-2.0292,-2.0292,-2.0292,-2.0292,-2.0292,-2.0283,-2.0052,-1.9749,-1.9462,-1.8962,-1.8465,-1.7847,-1.7564,-1.7278,-1.727,-1.6873,-1.648,-1.3906,-1.4243,-1.4566,-1.4824,0.0,-1.534,-1.5431,-1.5423,-1.5575,-1.5974,-1.6394,-1.664,-1.6976,-1.7392,-1.7465,-1.7878,-1.8531,-1.8612,-1.8851,-1.9152,-1.9478,-1.9715,-1.9942,-2.0255,-2.0731,-2.1205,-2.1272,-2.1589,-2.1959,-2.1949,-2.1959,-2.1959,-2.1807,-2.1721,-2.1502,-2.1512,-2.1683,-2.2029,-2.2726,-2.3243,-2.3659,-2.3689,-2.3418,-2.2849,-2.1865,0.0,0.0,0.0,0.0,0.0,0.0,0.0,0.0,-1.8504,0.0,-1.836,-1.8552,-1.8993,-1.9793,-2.0508,-2.143,-2.273,-2.4443,-2.4985,-2.3694,-2.4436,-2.5116,-2.5611,-2.6086,-2.6391,-2.6483,-2.6699,-2.6775,-2.661,-2.6741,-2.6903,-2.699,-2.6997,-2.7162,-2.7388,-2.6966,-2.6616,-2.6722,-2.6113,-2.5575,-2.5375,-2.4568,-2.3852,-2.3473,-2.2723,-2.203,-2.1278,-2.0611,-2.0292,-2.0292,-2.0292,-2.0292,-2.0292,-2.0292,-2.0292,-2.0292,-2.0292,-2.0292,-2.0266,-1.9992,-1.9613,-1.9112,-1.8629,-1.8085,-1.7513,-1.7167,-1.7008,-1.7008,-1.6684,-1.6312,-1.3822,-1.4082,-1.4482,-1.4824,-1.509,-1.5257,-1.534,-1.5423,-1.5665,0.0,0.0,-1.6394,-1.6812,-1.7392,-1.7392,-1.7887,-1.862,-1.87,-1.8922,-1.9231,-1.9548,-1.9706,-1.9942,-2.0411,-2.0809,-2.1205,-2.1425,-2.1731,-2.2101,-2.2101,-2.2176,-2.2402,-2.2252,-2.2252,-2.2252,-2.2025,-2.1983,-2.2043,-2.2664,-2.3238,-2.3669,-2.3606,-2.3482,-2.3254,-2.2028,-2.1242,-2.1004,-2.0437,-2.0177,-2.0235,-2.009,-2.0007,-2.0072,-2.0036,-2.0216,-2.0552,-2.0966,-2.1549,-2.225,-2.2742,-2.3698,-2.5385,-2.6822,-2.7332,-2.6476,-2.6811,-2.7184,-2.7435,-2.7587,-2.7753,-2.7672,-2.7592,-2.7429,-2.736,-2.7564,-2.7661,-2.7702,-2.7637,-2.7655,-2.7668,-2.7093,-2.6615,-2.6557,-2.5766,-2.5138,-2.4987,-2.4224,-2.3426,-2.2975,-2.2409,-2.1844,-2.1095,-2.0663,-2.0382,-2.0292,-2.0292,-2.0292,-2.0292,-2.0292,-2.0292,-2.0292,-2.0292,-2.0266,-2.0163,-1.98,-1.9338,-1.8801,-1.817,-1.7655,-1.7114,-1.6894,-1.673,-1.6648,-1.6492,-1.6327,-1.3568,-1.3822,-1.423,-1.4566,-1.4741,-1.4999,-1.5257,-1.5431,-1.5839,-1.6087,-1.617,-1.6484,-1.6976,-1.7392,-1.7392,-1.7797,-1.8442,-1.8612,-1.8851,-1.9082,-1.9636,-1.9863,-1.9951,-2.0586,-2.0974,-2.1205,-2.1436,-2.1731,-2.2025,-2.2101,-2.2176,-2.2402,-2.2553,-2.2703,-2.2852,-2.2703,-2.266,-2.2821,-2.3224,-2.3727,-2.4354,-2.394,-2.367,-2.3439,-2.2521,-2.1815,-2.145,-2.1312,-2.1328,-2.1527,-2.1097,-2.1146,-2.1637,-2.1538,-2.1549,-2.1931,-2.2423,-2.3096,-2.3928,-2.4454,-2.5672,-2.7682,-2.8609,-2.865,-2.7855,-2.7775,-2.8106,-2.8724,-2.8688,-2.8633,-2.8633,-2.8554,-2.8395,-2.8087,-2.7928,-2.7906,-2.8147,-2.7685,-2.7461,-2.7808,-2.7138,-2.6583,-2.6441,-2.5754,-2.5058,-2.4606,-2.3867,-2.319,-2.2419,-2.1832,-2.1446,-2.1015,-2.0826,-2.0564,-2.0382,-2.0292,-2.0292,-2.0292,-2.0292,-2.0292,-2.0292,-2.0257,-2.0155,-1.9881,-1.9355,-1.8801,-1.8203,-1.7631,-1.7171,-1.682,-1.673,-1.673,-1.6648,-1.6409,-1.617,-1.3222,-1.3561,-1.4075,-1.4405,-1.4734,-1.509,-1.534,-1.5423,-1.5922,-1.6095,-1.617,-1.6409,-1.6894,-1.7392,-1.7392,-1.7797,-1.8531,-1.8612,-1.8851,-1.9152,-1.9706,-1.9872,-1.9942,-2.0664,-2.1128,-2.1205,-2.1655,-2.1959,-2.2252,-2.2413,-2.2553,-2.2703,-2.2927,-2.315,-2.3298,-2.3224,-2.3224,-2.332,-2.3796,-2.4143,-2.4438,-2.4605,-2.4626,-2.4422,-2.3859,-2.3438,-2.3147,-2.2958,-2.2885,-2.3015,-2.2722,-2.2681,-2.2961,-2.3059,-2.3301,-2.3712,-2.4153,-2.4687,-2.5387,-2.6246,-2.7372,-2.8743,-2.9447,-2.9738,-2.9618,-2.9365,-2.9247,-2.9574,-2.9353,-2.9106,-2.8961,-2.887,-2.8645,-2.8419,-2.8111,-2.7975,-2.7941,-2.7409,-2.6987,-2.7178,-2.6551,-2.6022,-2.5838,-2.5249,-2.4679,-2.4173,-2.3437,-2.264,-2.2213,-2.1839,-2.1472,-2.1284,-2.0925,-2.0645,-2.0564,-2.0382,-2.0292,-2.0292,-2.0292,-2.0292,-2.0266,-2.0155,-1.9851,-1.9567,-1.9022,-1.8431,-1.7861,-1.7391,-1.7032,-1.673,-1.673,-1.673,-1.6648,-1.6409,-1.6004,-1.2966,-1.3398,-1.3822,-1.4243,-1.4741,-1.5166,-1.5431,-1.5431,-1.5922,-1.6095,-1.617,-1.6327,-1.6804,-1.7392,-1.7392,-1.7878,-1.8531,-1.87,-1.8922,-1.9231,-1.9696,-1.9872,-2.002,-2.0809,-2.1215,-2.1282,-2.1807,-2.2176,-2.2402,-2.2617,-2.2927,-2.315,-2.3372,-2.353,-2.3751,-2.3751,-2.3751,-2.3796,-2.428,-2.4614,-2.4668,-2.5181,-2.5414,-2.5502,-2.5206,-2.496,-2.4848,-2.4534,-2.4416,-2.4382,-2.4237,-2.4108,-2.4264,-2.4564,-2.4921,-2.537,-2.5721,-2.6151,-2.6726,-2.7704,-2.8525,-2.9123,-2.9686,-3.0124,-3.0529,-3.0072,-2.9897,-3.0101,-2.9754,-2.9365,-2.9131,-2.8961,-2.8724,-2.851,-2.8122,-2.7893,-2.7812,-2.7138,-2.6644,-2.6561,-2.6063,-2.5581,-2.52,-2.4786,-2.4313,-2.3794,-2.2969,-2.2441,-2.2274,-2.2008,-2.1741,-2.1571,-2.1114,-2.0835,-2.0744,-2.0564,-2.0382,-2.0292,-2.0292,-2.024,-2.0155,-1.9906,-1.9553,-1.92,-1.8675,-1.8121,-1.7562,-1.726,-1.6918,-1.673,-1.673,-1.6656,-1.6492,-1.6245,-1.5922,-1.296,-1.3392,-1.3652,-1.4068,-1.4741,-1.5173,-1.5431,-1.5431,-1.5929,-1.6095,-1.617,-1.6492,-1.6902,-1.7392,-1.7392,-1.7797,-1.8442,-1.8612,-1.8851,-1.9082,-1.9627,-1.9872,-2.0029,-2.0809,-2.1215,-2.1282,-2.1807,-2.2252,-2.2402,-2.2777,-2.3224,-2.3751,-2.3824,-2.397,-2.4127,-2.4127,-2.42,-2.4429,-2.4865,-2.5146,-2.5283,-2.5195,-2.5521,-2.6359,-2.5934,-2.58,-2.5977,-2.5627,-2.5518,-2.5704,-2.523,-2.5158,-2.5606,-2.5746,-2.5968,-2.6508,-2.6769,-2.7095,-2.7616,-2.841,-2.8754,-2.8792,-2.9236,-2.9534,-2.9483,-2.9099,-2.9292,-2.9972,-2.9973,-2.9459,-2.9131,-2.9015,-2.8834,-2.8518,-2.8179,-2.7881,-2.78,-2.7301,-2.6809,-2.6644,-2.6146,-2.5728,-2.5295,-2.4786,-2.4282,-2.3677,-2.3154,-2.2715,-2.2618,-2.2227,-2.1943,-2.1882,-2.1633,-2.1177,-2.0826,-2.0654,-2.0546,-2.0365,-2.0275,-2.0121,-1.9881,-1.971,-1.9476,-1.8744,-1.8263,-1.7788,-1.7326,-1.6902,-1.6738,-1.6722,-1.6632,-1.655,-1.6245,-1.5966,-1.5621,-1.254,-1.3045,-1.3398,-1.3977,-1.4734,-1.5082,-1.5264,-1.5431,-1.5922,-1.6095,-1.617,-1.6492,-1.6984,-1.7392,-1.7392,-1.7797,-1.8523,-1.87,-1.8931,-1.9329,-1.9706,-1.9942,-2.0177,-2.0886,-2.1215,-2.1282,-2.1959,-2.2327,-2.2478,-2.2927,-2.3457,-2.3824,-2.3897,-2.4055,-2.4345,-2.4345,-2.449,-2.4657,-2.4844,-2.5195,-2.5611,-2.5849,-2.6258,-2.6688,-2.7002,-2.7203,-2.742,-2.7454,-2.7422,-2.7176,-2.6863,-2.6627,-2.6546,-2.6533,-2.6671,-2.7066,-2.731,-2.7656,-2.7934,-2.816,-2.8371,-2.866,-2.8746,-2.8939,-2.908,-2.8833,-2.8835,-2.9094,-2.8937,-2.865,-2.8373,-2.8467,-2.8497,-2.8222,-2.8148,-2.803,-2.7881,-2.7371,-2.6962,-2.6644,-2.6302,-2.5957,-2.5464,-2.4871,-2.4272,-2.3754,-2.3232,-2.295,-2.2775,-2.2339,-2.1907,-2.1686,-2.1355,-2.108,-2.1051,-2.0843,-2.0558,-2.0303,-2.0056,-1.9829,-1.9495,-1.9179,-1.8837,-1.838,-1.7938,-1.7598,-1.7188,-1.6894,-1.673,-1.6675,-1.6427,-1.6267,-1.5863,-1.5701,-1.5598,-1.2198,-1.279,-1.3307,-1.3984,-1.4741,-1.4999,-1.5173,-1.5431,-1.5922,-1.6095,-1.617,-1.6492,-1.6984,-1.7392,-1.7392,-1.7878,-1.862,-1.8709,-1.902,-1.9566,-1.9784,-2.002,-2.0342,-2.0896,-2.1215,-2.1359,-2.2035,-2.2478,-2.2703,-2.315,-2.3604,-2.3897,-2.397,-2.4189,-2.4502,-2.4502,-2.4634,-2.4861,-2.4861,-2.517,-2.5695,-2.6139,-2.6536,-2.6998,-2.7663,-2.8098,-2.8249,-2.8625,-2.8596,-2.8041,-2.7921,-2.7657,-2.713,-2.7092,-2.7201,-2.7403,-2.7789,-2.7987,-2.8131,-2.8052,-2.8093,-2.845,-2.8354,-2.832,-2.8464,-2.837,-2.8145,-2.7919,-2.7788,-2.7673,-2.7866,-2.8039,-2.801,-2.7819,-2.7861,-2.7751,-2.7514,-2.7104,-2.6726,-2.656,-2.6248,-2.5948,-2.5505,-2.4871,-2.4358,-2.3927,-2.3384,-2.2978,-2.2746,-2.2188,-2.1655,-2.1457,-2.1119,-2.0863,-2.1038,-2.0642,-2.0272,-2.0061,-1.9747,-1.9453,-1.911,-1.8759,-1.8411,-1.8152,-1.7679,-1.74,-1.7196,-1.6952,-1.6508,-1.6412,-1.6166,-1.5913,-1.5605,-1.5446,-1.5343,-1.21,-1.2796,-1.3659,-1.4243,-1.4734,-1.4999,-1.5173,-1.5423,-1.5922,-1.6095,-1.617,-1.6492,-1.6984,-1.7392,-1.7392,-1.7878,-1.8612,-1.8674,-1.8957,-1.9571,-1.9728,-2.001,-2.0342,-2.0896,-2.1195,-2.1231,-2.2025,-2.2777,-2.3446,-2.353,-2.3824,-2.4127,-2.4189,-2.4273,-2.449,-2.4574,-2.4706,-2.5052,-2.5123,-2.5277,-2.5584,-2.5632,-2.6226,-2.7078,-2.7755,-2.8074,-2.8147,-2.8511,-2.8472,-2.7825,-2.7927,-2.7726,-2.7346,-2.7268,-2.7469,-2.7789,-2.8105,-2.8287,-2.8287,-2.8222,-2.821,-2.8132,-2.7974,-2.7722,-2.7488,-2.7323,-2.7173,-2.6828,-2.6804,-2.6959,-2.7555,-2.7705,-2.7631,-2.7322,-2.7071,-2.6928,-2.674,-2.6487,-2.6248,-2.6256,-2.5972,-2.5602,-2.5187,-2.4765,-2.4351,-2.4023,-2.3373,-2.2889,-2.2745,-2.2094,-2.1601,-2.1377,-2.108,-2.068,-2.0331,-2.0264,-1.9945,-1.9624,-1.9418,-1.9076,-1.8819,-1.8562,-1.8283,-1.7941,-1.7708,-1.7463,-1.7301,-1.6943,-1.6363,-1.6022,-1.5747,-1.549,-1.5335,-1.5025,-1.4926,-1.2015,-1.2966,-1.3483,-1.3984,-1.4475,-1.4741,-1.4999,-1.5257,-1.5839,-1.6095,-1.617,-1.6492,-1.6984,-1.7392,-1.7392,-1.7743,-1.825,-1.831,-1.8565,-1.9023,-1.9137,-1.9287,-1.9701,-2.0416,-2.0793,-2.0984,-2.1738,-2.2628,-2.3372,-2.3519,-2.3824,-2.4127,-2.4345,-2.449,-2.4706,-2.4849,-2.4981,-2.5182,-2.5324,-2.5465,-2.5618,-2.584,-2.626,-2.6652,-2.7239,-2.7713,-2.7914,-2.8556,-2.8589,-2.7996,-2.811,-2.8056,-2.7668,-2.7736,-2.7868,-2.8105,-2.8235,-2.8365,-2.8444,-2.8314,-2.8131,-2.8079,-2.7802,-2.7469,-2.7146,-2.7011,-2.6875,-2.6658,-2.6521,-2.6716,-2.6922,-2.7167,-2.7174,-2.6968,-2.6992,-2.695,-2.6621,-2.6394,-2.6158,-2.5922,-2.5442,-2.4944,-2.4594,-2.4214,-2.3918,-2.3567,-2.3103,-2.2857,-2.2529,-2.1974,-2.1455,-2.1225,-2.0889,-2.0316,-1.9913,-2.0014,-1.9969,-1.9486,-1.9186,-1.878,-1.8473,-1.8305,-1.8053,-1.7942,-1.7637,-1.7355,-1.7138,-1.6645,-1.6146,-1.5702,-1.5356,-1.5205,-1.5054,-1.4752,-1.4758,-1.2106,-1.2966,-1.3313,-1.373,-1.4321,-1.4573,-1.4824,-1.5173,-1.5839,-1.6095,-1.6177,-1.6492,-1.6984,-1.731,-1.7392,-1.759,-1.7879,-1.8027,-1.8334,-1.8711,-1.8682,-1.8912,-1.9336,-2.0042,-2.043,-2.0761,-2.1665,-2.2553,-2.315,-2.3446,-2.3751,-2.4116,-2.4345,-2.4574,-2.479,-2.4992,-2.5182,-2.5382,-2.5535,-2.5688,-2.5828,-2.6062,-2.6327,-2.664,-2.7025,-2.7354,-2.7631,-2.8394,-2.8586,-2.816,-2.8294,-2.8328,-2.7948,-2.8066,-2.8197,-2.8287,-2.8365,-2.8444,-2.8522,-2.8341,-2.8131,-2.8079,-2.7802,-2.7469,-2.7146,-2.7011,-2.6875,-2.6658,-2.6521,-2.6521,-2.6527,-2.6677,-2.6748,-2.6559,-2.6711,-2.6627,-2.6332,-2.6086,-2.5726,-2.5454,-2.5247,-2.4781,-2.4315,-2.4097,-2.3817,-2.3416,-2.2979,-2.2625,-2.2413,-2.187,-2.1342,-2.1145,-2.0712,-2.0282,-1.9916,-1.9887,-1.9752,-1.9317,-1.8962,-1.8597,-1.8339,-1.8164,-1.7963,-1.7852,-1.7576,-1.725,-1.6859,-1.6387,-1.5938,-1.5463,-1.5219,-1.5006,-1.4851,-1.4548,-1.4599,-1.2203,-1.2705,-1.3228,-1.3652,-1.4082,-1.4489,-1.4831,-1.5173,-1.5763,-1.6087,-1.617,-1.6492,-1.6902,-1.731,-1.7392,-1.7488,-1.7573,-1.7894,-1.8243,-1.8587,-1.8578,-1.8807,-1.917,-1.962,-2.0119,-2.0639,-2.1763,-2.2574,-2.2936,-2.3294,-2.3683,-2.3959,-2.4334,-2.4646,-2.4801,-2.5064,-2.5253,-2.5523,-2.5557,-2.5767,-2.6119,-2.6139,-2.6389,-2.6824,-2.6969,-2.7156,-2.732,-2.803,-2.8206,-2.792,-2.8343,-2.8531,-2.8159,-2.8249,-2.8287,-2.8352,-2.8509,-2.8587,-2.8587,-2.8379,-2.8183,-2.8066,-2.7934,-2.759,-2.7281,-2.7079,-2.6875,-2.6726,-2.6589,-2.6521,-2.6521,-2.6515,-2.6483,-2.6213,-2.6153,-2.6024,-2.5669,-2.5301,-2.5064,-2.4996,-2.5009,-2.5009,-2.4551,-2.4216,-2.3978,-2.3551,-2.3024,-2.249,-2.2391,-2.1771,-2.1208,-2.0946,-2.0771,-2.044,-2.0029,-1.9734,-1.9436,-1.9118,-1.8843,-1.8477,-1.8414,-1.8193,-1.794,-1.7715,-1.7321,-1.6979,-1.647,-1.602,-1.5765,-1.5363,-1.5137,-1.4953,-1.4768,-1.4598,-1.444,-1.1935,-1.2534,-1.2966,-1.3483,-1.3906,-1.4489,-1.4734,-1.4908,-1.5575,-1.5914,-1.6162,-1.6402,-1.6812,-1.731,-1.7383,-1.7471,-1.749,-1.7636,-1.7797,-1.7892,-1.7868,-1.8088,-1.8486,-1.9003,-1.9666,-2.0339,-2.1093,-2.1782,-2.231,-2.2861,-2.3379,-2.3902,-2.4406,-2.4718,-2.4743,-2.5194,-2.5535,-2.5557,-2.5448,-2.5481,-2.5617,-2.5887,-2.6155,-2.6473,-2.6928,-2.7281,-2.7482,-2.776,-2.7894,-2.7789,-2.8107,-2.8252,-2.8289,-2.8379,-2.8509,-2.8522,-2.8587,-2.8587,-2.8587,-2.8341,-2.8131,-2.8066,-2.7802,-2.7536,-2.7335,-2.7146,-2.6943,-2.6714,-2.6589,-2.6521,-2.6521,-2.6521,-2.6396,-2.6201,-2.6131,-2.598,-2.5618,-2.5194,-2.479,-2.4487,-2.4351,-2.4181,-2.3897,-2.3674,-2.3525,-2.3307,-2.283,-2.2439,-2.2234,-2.1932,-2.1436,-2.1205,-2.0896,-2.0586,-2.0108,-1.9794,-1.9557,-1.9231,-1.8913,-1.8603,-1.8442,-1.8327,-1.7985,-1.7519,-1.7047,-1.6636,-1.6118,-1.577,-1.5568,-1.5383,-1.5135,-1.4968,-1.48,-1.4624,-1.4413,-1.1488,-1.1925,-1.2614,-1.3071,-1.351,-1.4183,-1.458,-1.4734,-1.5318,-1.5824,-1.6087,-1.6319,-1.6812,-1.731,-1.7392,-1.7463,-1.749,-1.7521,-1.7461,-1.7496,-1.7461,-1.7676,-1.8066,-1.8725,-1.9334,-1.9971,-2.0663,-2.124,-2.165,-2.2313,-2.2812,-2.3285,-2.3838,-2.4178,-2.4272,-2.4747,-2.501,-2.511,-2.5098,-2.5124,-2.5256,-2.5519,-2.5882,-2.6257,-2.671,-2.7115,-2.7497,-2.7723,-2.7842,-2.7921,-2.8145,-2.8327,-2.8444,-2.8522,-2.8587,-2.8587,-2.8587,-2.8587,-2.8587,-2.8327,-2.8131,-2.8066,-2.7802,-2.7523,-2.7403,-2.7214,-2.7066,-2.693,-2.6794,-2.6671,-2.6671,-2.6671,-2.6602,-2.6396,-2.627,-2.605,-2.5618,-2.5206,-2.479,-2.4513,-2.4319,-2.4009,-2.3694,-2.3452,-2.3224,-2.3075,-2.2777,-2.2402,-2.2252,-2.2035,-2.1655,-2.1349,-2.1108,-2.0644,-2.002,-1.9794,-1.9715,-1.939,-1.9073,-1.8843,-1.8612,-1.8425,-1.8143,-1.7286,-1.6713,-1.6319,-1.5828,-1.5803,-1.561,-1.5451,-1.5229,-1.5078,-1.4856,-1.4577,-1.4408,-1.0919,-1.1081,-1.1946,-1.2548,-1.2991,-1.3708,-1.4205,-1.4657,-1.5101,-1.5598,-1.6026,-1.6221,-1.673,-1.731,-1.7392,-1.7471,-1.7476,-1.7587,-1.7533,-1.7511,-1.7539,-1.7735,-1.8066,-1.8725,-1.9192,-1.9512,-2.039,-2.0903,-2.1058,-2.1735,-2.2103,-2.2306,-2.3028,-2.325,-2.3502,-2.3797,-2.4279,-2.4513,-2.4651,-2.4834,-2.495,-2.5141,-2.5589,-2.622,-2.644,-2.6791,-2.7445,-2.7723,-2.7921,-2.8145,-2.8392,-2.8522,-2.8587,-2.8587,-2.8587,-2.8587,-2.8587,-2.8587,-2.8587,-2.8379,-2.8183,-2.8079,-2.7868,-2.7723,-2.7456,-2.7245,-2.7046,-2.7059,-2.6873,-2.6739,-2.6726,-2.6713,-2.6646,-2.6531,-2.6296,-2.6025,-2.5688,-2.5336,-2.4992,-2.4801,-2.4585,-2.4345,-2.3982,-2.374,-2.3519,-2.3298,-2.3001,-2.2703,-2.2402,-2.2176,-2.1807,-2.1492,-2.1175,-2.0702,-2.001,-1.9794,-1.9636,-1.939,-1.9152,-1.9002,-1.8585,-1.8276,-1.7969,-1.7123,-1.643,-1.6019,-1.5805,-1.5735,-1.5726,-1.5584,-1.5363,-1.5141,-1.4927,-1.4641,-1.4353,-1.0203,-1.0811,-1.1358,-1.1867,-1.2358,-1.3078,-1.3588,-1.3929,-1.4557,-1.5139,-1.5678,-1.6062,-1.6617,-1.7383,-1.7513,-1.762,-1.757,-1.7803,-1.776,-1.7565,-1.7588,-1.7794,-1.8008,-1.8446,-1.8741,-1.8917,-1.9672,-2.0158,-2.0546,-2.1239,-2.1744,-2.2103,-2.2773,-2.3156,-2.327,-2.3821,-2.4288,-2.4409,-2.4368,-2.4393,-2.4568,-2.4741,-2.5148,-2.5767,-2.6323,-2.687,-2.7458,-2.7723,-2.7908,-2.8235,-2.8444,-2.8587,-2.8587,-2.8587,-2.8587,-2.8587,-2.8587,-2.8587,-2.8522,-2.8327,-2.8131,-2.8079,-2.7802,-2.759,-2.751,-2.6946,-2.6699,-2.6504,-2.6103,-2.5794,-2.5781,-2.5807,-2.5664,-2.5545,-2.5845,-2.6045,-2.5804,-2.5453,-2.517,-2.5004,-2.4683,-2.4478,-2.425,-2.4043,-2.3751,-2.3519,-2.3224,-2.2927,-2.2553,-2.2327,-2.2035,-2.1425,-2.1031,-2.0547,-2.0157,-1.9872,-1.9557,-1.939,-1.9231,-1.9073,-1.8461,-1.7883,-1.7476,-1.6884,-1.6302,-1.5848,-1.5805,-1.5805,-1.5726,-1.5655,-1.5434,-1.515,-1.507,-1.4856,-1.4425,-0.9552,-1.0116,-1.0677,-1.1277,-1.1848,-1.2508,-1.3022,-1.345,-1.3999,-1.4649,-1.5257,-1.5561,-1.6141,-1.6938,-1.7158,-1.7227,-1.7317,-1.7642,-1.7719,-1.7653,-1.7794,-1.7998,-1.8212,-1.8405,-1.8549,-1.8808,-1.9341,-1.9764,-2.0178,-2.0809,-2.1251,-2.1541,-2.224,-2.2568,-2.2639,-2.3292,-2.3751,-2.3854,-2.3901,-2.3994,-2.4189,-2.4356,-2.4788,-2.5322,-2.6033,-2.6674,-2.7379,-2.7723,-2.7921,-2.8183,-2.8379,-2.8509,-2.8587,-2.8587,-2.8587,-2.8587,-2.8587,-2.8587,-2.8522,-2.8276,-2.8145,-2.8013,-2.7736,-2.7392,-2.7183,-2.6713,-2.6518,-2.6116,-2.5741,-2.5536,-2.5497,-2.5434,-2.5307,-2.5243,-2.5464,-2.566,-2.5529,-2.5253,-2.5153,-2.4992,-2.4826,-2.4562,-2.4527,-2.4093,-2.3875,-2.3593,-2.3383,-2.3012,-2.2563,-2.2402,-2.2111,-2.1502,-2.0974,-2.0576,-2.0089,-1.9794,-1.9557,-1.939,-1.9073,-1.9002,-1.8469,-1.7717,-1.7175,-1.6756,-1.6191,-1.5805,-1.5805,-1.5805,-1.5805,-1.5664,-1.538,-1.5221,-1.507,-1.4848,-1.4489,-0.9034,-0.9261,-0.9916,-1.0695,-1.1432,-1.1963,-1.2484,-1.3073,-1.3512,-1.4158,-1.4724,-1.4987,-1.5638,-1.6327,-1.6673,-1.6796,-1.6945,-1.7487,-1.7577,-1.7712,-1.8008,-1.8279,-1.8337,-1.8482,-1.8741,-1.9075,-1.9407,-1.9747,-2.0085,-2.0509,-2.0756,-2.1073,-2.1551,-2.1808,-2.2178,-2.2542,-2.2873,-2.3263,-2.3662,-2.3863,-2.404,-2.4158,-2.4504,-2.514,-2.5735,-2.6492,-2.7275,-2.7656,-2.7815,-2.7973,-2.8208,-2.8365,-2.8522,-2.8587,-2.8587,-2.8587,-2.8587,-2.8587,-2.8495,-2.8247,-2.8011,-2.7906,-2.7512,-2.7157,-2.6725,-2.6412,-2.6151,-2.5709,-2.568,-2.5449,-2.5423,-2.5363,-2.5174,-2.4948,-2.49,-2.4883,-2.4913,-2.4829,-2.4776,-2.4931,-2.4732,-2.4542,-2.4327,-2.4039,-2.3693,-2.3149,-2.3056,-2.2834,-2.2456,-2.2328,-2.1907,-2.1359,-2.0906,-2.0615,-2.0127,-1.9724,-1.9478,-1.9311,-1.9002,-1.8718,-1.8364,-1.7708,-1.7123,-1.6627,-1.6122,-1.5857,-1.5805,-1.5805,-1.5735,-1.5647,-1.5346,-1.5204,-1.5062,-1.4705,-1.4353,-0.8209,-0.8861,-0.9291,-0.9921,-1.0528,-1.1105,-1.1746,-1.23,-1.2981,-1.3682,-1.4342,-1.4858,-1.5504,-1.6294,-1.6531,-1.6854,-1.6982,-1.7521,-1.7919,-1.791,-1.8134,-1.8337,-1.8452,-1.8623,-1.8854,-1.9121,-1.9473,-1.9791,-2.0118,-2.0453,-2.085,-2.1106,-2.1498,-2.1835,-2.2185,-2.2604,-2.3042,-2.333,-2.376,-2.4041,-2.4131,-2.4203,-2.4537,-2.5156,-2.5814,-2.6609,-2.7274,-2.7456,-2.7314,-2.7405,-2.7798,-2.8153,-2.8231,-2.8414,-2.8465,-2.8465,-2.8505,-2.8532,-2.8427,-2.7921,-2.7551,-2.7447,-2.69,-2.6251,-2.6133,-2.5677,-2.5428,-2.5066,-2.4766,-2.4635,-2.4622,-2.4458,-2.4343,-2.4189,-2.4055,-2.3927,-2.3887,-2.4149,-2.4323,-2.4133,-2.3842,-2.3567,-2.3522,-2.326,-2.2971,-2.2587,-2.2506,-2.2534,-2.2366,-2.2179,-2.1769,-2.1231,-2.0974,-2.0596,-2.0205,-1.9724,-1.9469,-1.9311,-1.9002,-1.8461,-1.8117,-1.7707,-1.7095,-1.6533,-1.6088,-1.5917,-1.5743,-1.5647,-1.5559,-1.5409,-1.5259,-1.5117,-1.4911,-1.4561,-1.4281,-0.7868,-0.8403,-0.8861,-0.9387,-1.0067,-1.0594,-1.1186,-1.1806,-1.254,-1.3212,-1.3837,-1.4381,-1.4973,-1.5659,-1.6094,-1.6323,-1.6768,-1.7432,-1.7956,-1.8046,-1.8158,-1.8161,-1.8279,-1.8404,-1.8653,-1.9215,-1.966,-1.9987,-2.0248,-2.056,-2.0967,-2.1221,-2.1612,-2.1937,-2.2309,-2.2787,-2.3138,-2.3522,-2.3878,-2.4157,-2.4292,-2.4292,-2.4537,-2.499,-2.5452,-2.5947,-2.6505,-2.6531,-2.6427,-2.6489,-2.694,-2.729,-2.734,-2.7494,-2.757,-2.7633,-2.7647,-2.7696,-2.7575,-2.7287,-2.6996,-2.6996,-2.6454,-2.6065,-2.5778,-2.5287,-2.4951,-2.4688,-2.4367,-2.4125,-2.4125,-2.4021,-2.3878,-2.3675,-2.3569,-2.3422,-2.3244,-2.3587,-2.3924,-2.3743,-2.3487,-2.3329,-2.308,-2.275,-2.2491,-2.2295,-2.2304,-2.2269,-2.2056,-2.1871,-2.172,-2.1293,-2.0991,-2.0644,-2.0186,-1.9794,-1.9469,-1.9311,-1.9073,-1.8467,-1.7911,-1.7436,-1.6957,-1.6469,-1.5939,-1.574,-1.5576,-1.5488,-1.533,-1.5267,-1.5125,-1.4982,-1.4768,-1.4489,-1.4209,-0.7561,-0.8025,-0.8399,-0.9084,-0.9846,-1.0288,-1.0812,-1.1484,-1.215,-1.2781,-1.3273,-1.384,-1.4462,-1.4896,-1.5413,-1.585,-1.6383,-1.6893,-1.7408,-1.777,-1.7785,-1.7859,-1.7951,-1.8134,-1.8438,-1.9339,-1.9598,-1.9865,-2.0142,-2.0561,-2.0751,-2.1163,-2.1608,-2.2003,-2.2494,-2.2896,-2.3318,-2.37,-2.4054,-2.4274,-2.4363,-2.4421,-2.4609,-2.4943,-2.4931,-2.5234,-2.5688,-2.5792,-2.5586,-2.5532,-2.5756,-2.5937,-2.5959,-2.6268,-2.6382,-2.662,-2.6789,-2.6904,-2.6938,-2.6675,-2.6405,-2.6405,-2.6136,-2.5848,-2.5402,-2.5124,-2.4839,-2.4484,-2.4216,-2.4125,-2.4067,-2.3995,-2.3819,-2.3628,-2.3509,-2.3223,-2.2947,-2.3108,-2.3399,-2.3369,-2.2995,-2.2662,-2.2612,-2.2391,-2.2206,-2.1992,-2.198,-2.1918,-2.1707,-2.1638,-2.1406,-2.1267,-2.0891,-2.0537,-2.0108,-1.9854,-1.9529,-1.9219,-1.9079,-1.8392,-1.7681,-1.7125,-1.6584,-1.622,-1.585,-1.5652,-1.5426,-1.5267,-1.5188,-1.5125,-1.4991,-1.4776,-1.4561,-1.4346,-1.4065,-0.6949,-0.7638,-0.8025,-0.8637,-0.9468,-0.9986,-1.0634,-1.1409,-1.181,-1.2519,-1.3164,-1.363,-1.4163,-1.4824,-1.5275,-1.5756,-1.6184,-1.6506,-1.6718,-1.7096,-1.7203,-1.7405,-1.7605,-1.7821,-1.8161,-1.8422,-1.8805,-1.9122,-1.9454,-1.9678,-2.03,-2.0885,-2.1331,-2.1874,-2.2627,-2.315,-2.3518,-2.3936,-2.4274,-2.4549,-2.4607,-2.4589,-2.4601,-2.4891,-2.4689,-2.4974,-2.5465,-2.5545,-2.5402,-2.5171,-2.5179,-2.4917,-2.4945,-2.5641,-2.6182,-2.6357,-2.6405,-2.6412,-2.6505,-2.6221,-2.6031,-2.5869,-2.5522,-2.5181,-2.4949,-2.4807,-2.4638,-2.4398,-2.4203,-2.4125,-2.4125,-2.3936,-2.3819,-2.3628,-2.345,-2.3223,-2.2824,-2.2813,-2.2812,-2.2718,-2.2341,-2.2063,-2.2075,-2.2015,-2.1647,-2.1485,-2.1442,-2.1239,-2.0952,-2.1079,-2.1293,-2.1012,-2.0791,-2.0459,-2.002,-1.9756,-1.9483,-1.9187,-1.8903,-1.8127,-1.7473,-1.671,-1.6207,-1.5799,-1.5576,-1.5476,-1.5275,-1.5054,-1.4982,-1.4919,-1.4784,-1.4641,-1.4425,-1.4281,-1.392,-0.6314,-0.6982,-0.7504,-0.8093,-0.8748,-0.9332,-0.998,-1.0629,-1.1203,-1.1779,-1.2424,-1.2924,-1.3476,-1.4024,-1.4514,-1.5078,-1.5701,-1.6076,-1.6338,-1.6699,-1.6825,-1.6941,-1.7134,-1.7389,-1.744,-1.7595,-1.7966,-1.8578,-1.9205,-1.9629,-2.0053,-2.0511,-2.0971,-2.1648,-2.2468,-2.2992,-2.3476,-2.3981,-2.4434,-2.4664,-2.4791,-2.4677,-2.466,-2.4498,-2.4424,-2.4507,-2.4663,-2.4754,-2.4563,-2.4463,-2.4484,-2.4374,-2.4433,-2.4649,-2.5309,-2.556,-2.5633,-2.5679,-2.5828,-2.5575,-2.5453,-2.5398,-2.5084,-2.4919,-2.4892,-2.4805,-2.4593,-2.4363,-2.4234,-2.4157,-2.4112,-2.3878,-2.37,-2.3569,-2.339,-2.3103,-2.28,-2.2739,-2.2494,-2.2247,-2.2044,-2.1851,-2.1729,-2.1551,-2.1088,-2.0963,-2.098,-2.0698,-2.03,-2.062,-2.1028,-2.0872,-2.0667,-2.0436,-2.0034,-1.9648,-1.9397,-1.9071,-1.8601,-1.7832,-1.723,-1.6538,-1.5892,-1.5345,-1.5237,-1.515,-1.507,-1.4919,-1.4784,-1.4721,-1.4585,-1.4441,-1.4289,-1.4145,-1.3775,-0.5728,-0.6305,-0.6877,-0.7442,-0.8009,-0.8654,-0.9292,-0.9829,-1.0553,-1.1119,-1.171,-1.2276,-1.2758,-1.331,-1.3801,-1.4473,-1.5304,-1.556,-1.5898,-1.6266,-1.6286,-1.6357,-1.6611,-1.6707,-1.6789,-1.7045,-1.7455,-1.8115,-1.8781,-1.9333,-1.9818,-2.0268,-2.0702,-2.1368,-2.2147,-2.266,-2.3236,-2.38,-2.4262,-2.453,-2.4708,-2.4677,-2.4447,-2.4112,-2.4008,-2.3988,-2.4079,-2.4092,-2.4092,-2.4086,-2.4106,-2.4138,-2.4099,-2.3995,-2.4103,-2.4403,-2.454,-2.4721,-2.4932,-2.5073,-2.51,-2.51,-2.5032,-2.5005,-2.4948,-2.4835,-2.4708,-2.4478,-2.4292,-2.4247,-2.4144,-2.3865,-2.3688,-2.3569,-2.3318,-2.309,-2.286,-2.2678,-2.2567,-2.2259,-2.1898,-2.1773,-2.1698,-2.1434,-2.1042,-2.0862,-2.0803,-2.0522,-2.0266,-2.04,-2.0635,-2.07,-2.0585,-2.0446,-2.0059,-1.9496,-1.9156,-1.8787,-1.8133,-1.7391,-1.6867,-1.6276,-1.566,-1.5031,-1.488,-1.4792,-1.4721,-1.4721,-1.4649,-1.4505,-1.4449,-1.4232,-1.4008,-1.3783,-1.3484,-0.5156,-0.5721,-0.6297,-0.6948,-0.7703,-0.8413,-0.9125,-0.973,-1.0215,-1.0886,-1.1424,-1.188,-1.2393,-1.306,-1.3752,-1.417,-1.4452,-1.4707,-1.5074,-1.5494,-1.5625,-1.586,-1.6168,-1.6358,-1.6591,-1.6818,-1.7312,-1.7667,-1.8271,-1.8814,-1.934,-1.9848,-2.0464,-2.1138,-2.1907,-2.2302,-2.2668,-2.3178,-2.3728,-2.4225,-2.4486,-2.4593,-2.439,-2.4171,-2.4067,-2.4067,-2.4067,-2.4067,-2.4067,-2.4054,-2.4041,-2.4099,-2.4034,-2.369,-2.3662,-2.388,-2.4273,-2.4721,-2.4827,-2.4801,-2.4788,-2.4817,-2.4954,-2.5021,-2.491,-2.4797,-2.4684,-2.4778,-2.4478,-2.4292,-2.4261,-2.4041,-2.3819,-2.3628,-2.345,-2.3103,-2.2873,-2.2678,-2.2567,-2.2321,-2.1949,-2.1835,-2.1698,-2.1371,-2.1106,-2.0862,-2.0616,-2.0401,-2.0204,-2.0374,-2.0349,-2.0429,-2.0388,-2.0266,-1.9866,-1.9393,-1.8889,-1.8471,-1.7715,-1.6899,-1.6387,-1.5935,-1.545,-1.4872,-1.4649,-1.4505,-1.4497,-1.4497,-1.4433,-1.4361,-1.4225,-1.3935,-1.3645,-1.3419,-1.3119,-0.4309,-0.5205,-0.5751,-0.6298,-0.6984,-0.7599,-0.8208,-0.8802,-0.9348,-1.0013,-1.0607,-1.1066,-1.1718,-1.2526,-1.3135,-1.3538,-1.3847,-1.4165,-1.4538,-1.4923,-1.5196,-1.5507,-1.5904,-1.6192,-1.6488,-1.6775,-1.7245,-1.7689,-1.8073,-1.853,-1.9114,-1.9621,-2.0173,-2.0834,-2.16,-2.1917,-2.2419,-2.2991,-2.3649,-2.4025,-2.4195,-2.4349,-2.4421,-2.4086,-2.4086,-2.406,-2.406,-2.4125,-2.4125,-2.4047,-2.3864,-2.3673,-2.3585,-2.326,-2.3027,-2.3326,-2.3513,-2.3756,-2.392,-2.4015,-2.4082,-2.4136,-2.4231,-2.4259,-2.4477,-2.4558,-2.4568,-2.4765,-2.4607,-2.4408,-2.4279,-2.4041,-2.3819,-2.3641,-2.3509,-2.321,-2.2921,-2.2751,-2.2555,-2.2309,-2.2073,-2.1886,-2.1698,-2.1434,-2.1169,-2.0914,-2.0722,-2.054,-2.0314,-2.0264,-2.0217,-2.0184,-2.0154,-2.004,-1.9598,-1.9097,-1.8461,-1.7914,-1.7081,-1.6412,-1.5939,-1.5455,-1.5031,-1.4721,-1.4505,-1.4425,-1.4353,-1.4281,-1.4209,-1.4145,-1.4008,-1.3717,-1.3346,-1.29,-1.2526,-0.3454,-0.4452,-0.514,-0.5752,-0.6284,-0.6806,-0.741,-0.7992,-0.8587,-0.9215,-0.9831,-1.0375,-1.1078,-1.1775,-1.2269,-1.2728,-1.316,-1.3541,-1.3952,-1.4408,-1.4754,-1.4992,-1.5342,-1.5751,-1.6223,-1.6469,-1.709,-1.7678,-1.8182,-1.8679,-1.9117,-1.9473,-2.0054,-2.063,-2.121,-2.1637,-2.2041,-2.2773,-2.327,-2.3501,-2.3565,-2.3857,-2.3847,-2.3743,-2.3681,-2.3668,-2.3681,-2.3642,-2.3629,-2.3524,-2.3306,-2.3126,-2.3102,-2.2763,-2.2618,-2.2696,-2.2734,-2.2625,-2.2877,-2.3065,-2.3226,-2.3346,-2.3464,-2.3818,-2.4079,-2.4135,-2.4109,-2.4339,-2.4386,-2.4243,-2.4178,-2.4013,-2.3923,-2.376,-2.3582,-2.3283,-2.3017,-2.2798,-2.2628,-2.2371,-2.2123,-2.1937,-2.1749,-2.1434,-2.1181,-2.0967,-2.0764,-2.0635,-2.0467,-2.0234,-2.0041,-1.9907,-1.9658,-1.9525,-1.9123,-1.8592,-1.8014,-1.7454,-1.6563,-1.5964,-1.5556,-1.5191,-1.48,-1.4577,-1.4361,-1.4217,-1.4072,-1.4065,-1.3985,-1.3848,-1.3637,-1.3419,-1.3053,-1.2532,-1.2009,-0.2648,-0.3365,-0.4443,-0.5216,-0.5951,-0.6544,-0.7064,-0.7627,-0.8081,-0.8639,-0.9415,-1.0151,-1.0746,-1.1167,-1.1523,-1.1898,-1.2181,-1.2419,-1.2961,-1.3405,-1.3588,-1.4083,-1.4537,-1.5129,-1.5622,-1.6069,-1.6808,-1.7588,-1.8278,-1.8845,-1.9239,-1.9668,-2.022,-2.0536,-2.0927,-2.1358,-2.1709,-2.2268,-2.2603,-2.2746,-2.2831,-2.2977,-2.2921,-2.2719,-2.2612,-2.2546,-2.2559,-2.2716,-2.2795,-2.2782,-2.2694,-2.2656,-2.2604,-2.2285,-2.2159,-2.2103,-2.1947,-2.1848,-2.1966,-2.2522,-2.3117,-2.3344,-2.3444,-2.3464,-2.3751,-2.3557,-2.3521,-2.3659,-2.3824,-2.3834,-2.3897,-2.3966,-2.3759,-2.3515,-2.3251,-2.3018,-2.2833,-2.2795,-2.2639,-2.2445,-2.2247,-2.2147,-2.1937,-2.1686,-2.136,-2.1158,-2.085,-2.0646,-2.0388,-2.015,-1.9854,-1.9554,-1.9199,-1.8846,-1.8418,-1.7978,-1.7511,-1.704,-1.6272,-1.5797,-1.5371,-1.4927,-1.4569,-1.4361,-1.4217,-1.4008,-1.379,-1.3783,-1.3702,-1.3564,-1.3346,-1.3127,-1.268,-1.2077,-1.1632,-0.2005,-0.2634,-0.3362,-0.435,-0.5415,-0.578,-0.625,-0.6867,-0.726,-0.7992,-0.892,-0.9583,-1.0134,-1.0559,-1.1092,-1.1495,-1.1824,-1.2223,-1.2648,-1.3123,-1.344,-1.3702,-1.4175,-1.457,-1.5042,-1.5563,-1.6396,-1.7295,-1.7856,-1.8762,-1.9527,-1.9978,-2.0458,-2.0871,-2.1166,-2.1299,-2.1621,-2.1825,-2.2101,-2.2315,-2.2283,-2.2618,-2.2657,-2.2441,-2.2387,-2.2441,-2.2522,-2.2508,-2.2549,-2.2538,-2.2273,-2.2259,-2.2192,-2.1837,-2.1709,-2.1718,-2.158,-2.1547,-2.1506,-2.1983,-2.2287,-2.2511,-2.2672,-2.2902,-2.325,-2.3078,-2.3173,-2.3264,-2.3351,-2.3299,-2.3326,-2.3228,-2.3073,-2.2916,-2.2812,-2.2623,-2.2566,-2.2581,-2.2446,-2.2196,-2.2323,-2.2406,-2.2183,-2.2011,-2.1675,-2.1285,-2.0978,-2.0669,-2.0399,-2.0074,-1.9747,-1.9351,-1.8942,-1.8539,-1.8144,-1.7647,-1.7097,-1.6542,-1.5991,-1.5638,-1.5213,-1.4784,-1.4425,-1.4217,-1.4,-1.3783,-1.3637,-1.3499,-1.3419,-1.3339,-1.3046,-1.2753,-1.2231,-1.167,-1.1277,-0.1337,-0.1889,-0.2453,-0.3463,-0.4745,-0.5051,-0.5505,-0.6109,-0.6549,-0.7369,-0.8539,-0.9067,-0.9539,-0.9981,-1.0372,-1.077,-1.1168,-1.1618,-1.2137,-1.2494,-1.2794,-1.3227,-1.3642,-1.4086,-1.4521,-1.5039,-1.594,-1.683,-1.7561,-1.8542,-1.9133,-1.9755,-2.0554,-2.0973,-2.1361,-2.1554,-2.165,-2.1739,-2.186,-2.1934,-2.1827,-2.2043,-2.2179,-2.1944,-2.1865,-2.1904,-2.193,-2.1956,-2.1982,-2.1993,-2.1872,-2.1787,-2.1663,-2.1547,-2.1415,-2.1471,-2.1568,-2.1664,-2.1664,-2.1712,-2.1807,-2.2102,-2.2216,-2.2426,-2.2574,-2.2554,-2.2572,-2.2761,-2.2766,-2.28,-2.2775,-2.2778,-2.2748,-2.2729,-2.2428,-2.2287,-2.2214,-2.2173,-2.2078,-2.191,-2.2159,-2.2408,-2.2237,-2.2005,-2.18,-2.1411,-2.0978,-2.0658,-2.0399,-2.0009,-1.955,-1.9218,-1.8808,-1.8347,-1.7872,-1.7382,-1.6821,-1.6272,-1.5788,-1.5426,-1.4999,-1.4641,-1.4353,-1.4137,-1.392,-1.371,-1.3492,-1.3346,-1.3266,-1.3112,-1.2808,-1.254,-1.2099,-1.1624,-1.1141,-0.0707,-0.1362,-0.17,-0.2642,-0.3941,-0.4366,-0.4911,-0.551,-0.6023,-0.6953,-0.8149,-0.8607,-0.8961,-0.9247,-0.9617,-1.003,-1.0331,-1.0709,-1.1165,-1.1729,-1.2139,-1.2314,-1.2817,-1.3411,-1.4103,-1.4647,-1.5581,-1.6523,-1.7216,-1.8031,-1.8583,-1.9251,-2.0193,-2.0994,-2.1403,-2.1664,-2.1712,-2.163,-2.1671,-2.1532,-2.139,-2.1448,-2.1402,-2.1329,-2.1292,-2.1332,-2.1395,-2.1395,-2.1446,-2.1416,-2.1425,-2.1417,-2.1336,-2.1505,-2.152,-2.1568,-2.1712,-2.1807,-2.1807,-2.1935,-2.1983,-2.203,-2.2137,-2.2269,-2.2208,-2.208,-2.1959,-2.222,-2.2188,-2.2241,-2.2318,-2.2404,-2.2392,-2.2286,-2.2007,-2.1779,-2.1738,-2.1834,-2.1746,-2.168,-2.201,-2.2175,-2.2103,-2.1922,-2.183,-2.1486,-2.0978,-2.0658,-2.0399,-1.9933,-1.9407,-1.8942,-1.8539,-1.8076,-1.7529,-1.7028,-1.6473,-1.5991,-1.5576,-1.5284,-1.4927,-1.4497,-1.4281,-1.4057,-1.3848,-1.3564,-1.3346,-1.32,-1.3022,-1.2797,-1.2592,-1.2324,-1.1958,-1.1558,-1.1038,-0.0114,-0.0628,-0.0923,-0.1563,-0.2492,-0.3252,-0.3988,-0.4735,-0.5575,-0.6421,-0.7194,-0.7712,-0.8238,-0.8678,-0.913,-0.9577,-0.9999,-1.036,-1.0871,-1.1477,-1.1778,-1.2135,-1.2586,-1.3145,-1.3713,-1.4253,-1.5158,-1.6143,-1.6811,-1.7641,-1.8464,-1.9231,-1.997,-2.0945,-2.1671,-2.1949,-2.1902,-2.1746,-2.1664,-2.1485,-2.1229,-2.1229,-2.118,-2.1046,-2.1046,-2.1095,-2.1144,-2.1193,-2.118,-2.1229,-2.1326,-2.1326,-2.1361,-2.1568,-2.1616,-2.1664,-2.1807,-2.1996,-2.2044,-2.2123,-2.2137,-2.2123,-2.217,-2.217,-2.217,-2.1949,-2.1841,-2.1759,-2.1773,-2.1789,-2.1718,-2.1672,-2.1603,-2.1451,-2.1208,-2.1081,-2.1056,-2.1327,-2.1452,-2.1501,-2.1635,-2.1893,-2.1965,-2.1849,-2.1737,-2.1404,-2.0962,-2.0635,-2.0335,-1.9736,-1.9208,-1.8731,-1.8259,-1.7725,-1.7254,-1.6821,-1.6333,-1.5859,-1.5426,-1.5133,-1.4776,-1.4346,-1.4137,-1.3928,-1.371,-1.3419,-1.32,-1.2935,-1.2689,-1.2503,-1.2369,-1.2232,-1.1958,-1.1438,-1.0878,0.0505,0.0112,-0.0224,-0.0616,-0.1235,-0.229,-0.323,-0.4185,-0.5163,-0.5941,-0.6544,-0.709,-0.7628,-0.8215,-0.8738,-0.9211,-0.974,-1.0154,-1.0718,-1.1326,-1.1678,-1.2126,-1.2618,-1.3094,-1.3614,-1.4142,-1.4942,-1.5823,-1.6478,-1.7375,-1.8291,-1.9111,-1.978,-2.0569,-2.1346,-2.1654,-2.1913,-2.1857,-2.1855,-2.1712,-2.152,-2.1423,-2.1423,-2.1326,-2.1326,-2.1326,-2.1375,-2.1375,-2.1375,-2.1471,-2.1471,-2.1458,-2.152,-2.1616,-2.1712,-2.1807,-2.1949,-2.2091,-2.217,-2.217,-2.217,-2.217,-2.217,-2.217,-2.2123,-2.1949,-2.1807,-2.1664,-2.152,-2.1423,-2.1388,-2.1264,-2.1131,-2.1059,-2.0938,-2.0828,-2.0755,-2.1095,-2.1134,-2.1133,-2.134,-2.1584,-2.1713,-2.1712,-2.1582,-2.1218,-2.0894,-2.0579,-2.0183,-1.9528,-1.8931,-1.8462,-1.7978,-1.7442,-1.7038,-1.6682,-1.6202,-1.5647,-1.5355,-1.5062,-1.4633,-1.4274,-1.4072,-1.379,-1.3564,-1.3273,-1.2907,-1.2668,-1.243,-1.2317,-1.222,-1.208,-1.193,-1.1432,-1.0887,0.1062,0.0727,0.0503,0.0167,-0.039,-0.1499,-0.273,-0.4024,-0.4743,-0.5449,-0.6204,-0.6756,-0.7295,-0.7723,-0.8309,-0.8837,-0.9316,-0.9784,-1.0454,-1.1124,-1.1628,-1.2126,-1.2666,-1.3142,-1.3705,-1.4316,-1.4994,-1.5723,-1.6237,-1.7149,-1.8175,-1.899,-1.947,-2.0157,-2.0797,-2.1255,-2.1607,-2.1868,-2.1927,-2.1796,-2.1704,-2.1759,-2.1698,-2.165,-2.165,-2.165,-2.165,-2.1664,-2.1616,-2.1616,-2.1616,-2.1602,-2.1698,-2.1855,-2.1949,-2.2044,-2.2137,-2.217,-2.217,-2.217,-2.217,-2.217,-2.217,-2.2137,-2.2044,-2.1902,-2.1759,-2.1616,-2.1458,-2.141,-2.1361,-2.1277,-2.118,-2.1095,-2.0961,-2.0875,-2.0775,-2.0767,-2.0729,-2.0847,-2.1144,-2.1302,-2.1259,-2.1244,-2.1212,-2.0912,-2.0488,-2.0116,-1.9727,-1.9121,-1.8586,-1.8124,-1.7647,-1.7166,-1.6751,-1.6473,-1.6053,-1.5497,-1.5346,-1.5054,-1.4633,-1.4201,-1.3992,-1.371,-1.3419,-1.3046,-1.2753,-1.2405,-1.2181,-1.2087,-1.2024,-1.1966,-1.1822,-1.1506,-1.098,0.1564,0.125,0.0989,0.0677,0.0156,-0.0988,-0.2296,-0.3564,-0.4349,-0.5011,-0.5609,-0.6204,-0.6784,-0.7295,-0.7996,-0.8527,-0.9106,-0.9732,-1.0403,-1.1065,-1.1669,-1.2224,-1.2813,-1.343,-1.3999,-1.4547,-1.5096,-1.5768,-1.6522,-1.7269,-1.8069,-1.8885,-1.9247,-1.9802,-2.0283,-2.0659,-2.1181,-2.1583,-2.1678,-2.1763,-2.1876,-2.1913,-2.188,-2.1874,-2.1888,-2.1888,-2.1841,-2.1793,-2.1746,-2.1759,-2.1746,-2.1746,-2.1746,-2.1888,-2.203,-2.2137,-2.2184,-2.217,-2.217,-2.217,-2.217,-2.2077,-2.203,-2.203,-2.1935,-2.1807,-2.1664,-2.1568,-2.1458,-2.141,-2.141,-2.1313,-2.1229,-2.1095,-2.101,-2.0961,-2.0812,-2.0775,-2.0675,-2.0677,-2.0961,-2.0888,-2.0828,-2.0753,-2.0641,-2.0384,-2.0075,-1.9726,-1.927,-1.8793,-1.8317,-1.7862,-1.751,-1.7028,-1.6621,-1.6342,-1.5842,-1.5409,-1.5267,-1.4982,-1.4489,-1.4065,-1.392,-1.363,-1.3266,-1.29,-1.2452,-1.2188,-1.1985,-1.1799,-1.1748,-1.1782,-1.1696,-1.1326,-1.0895,0.2069,0.1866,0.1564,0.1009,0.0302,-0.0605,-0.171,-0.2837,-0.3756,-0.4389,-0.4975,-0.5677,-0.6308,-0.685,-0.7564,-0.8268,-0.8844,-0.9524,-1.0249,-1.1015,-1.1769,-1.2353,-1.2987,-1.3668,-1.428,-1.4834,-1.5412,-1.6064,-1.6837,-1.7707,-1.8528,-1.8941,-1.9139,-1.9582,-2.0012,-2.022,-2.0602,-2.1012,-2.1312,-2.1524,-2.173,-2.1893,-2.1931,-2.2081,-2.2063,-2.2077,-2.203,-2.1983,-2.1935,-2.1902,-2.1888,-2.1888,-2.1888,-2.1983,-2.2077,-2.2184,-2.217,-2.217,-2.217,-2.2137,-2.2091,-2.1996,-2.1902,-2.1855,-2.1793,-2.1712,-2.1616,-2.152,-2.1458,-2.141,-2.141,-2.1361,-2.1277,-2.1144,-2.1095,-2.101,-2.0924,-2.0838,-2.0751,-2.0664,-2.0591,-2.0436,-2.0407,-2.0299,-2.0106,-1.9807,-1.9555,-1.936,-1.9026,-1.8609,-1.8152,-1.7735,-1.7382,-1.7028,-1.6603,-1.6245,-1.5842,-1.5488,-1.5267,-1.4911,-1.4346,-1.3992,-1.3848,-1.3484,-1.3046,-1.268,-1.2305,-1.2035,-1.1784,-1.163,-1.1491,-1.1387,-1.1354,-1.1187,-1.0641,0.2693,0.2537,0.2102,0.1341,0.0399,-0.0199,-0.0945,-0.1894,-0.2891,-0.3705,-0.4346,-0.5144,-0.5784,-0.6329,-0.7054,-0.7846,-0.8554,-0.9304,-1.019,-1.0964,-1.1859,-1.2491,-1.317,-1.3884,-1.4593,-1.5187,-1.58,-1.6497,-1.7229,-1.8054,-1.8784,-1.9124,-1.942,-1.9743,-1.9969,-1.9999,-2.0339,-2.0677,-2.0917,-2.1102,-2.1585,-2.1757,-2.1928,-2.2341,-2.2483,-2.2509,-2.2402,-2.2263,-2.217,-2.2091,-2.2044,-2.203,-2.203,-2.2077,-2.217,-2.217,-2.217,-2.217,-2.2123,-2.2077,-2.1996,-2.1902,-2.1759,-2.1664,-2.1616,-2.1568,-2.152,-2.1471,-2.1375,-2.1326,-2.1326,-2.1277,-2.118,-2.1095,-2.1046,-2.0961,-2.0875,-2.0788,-2.0638,-2.0537,-2.0297,-2.0193,-1.9877,-1.9764,-1.953,-1.916,-1.8892,-1.876,-1.8595,-1.8248,-1.7868,-1.7513,-1.7295,-1.6982,-1.6408,-1.6079,-1.5824,-1.5559,-1.5275,-1.484,-1.4274,-1.3985,-1.3775,-1.3339,-1.2973,-1.2526,-1.2164,-1.1938,-1.167,-1.1563,-1.1381,-1.115,-1.1006,-1.0768,-1.0472,0.3351,0.326,0.2532,0.1704,0.0876,0.0415,-0.0323,-0.1151,-0.1891,-0.2813,-0.3788,-0.4496,-0.5073,-0.5649,-0.6549,-0.7321,-0.8114,-0.9038,-1.0195,-1.1065,-1.1904,-1.2696,-1.3494,-1.4258,-1.4949,-1.5534,-1.6194,-1.7034,-1.7881,-1.8577,-1.9161,-1.953,-1.9797,-1.9975,-2.015,-2.02,-2.0319,-2.0548,-2.0531,-2.0801,-2.1318,-2.1755,-2.2048,-2.2206,-2.2232,-2.2491,-2.2457,-2.2452,-2.2388,-2.2324,-2.2324,-2.2278,-2.2184,-2.217,-2.217,-2.217,-2.217,-2.2123,-2.2077,-2.1983,-2.1902,-2.1759,-2.1616,-2.1554,-2.1458,-2.1471,-2.1423,-2.1375,-2.1326,-2.1277,-2.1229,-2.118,-2.1095,-2.1046,-2.0997,-2.0911,-2.0838,-2.0675,-2.0575,-2.0347,-2.0118,-1.9836,-1.9497,-1.9209,-1.8948,-1.8612,-1.83,-1.8132,-1.8018,-1.7798,-1.7486,-1.7148,-1.725,-1.6927,-1.6327,-1.6026,-1.5877,-1.5559,-1.5267,-1.4768,-1.4201,-1.392,-1.3564,-1.3193,-1.2826,-1.2452,-1.2155,-1.1872,-1.1713,-1.1449,-1.1198,-1.0883,-1.0539,-1.0284,-1.0038,0.4001,0.3822,0.2987,0.2188,0.1475,0.0939,0.0224,-0.0582,-0.1254,-0.2018,-0.3005,-0.3829,-0.4494,-0.5053,-0.6017,-0.6817,-0.7586,-0.8637,-0.9623,-1.068,-1.1752,-1.2686,-1.359,-1.4503,-1.5277,-1.5901,-1.6921,-1.7828,-1.85,-1.9072,-1.9581,-1.9889,-2.0115,-2.0304,-2.0494,-2.0527,-2.0527,-2.0525,-2.0392,-2.0574,-2.1031,-2.1332,-2.1639,-2.1723,-2.193,-2.2106,-2.2032,-2.2074,-2.2171,-2.2178,-2.2232,-2.231,-2.2231,-2.217,-2.217,-2.217,-2.217,-2.2137,-2.203,-2.1935,-2.1855,-2.1664,-2.152,-2.1471,-2.1326,-2.1326,-2.1326,-2.1277,-2.1193,-2.1144,-2.1082,-2.1033,-2.101,-2.0961,-2.0924,-2.0875,-2.0725,-2.0575,-2.041,-2.0195,-1.9914,-1.9708,-1.942,-1.9076,-1.8795,-1.8326,-1.7944,-1.7701,-1.7536,-1.7318,-1.7004,-1.6834,-1.694,-1.6773,-1.6206,-1.6007,-1.5965,-1.563,-1.5196,-1.4776,-1.4274,-1.3783,-1.3426,-1.3127,-1.2753,-1.2452,-1.2182,-1.1853,-1.1528,-1.1221,-1.0975,-1.0621,-1.0257,-0.9859,-0.9428,0.4696,0.4387,0.3561,0.2765,0.2097,0.1475,0.0716,-0.0089,-0.0761,-0.1341,-0.2029,-0.3164,-0.4033,-0.4705,-0.5505,-0.6283,-0.7134,-0.8105,-0.9096,-1.0161,-1.1174,-1.2314,-1.3485,-1.4529,-1.5504,-1.6574,-1.7598,-1.8266,-1.8898,-1.9435,-1.9869,-2.0239,-2.0444,-2.0662,-2.0794,-2.086,-2.086,-2.0827,-2.0728,-2.0595,-2.0667,-2.0742,-2.1106,-2.1317,-2.1461,-2.1359,-2.1359,-2.1425,-2.1672,-2.1958,-2.2181,-2.2285,-2.2278,-2.2231,-2.2217,-2.2217,-2.217,-2.2123,-2.1983,-2.1855,-2.1746,-2.1602,-2.1471,-2.1375,-2.1229,-2.1193,-2.1193,-2.1144,-2.1046,-2.0997,-2.0997,-2.0934,-2.0911,-2.0875,-2.0825,-2.0788,-2.0625,-2.0461,-2.0246,-2.0029,-1.9823,-1.9604,-1.9291,-1.8999,-1.8553,-1.8144,-1.7767,-1.7532,-1.7248,-1.7007,-1.6678,-1.6553,-1.6622,-1.6328,-1.5975,-1.6032,-1.6061,-1.5559,-1.5125,-1.4705,-1.4353,-1.3855,-1.3499,-1.3046,-1.2746,-1.2466,-1.2153,-1.1814,-1.1419,-1.1025,-1.0746,-1.0394,-0.9852,-0.9428,-0.8903,0.5599,0.4904,0.4339,0.3646,0.2765,0.2099,0.134,0.0492,-0.0223,-0.0895,-0.1517,-0.2241,-0.3069,-0.3973,-0.4923,-0.5754,-0.6568,-0.7517,-0.8643,-0.9755,-1.0669,-1.1924,-1.3297,-1.4568,-1.5909,-1.7113,-1.8161,-1.8745,-1.9236,-1.9726,-2.0131,-2.046,-2.0697,-2.0909,-2.1103,-2.1151,-2.1183,-2.1151,-2.1103,-2.0974,-2.0901,-2.0938,-2.0959,-2.1182,-2.1389,-2.1426,-2.1458,-2.1354,-2.1553,-2.1888,-2.2259,-2.2423,-2.2417,-2.2324,-2.2278,-2.2217,-2.2217,-2.2077,-2.1949,-2.1841,-2.1698,-2.1471,-2.1375,-2.1326,-2.118,-2.1095,-2.1046,-2.0974,-2.0938,-2.0938,-2.0875,-2.0799,-2.0762,-2.0762,-2.0762,-2.0675,-2.0524,-2.0347,-2.0182,-1.9926,-1.9668,-1.95,-1.9291,-1.8934,-1.8518,-1.8075,-1.7756,-1.7497,-1.7073,-1.6753,-1.6475,-1.6424,-1.6432,-1.5991,-1.5649,-1.6073,-1.6061,-1.5559,-1.5054,-1.4705,-1.4281,-1.4,-1.3564,-1.3046,-1.2774,-1.2573,-1.2211,-1.1772,-1.1447,-1.1061,-1.0642,-1.0168,-0.9593,-0.899,-0.8552]}]]